GFSSGP_850_spd_000.txt.gz
Wind_Speed
3 2 0 0 4 5 2 3 2 5 4 11 21 19 11 9 4 6 7 4 7 7 7 7 6 7 7 8 8 7 8 8 6 6 5 4 6 7 7 9 13 14 15 18 20 18 14 16 21
2 1 2 1 5 4 4 4 3 4 19 23 21 17 12 4 12 12 8 5 4 7 5 8 7 8 7 7 6 7 6 6 5 1 2 2 3 5 8 10 14 20 19 19 18 22 17 20 8
7 4 2 4 4 5 1 4 4 16 13 3 6 12 7 7 8 8 9 9 6 7 6 7 7 9 9 9 8 6 5 3 1 1 2 2 1 4 6 8 11 12 11 11 9 11 6 18 21
6 3 4 5 3 0 1 6 3 3 15 13 13 7 8 9 9 10 12 9 6 8 9 10 9 9 10 9 8 7 6 5 4 3 3 0 1 2 4 6 8 9 8 12 11 10 4 3 7
7 3 4 4 3 2 3 19 15 6 5 4 4 4 10 10 11 14 12 11 5 6 8 8 7 8 8 7 7 6 4 5 4 2 1 1 1 2 3 6 6 5 4 8 9 8 10 17 16
3 2 5 3 3 4 4 22 20 9 4 11 14 7 6 11 12 13 9 10 8 6 7 6 5 7 7 6 6 4 3 2 2 1 2 1 1 2 2 3 5 7 6 5 5 8 12 17 22
6 4 5 4 4 3 3 7 8 9 7 5 11 5 9 15 15 12 9 9 1 1 3 3 3 6 8 8 6 3 1 1 2 3 3 2 2 1 3 3 5 7 7 6 6 6 8 8 10
3 5 4 4 4 3 6 3 10 9 3 10 8 5 5 18 15 10 15 8 4 2 2 2 4 7 10 11 9 7 1 1 1 2 3 3 4 3 1 3 5 7 8 7 7 7 8 9 11
4 5 4 3 3 2 7 4 7 4 3 4 4 7 4 19 16 15 11 14 12 7 7 6 6 9 10 9 8 7 4 1 2 1 1 3 4 2 3 4 4 4 4 7 9 9 10 13 14
9 4 2 3 5 1 4 6 2 2 9 10 12 11 17 16 17 14 12 16 15 14 10 5 4 9 9 9 6 6 6 7 6 4 4 3 3 3 4 5 5 6 7 7 7 9 10 10 14
3 3 3 2 3 4 3 6 4 4 3 8 17 19 18 13 11 9 10 16 18 16 9 6 5 12 8 7 6 7 8 7 8 5 7 6 6 7 9 9 8 9 9 8 7 7 9 12 15
4 4 4 3 0 2 2 4 4 1 3 6 10 13 18 18 12 9 11 9 20 13 9 7 12 13 7 5 6 8 10 9 9 8 7 8 6 8 10 12 12 11 11 12 12 11 10 10 12
3 2 2 4 5 4 4 4 5 9 9 11 12 18 18 17 11 10 13 11 14 11 7 9 13 13 10 7 7 9 11 12 13 13 13 14 14 13 12 12 13 14 13 13 14 15 15 15 16
2 3 5 10 10 8 5 5 1 13 7 15 16 19 17 14 11 9 13 14 13 12 13 16 14 13 12 9 9 10 12 16 17 16 17 17 16 15 14 15 16 16 15 15 14 13 14 14 15
4 3 6 12 6 4 5 2 6 6 9 17 22 18 16 15 16 19 19 18 17 15 15 13 12 13 16 15 12 12 15 17 18 18 18 17 15 16 17 18 17 17 16 15 14 13 12 13 14
4 3 4 6 9 4 3 7 9 11 8 21 25 20 16 16 15 18 19 21 19 16 13 12 13 15 19 18 16 17 18 17 19 19 19 19 18 17 18 18 16 16 15 15 14 11 11 12 15
6 4 3 8 6 2 3 7 10 17 9 26 25 21 19 19 19 18 18 19 17 14 11 12 12 16 19 18 20 21 20 20 21 23 23 22 20 17 18 18 16 13 12 12 12 11 12 14 14
4 5 5 2 6 5 6 8 9 11 7 21 24 17 10 7 5 8 18 16 15 12 10 10 14 15 16 19 20 21 22 23 22 22 25 25 24 21 19 18 17 14 14 14 13 11 13 13 15
1 2 3 4 3 7 6 8 13 4 19 19 19 22 18 15 10 5 5 14 14 9 8 10 11 12 16 16 17 19 22 23 24 26 26 23 24 27 23 20 19 18 16 13 13 13 14 12 14
6 3 4 6 6 3 8 10 7 7 6 20 22 20 16 14 9 9 6 4 4 6 7 8 9 10 13 14 17 19 23 25 27 25 23 26 29 29 27 26 26 22 18 18 17 17 14 11 13
3 2 3 6 7 3 5 6 6 4 9 15 14 14 10 5 5 3 1 4 6 7 6 5 6 11 14 16 16 20 24 28 31 32 32 30 29 34 31 31 29 27 23 22 21 21 16 15 12
4 3 4 6 4 2 4 3 3 3 2 2 8 12 10 8 7 5 4 4 6 5 7 7 8 12 14 20 22 25 27 30 31 32 33 31 33 30 32 30 29 26 24 23 21 20 17 16 16
7 7 8 4 4 3 9 3 6 4 4 6 4 11 10 9 5 2 1 2 2 3 5 7 10 14 16 20 24 29 33 38 37 37 36 36 34 36 30 30 33 32 30 24 19 16 18 19 16
6 6 5 4 3 3 3 2 4 5 5 5 6 8 8 6 0 2 2 2 1 1 2 4 5 9 14 20 26 28 33 36 37 38 41 43 38 39 31 30 36 31 29 30 29 27 23 23 24
8 6 4 5 5 4 5 4 3 1 8 10 11 9 5 1 3 3 4 4 3 5 7 10 17 24 29 35 33 36 42 36 33 33 30 38 39 31 30 30 28 26 21 19 18 23 24 24 28
4 4 4 1 0 5 7 1 2 4 5 8 11 12 8 7 6 3 2 4 4 9 14 18 20 25 29 31 37 40 32 34 36 34 32 33 35 26 27 23 20 15 15 20 19 23 30 35 23
4 4 1 5 2 3 5 5 7 4 8 9 5 6 11 8 10 12 11 11 12 15 18 22 26 31 36 39 33 27 31 35 35 31 28 23 28 30 26 19 24 23 27 27 30 26 22 20 25
3 1 5 4 2 3 5 6 5 7 11 10 6 5 15 17 12 9 9 5 10 20 27 32 36 37 34 30 29 30 32 33 31 21 15 18 21 18 13 21 19 21 22 13 14 16 20 25 27
5 4 4 1 4 3 2 6 4 9 8 9 10 14 12 9 10 12 13 13 19 25 29 28 33 30 30 30 33 31 31 31 24 16 13 15 16 12 18 18 14 13 13 14 19 23 26 29 32
2 3 5 3 5 3 3 11 11 6 19 10 10 8 12 13 9 8 14 22 28 30 31 33 32 31 30 32 37 32 29 24 18 15 13 13 12 8 10 11 11 14 18 21 24 27 30 32 34

GFSSGP_850_spd_003.txt.gz
Wind_Speed
3 2 1 1 4 5 2 3 5 3 4 2 9 13 8 4 1 4 11 7 7 7 10 7 9 6 7 7 6 7 6 5 4 4 4 5 5 5 7 9 13 12 18 17 19 20 15 20 18
3 1 1 3 5 5 3 3 7 3 17 21 13 5 6 3 5 14 14 12 7 7 7 8 9 8 6 8 6 5 5 4 3 1 2 3 6 9 11 12 14 18 23 25 24 18 12 10 5
3 1 1 5 4 3 1 1 3 3 13 1 6 9 4 3 8 9 11 12 10 9 10 9 11 10 9 7 5 3 4 3 2 2 2 3 6 9 11 12 13 15 17 16 10 7 10 16 21
2 2 5 5 5 1 2 0 5 2 6 8 11 6 5 4 5 10 13 8 11 12 12 11 10 10 8 7 4 3 3 2 1 2 3 4 6 7 8 8 6 7 8 9 9 10 10 8 13
4 4 5 4 2 3 3 11 9 4 3 4 2 4 5 6 12 15 14 11 9 12 11 10 8 8 7 5 3 3 2 2 1 3 3 4 5 6 6 7 7 6 6 7 7 9 9 12 10
4 4 5 2 3 3 1 14 16 8 8 8 10 7 4 12 12 14 13 12 9 6 8 7 7 7 7 6 5 2 1 2 3 4 4 5 4 4 4 5 5 6 5 7 6 9 10 11 14
6 4 3 3 2 6 1 3 7 6 4 1 10 5 10 13 11 11 9 8 5 4 1 0 2 6 8 10 7 4 4 5 5 3 4 5 5 5 5 5 6 6 5 6 8 10 11 10 10
4 5 3 2 1 3 5 2 5 6 3 3 3 5 7 19 14 10 10 10 8 1 1 2 5 6 8 9 7 6 6 5 4 3 5 6 7 6 5 6 7 7 7 6 8 9 11 11 11
5 5 3 2 2 4 3 2 5 7 7 2 1 4 7 22 17 17 15 13 10 5 6 4 5 6 10 12 9 6 5 3 5 4 5 6 6 6 5 6 7 8 8 7 8 9 10 11 13
6 5 6 3 3 3 2 3 1 3 5 4 6 7 16 21 19 17 17 18 14 10 8 5 4 7 8 8 7 5 4 6 7 7 7 7 7 7 7 8 9 10 10 10 9 9 10 10 12
2 4 3 4 5 4 3 0 1 7 2 9 12 15 21 20 18 16 15 15 13 13 11 7 4 8 9 8 7 6 7 7 7 8 9 9 9 9 11 12 13 13 12 12 12 12 11 9 11
5 1 6 3 4 3 3 1 1 2 4 8 11 11 19 17 14 12 15 14 16 16 13 8 7 9 12 11 9 9 10 10 10 10 10 10 11 12 13 15 15 16 15 15 15 15 16 17 16
3 2 3 0 1 2 2 4 4 7 6 11 13 19 19 16 13 13 14 12 12 14 14 10 7 11 12 13 11 10 11 12 14 14 13 14 15 16 17 17 16 16 17 16 16 16 17 19 21
1 3 6 5 7 5 2 4 3 4 9 15 18 22 19 16 14 14 16 15 15 15 12 8 8 10 11 12 11 11 12 13 16 16 15 16 18 18 18 18 19 19 18 18 16 15 16 16 16
3 5 6 4 6 5 2 5 6 5 4 18 21 21 22 20 17 15 13 15 14 13 10 8 9 9 10 11 11 11 12 14 16 16 17 18 18 18 18 19 19 20 20 19 18 17 15 13 13
5 5 6 6 1 2 3 9 10 3 7 16 24 24 24 20 16 16 14 16 16 15 12 8 8 8 13 14 14 15 16 17 18 19 20 20 19 18 19 18 19 20 20 20 20 18 16 15 15
7 1 3 5 6 3 4 8 15 10 14 17 21 25 22 18 15 14 16 18 19 17 13 9 7 8 10 13 15 16 17 18 18 20 22 22 22 23 21 19 19 19 19 19 18 18 19 18 16
3 3 4 4 5 7 4 9 10 12 10 14 13 15 13 12 10 11 16 20 17 17 12 7 6 6 7 8 11 13 17 19 20 20 20 22 25 26 25 23 21 19 20 21 20 20 20 20 18
1 2 2 4 3 7 4 8 12 14 3 5 6 13 15 14 7 1 5 5 10 12 7 4 4 6 4 8 10 13 16 19 22 24 24 24 24 25 27 28 27 24 24 24 23 22 22 21 18
2 2 4 5 5 3 7 9 8 10 5 6 20 20 18 15 11 10 9 7 3 2 4 4 6 8 9 12 14 16 19 21 24 26 28 30 30 29 29 30 33 31 30 29 29 28 26 24 21
4 2 3 5 7 1 6 6 5 5 8 8 10 13 13 13 10 6 3 1 3 4 5 8 10 11 12 14 17 21 24 26 28 30 34 35 37 37 35 36 38 37 36 35 34 32 30 29 25
4 2 2 6 4 2 5 3 5 3 2 3 5 9 11 9 6 4 4 6 5 5 7 10 12 14 14 17 19 22 26 30 30 31 35 35 36 39 41 40 38 40 38 35 33 32 32 32 29
6 7 4 2 3 2 8 4 6 5 2 1 4 8 6 5 6 3 4 5 6 7 9 11 13 13 14 14 19 26 31 33 36 39 36 34 32 34 39 43 40 40 37 32 33 32 27 25 22
8 4 6 4 2 2 1 2 6 4 4 1 4 6 7 5 2 1 3 3 5 7 8 7 5 8 15 22 28 32 35 39 41 37 32 31 32 31 32 37 41 37 34 27 24 21 20 16 11
8 6 3 5 5 4 1 2 6 4 4 1 4 5 4 2 4 5 8 6 6 3 5 11 16 20 25 29 34 35 39 37 32 34 37 37 33 32 32 29 35 31 28 33 31 21 15 16 16
3 3 4 3 1 5 6 2 4 1 3 5 8 0 1 4 4 5 3 4 2 7 13 20 26 31 35 37 36 32 30 31 32 35 35 35 30 27 22 20 23 24 29 22 14 17 22 25 27
4 4 2 6 2 3 4 5 5 4 6 4 3 4 2 5 10 5 2 4 6 13 21 25 29 31 32 29 28 30 34 36 33 32 32 31 28 24 24 23 22 18 17 15 25 31 30 14 15
6 2 4 4 2 3 5 5 5 4 5 5 3 12 8 7 6 5 5 6 13 21 25 28 27 28 27 28 31 35 41 37 31 30 27 26 21 19 16 12 15 20 25 22 17 15 13 17 20
5 4 5 3 3 3 2 6 5 5 8 5 10 7 7 6 5 9 10 16 22 26 26 23 25 28 27 29 35 41 43 35 33 30 25 21 16 12 11 15 19 15 6 10 14 17 19 21 24
4 6 4 3 5 3 3 6 3 5 5 10 5 11 13 13 14 18 19 21 24 28 26 28 25 31 32 34 40 46 51 34 26 22 17 17 13 15 13 10 7 7 11 15 18 21 23 25 28

GFSSGP_850_spd_006.txt.gz
Wind_Speed
4 2 0 1 4 6 2 1 2 1 3 2 8 9 8 7 3 3 10 7 4 5 7 9 7 7 10 7 6 6 2 4 4 2 3 4 4 6 9 10 11 10 9 11 17 20 17 13 12
3 2 1 2 5 5 3 4 3 0 8 12 10 8 10 4 5 11 10 10 6 8 9 10 9 9 10 9 7 5 3 3 3 1 3 4 7 10 11 11 12 15 19 21 23 22 15 8 9
5 3 1 5 4 4 3 1 3 5 8 6 4 8 4 3 8 10 13 11 9 9 11 11 11 11 9 9 8 6 3 2 0 2 3 5 8 11 11 11 14 15 16 13 11 7 7 6 12
3 2 7 6 4 3 3 2 8 6 5 4 9 6 7 6 5 11 14 12 12 12 13 13 11 11 9 9 8 6 4 1 1 2 3 4 6 7 7 7 9 9 9 6 4 5 7 8 8
4 4 5 5 4 3 3 3 10 6 6 4 4 3 4 6 12 15 14 14 12 14 14 13 11 10 9 7 5 2 3 3 2 3 3 5 5 6 6 7 7 8 9 9 9 9 8 9 12
4 4 5 4 1 3 2 3 4 5 8 11 10 6 4 13 16 16 13 14 11 9 10 10 10 7 4 3 1 1 2 3 4 4 4 4 4 4 4 6 8 7 9 9 9 9 9 11 13
6 5 4 4 3 2 2 3 4 4 4 4 9 5 9 16 14 14 13 12 8 6 3 4 5 4 5 7 6 5 5 4 5 6 5 5 6 7 8 8 8 7 7 8 9 10 10 11 11
5 5 3 3 2 1 3 2 4 4 3 8 7 6 6 19 17 15 12 9 7 4 4 3 4 5 8 11 11 7 6 4 3 4 6 7 7 8 8 9 9 9 9 8 9 10 10 10 11
4 5 2 3 4 2 2 2 3 3 5 3 2 6 7 21 20 18 16 12 9 5 1 1 3 5 10 11 11 7 5 2 4 6 7 8 8 8 8 8 9 11 12 11 10 10 11 10 10
6 5 4 4 4 1 3 1 3 2 3 2 3 6 16 23 21 19 19 15 8 6 2 2 3 3 8 7 7 6 5 4 4 6 8 9 10 9 9 10 11 13 14 15 14 13 11 11 12
3 4 3 2 1 2 1 1 2 9 2 9 11 14 20 22 18 18 17 12 4 5 8 6 5 5 8 7 5 5 6 6 6 7 9 10 12 12 12 13 15 16 16 16 16 17 16 13 12
6 4 3 2 3 3 3 2 2 8 6 8 9 13 18 19 17 16 15 12 11 10 10 9 6 6 8 9 8 8 9 8 8 9 11 11 12 13 15 17 18 18 17 18 18 18 18 17 17
4 2 3 2 6 4 2 4 4 11 8 8 11 17 20 17 13 13 14 13 13 14 12 10 6 5 8 9 10 10 10 11 12 13 14 15 15 16 18 19 19 20 20 20 19 18 17 18 18
2 1 1 1 4 2 2 3 3 3 5 11 13 19 21 18 14 15 16 16 15 14 13 12 7 4 6 9 10 10 11 12 14 15 15 16 17 18 19 19 19 20 21 21 21 19 17 17 17
4 5 6 8 5 1 2 5 6 9 6 9 16 20 21 18 16 15 13 15 13 11 15 13 8 4 6 9 9 10 11 13 14 14 14 16 18 18 19 19 20 19 21 22 22 21 20 19 17
6 6 5 6 3 4 3 8 13 5 4 12 15 20 23 21 19 17 14 13 12 13 16 14 9 4 8 8 10 10 12 14 15 16 17 17 17 18 19 20 19 17 19 20 21 21 21 20 18
8 1 2 7 6 5 1 8 13 9 18 21 12 20 22 21 18 13 13 12 13 17 16 13 6 5 5 7 8 10 11 12 14 17 20 21 22 21 22 22 20 19 19 19 21 22 21 21 21
2 2 2 3 5 7 4 8 9 17 13 13 9 10 19 15 11 9 10 12 12 16 14 11 4 4 6 4 6 7 10 11 13 16 19 21 24 26 27 27 25 24 23 23 23 23 23 23 24
0 1 2 3 1 5 4 6 9 13 9 7 3 8 10 11 9 6 7 9 3 5 9 4 3 3 4 7 10 12 14 15 18 21 23 24 27 31 33 34 32 30 30 28 26 25 27 27 27
3 2 4 5 3 0 6 7 6 10 8 10 14 16 16 15 12 12 11 9 8 4 2 4 5 8 8 10 14 17 20 22 23 25 27 30 31 32 35 38 39 38 37 35 33 32 32 32 32
4 2 2 5 6 1 5 4 6 4 11 13 11 11 12 11 10 7 6 4 1 1 4 6 8 11 13 16 18 20 21 22 27 27 26 27 32 33 35 34 39 43 43 42 40 39 38 37 36
4 2 2 4 2 2 4 2 5 6 3 7 5 7 8 7 5 3 0 4 6 8 9 10 12 14 15 14 14 18 24 29 31 34 36 36 31 29 30 31 31 36 45 49 47 44 41 39 38
6 4 2 1 2 3 8 4 6 5 3 1 4 7 6 6 4 5 8 10 11 11 9 8 7 7 9 13 20 24 29 32 34 35 33 31 32 33 34 34 35 34 35 45 50 43 39 36 33
6 3 5 4 2 3 3 3 5 3 3 2 2 4 5 4 4 5 5 4 3 0 2 4 7 12 18 23 28 31 30 31 33 35 36 38 39 39 38 36 34 36 35 37 36 38 31 26 25
9 6 3 5 5 4 3 1 6 5 3 3 5 3 2 5 6 5 3 2 2 4 8 13 20 24 27 29 30 30 30 30 33 37 39 39 38 38 37 33 29 28 23 25 27 27 28 26 22
3 4 4 2 1 4 5 3 2 4 8 7 5 4 4 6 7 6 5 5 6 10 17 23 26 29 30 28 27 26 27 32 37 39 40 37 34 35 31 29 18 18 20 19 13 10 10 13 16
2 4 2 5 2 3 3 4 5 4 9 15 13 10 11 10 9 8 8 8 11 20 25 26 27 26 25 24 27 31 36 40 43 43 40 31 29 30 22 16 11 8 9 12 19 17 19 27 21
6 4 4 4 2 3 5 6 3 7 10 8 6 9 11 11 11 13 14 16 16 19 22 24 23 23 24 29 31 35 41 45 46 44 29 23 27 21 11 7 8 14 19 22 25 26 17 17 15
4 3 4 3 3 3 2 6 4 4 2 5 5 10 13 14 14 17 20 21 21 23 25 24 25 27 30 32 35 39 44 47 45 31 19 16 14 8 6 9 14 19 16 13 11 12 13 16 19
2 3 3 4 4 2 3 6 2 5 5 6 2 9 14 18 22 24 23 25 23 28 27 25 28 31 32 31 36 44 43 40 29 21 9 7 5 5 8 15 9 8 13 17 18 20 21 22 23

GFSSGP_850_spd_009.txt.gz
Wind_Speed
7 5 3 1 2 3 4 2 2 4 3 4 6 5 7 5 1 3 14 8 5 9 10 10 9 8 8 6 3 3 3 4 4 4 5 6 8 10 10 10 10 9 6 9 15 19 21 20 10
6 5 4 2 4 8 4 2 3 3 11 9 9 6 4 4 4 11 13 13 10 12 13 13 13 12 11 8 5 4 5 3 2 1 2 4 6 8 7 9 9 11 14 18 21 20 18 11 9
6 5 2 4 3 5 5 1 8 9 4 3 5 6 4 4 10 12 15 14 13 15 15 14 14 13 12 11 7 7 5 2 1 1 3 4 6 7 8 10 12 14 15 14 12 12 9 7 8
4 3 6 7 7 2 2 6 8 5 4 4 9 7 5 6 9 12 16 14 14 15 16 16 14 12 9 7 5 3 2 2 2 3 3 4 5 6 7 7 9 10 10 9 9 8 9 11 10
4 4 5 7 6 3 2 3 5 3 2 4 3 4 3 6 12 15 15 15 15 16 16 14 12 9 7 5 4 3 3 3 3 4 5 6 7 6 6 6 7 8 8 8 7 8 8 9 10
4 4 6 9 6 2 4 3 4 3 6 8 7 5 3 12 16 15 15 16 15 14 13 13 10 8 7 5 3 3 3 4 4 4 5 5 6 6 6 8 9 11 13 13 12 10 10 10 9
6 4 3 5 5 3 3 3 6 5 5 3 9 4 8 15 16 15 15 15 14 12 10 9 7 6 6 5 4 2 1 2 2 4 4 5 7 8 9 9 9 10 10 11 9 10 11 12 12
6 5 4 2 5 3 1 3 5 4 2 8 6 5 7 20 18 17 15 14 11 10 8 6 5 4 5 6 6 4 3 2 0 2 4 5 7 8 9 9 9 10 11 12 11 11 12 12 12
4 4 3 4 6 3 2 3 3 5 7 4 4 8 9 21 20 17 15 14 11 8 7 4 2 2 6 6 6 4 4 2 3 4 5 6 7 8 9 9 10 12 13 14 14 14 13 12 12
5 3 4 3 3 2 3 2 4 3 3 4 6 8 15 22 21 19 16 11 9 8 7 4 2 2 6 6 5 4 3 3 4 6 7 8 9 10 10 11 12 13 15 16 16 16 16 14 12
3 3 5 2 5 5 3 3 2 7 1 6 10 11 17 22 22 20 17 13 8 9 8 4 3 2 4 5 5 3 3 4 5 7 8 10 11 12 13 14 16 17 19 19 18 19 19 18 15
6 5 3 5 5 5 3 2 1 7 3 6 6 12 17 24 20 19 18 13 9 9 7 7 7 3 2 4 7 6 6 6 7 9 10 12 13 13 14 16 18 19 20 20 19 19 19 19 19
5 3 4 3 6 4 5 3 2 9 9 8 10 13 18 18 14 15 12 13 11 12 11 10 10 6 3 5 7 6 6 7 9 10 11 12 13 14 16 18 18 19 20 20 20 20 19 19 18
4 5 4 4 1 1 1 1 1 1 2 10 11 17 19 17 16 15 16 15 13 11 12 12 12 7 3 6 6 6 6 6 8 10 11 12 14 16 18 18 18 18 19 20 21 21 20 19 19
5 5 3 11 3 3 2 2 4 4 5 3 11 17 21 21 18 16 15 14 14 14 14 14 13 8 4 4 5 5 6 6 8 10 12 13 13 15 17 19 19 20 20 20 21 20 20 20 19
5 5 3 4 7 5 3 5 5 4 5 7 7 13 21 24 21 18 15 15 14 14 15 16 14 8 4 3 3 4 6 7 9 12 14 16 18 20 21 21 21 20 21 22 22 21 22 21 20
8 3 3 4 5 5 4 6 5 18 13 14 9 8 18 23 20 17 15 14 13 12 15 16 12 6 5 3 3 3 5 8 9 10 12 14 17 19 23 25 26 26 25 25 24 23 22 22 22
1 1 1 3 5 6 3 7 12 14 4 5 3 3 12 16 13 11 10 11 11 10 13 13 10 7 5 4 6 7 9 10 12 15 18 21 22 24 26 28 30 30 31 31 29 29 28 26 24
3 2 2 3 2 5 3 6 9 12 12 9 8 9 11 8 5 7 10 8 5 5 10 9 7 7 6 8 9 10 12 14 17 20 21 24 25 26 27 29 32 34 37 39 39 35 33 31 30
2 3 2 3 1 1 5 4 4 11 8 8 10 14 15 17 15 12 11 10 8 7 8 9 10 10 11 12 14 16 17 18 20 22 25 27 28 30 33 33 34 34 36 37 40 43 42 40 37
1 2 2 3 6 2 4 2 6 4 7 9 11 13 15 13 11 9 8 7 6 5 7 8 9 10 12 13 13 13 15 18 23 28 32 33 30 28 28 29 31 33 33 34 36 40 46 48 44
2 2 4 3 1 1 4 3 4 5 3 3 5 8 7 5 5 3 2 2 4 5 5 7 6 5 5 9 14 18 23 26 27 28 28 29 28 31 32 34 34 34 35 38 37 37 41 44 45
2 1 1 1 3 2 5 0 2 3 2 2 3 1 3 3 2 2 3 3 1 2 2 3 4 7 13 19 23 26 27 27 28 30 35 36 37 36 37 36 35 35 34 36 37 39 39 38 41
4 2 3 2 2 2 1 2 2 3 5 4 2 5 5 2 3 3 2 5 6 4 3 4 10 17 23 27 29 28 26 28 32 35 39 41 41 41 40 38 34 32 30 29 29 29 24 16 24
8 3 1 2 3 1 1 1 2 7 7 5 7 7 8 8 6 3 1 2 3 6 11 17 22 26 29 31 30 27 27 29 33 37 41 45 45 41 37 33 29 26 24 21 15 12 15 14 11
4 3 2 1 2 4 2 0 3 5 8 8 10 9 11 12 11 8 5 6 11 15 20 24 27 28 28 26 24 25 27 31 38 43 44 44 41 37 30 26 22 16 11 6 6 10 9 6 10
1 5 1 5 1 2 3 1 5 5 11 12 10 10 12 12 12 12 14 17 20 20 23 25 25 24 22 22 24 26 30 35 41 43 42 38 30 23 18 12 5 5 6 10 11 17 21 26 20
4 4 1 3 2 3 4 4 3 2 4 2 5 7 9 10 14 18 20 20 21 21 20 22 21 19 21 25 26 28 33 39 42 41 36 28 21 10 6 6 6 7 8 10 14 12 14 14 14
2 2 5 3 1 2 3 5 5 5 3 1 4 0 6 10 17 19 19 19 20 15 20 23 22 22 25 27 27 33 39 40 36 33 25 17 6 4 5 7 8 12 17 12 12 14 16 16 16
1 3 3 2 2 1 0 7 3 6 3 1 5 3 8 16 20 21 19 19 14 18 25 23 19 22 26 27 32 36 35 33 29 23 16 4 5 4 6 12 19 26 18 13 15 18 19 21 22

GFSSGP_850_spd_012.txt.gz
Wind_Speed
6 6 4 2 5 3 10 8 7 10 6 3 1 3 8 9 6 5 11 8 10 11 11 11 10 9 6 6 5 3 2 1 2 4 4 6 5 6 7 7 7 9 7 9 11 17 20 20 17
8 7 3 3 5 11 9 9 9 9 13 11 8 4 5 7 7 12 11 12 12 15 13 12 13 12 9 8 6 5 4 4 4 4 4 5 5 6 7 7 8 10 13 16 18 19 20 16 14
8 6 5 4 4 11 12 9 14 14 7 5 5 5 3 7 9 12 12 15 16 15 15 15 14 13 10 9 7 5 3 2 2 2 3 4 5 6 7 9 11 13 15 15 14 15 14 12 9
4 3 3 5 14 7 14 13 14 9 6 4 7 9 8 6 10 9 14 15 13 12 15 16 14 12 10 7 5 3 2 2 3 4 5 5 4 4 6 7 9 10 12 12 13 13 13 12 11
3 5 8 11 15 13 9 12 7 6 7 8 2 6 7 6 9 14 14 14 13 13 15 15 12 10 8 6 4 2 3 3 4 4 5 6 7 6 6 6 7 8 9 9 9 9 9 10 11
5 5 12 13 14 10 8 7 6 4 7 7 7 9 7 8 14 13 15 13 12 14 15 13 11 9 6 4 3 2 3 3 4 5 6 6 6 6 6 7 7 8 9 10 10 10 10 10 11
4 5 13 15 14 11 10 6 8 7 8 6 7 7 7 12 14 14 14 13 14 12 10 9 9 7 5 5 3 2 2 2 2 3 4 4 6 8 8 9 10 9 10 11 11 12 12 12 12
4 5 13 13 10 12 7 7 6 4 6 6 4 5 9 16 16 14 13 11 10 9 8 8 6 5 5 4 4 1 0 1 0 2 4 5 7 8 9 9 9 10 12 13 14 14 14 14 13
2 6 8 9 8 10 10 7 4 3 8 3 3 4 9 19 18 15 13 11 10 9 8 6 3 3 4 4 3 2 2 2 3 4 5 6 6 9 10 11 12 13 14 15 16 16 16 16 15
2 5 6 4 5 10 8 4 7 6 7 6 6 5 13 19 18 16 13 12 10 10 9 6 4 1 3 4 4 3 2 2 3 5 8 8 9 10 11 13 13 14 16 17 17 18 18 15 9
2 8 9 7 8 7 8 6 5 6 7 8 8 10 16 18 16 13 12 10 10 9 9 7 5 3 0 2 3 3 3 4 5 7 8 9 10 10 11 10 11 14 17 14 16 18 13 15 16
10 8 5 7 6 7 7 5 4 5 7 4 5 9 15 16 15 14 13 12 11 10 9 9 8 5 2 2 3 4 4 5 5 7 10 10 9 10 12 12 13 14 13 15 14 13 18 19 19
13 10 8 7 8 5 4 3 1 3 5 4 8 11 12 13 12 12 13 14 12 11 10 10 9 8 6 3 4 3 3 4 5 7 8 9 8 10 11 13 14 14 13 14 14 14 15 16 17
7 9 7 5 4 3 4 4 3 6 2 7 8 10 13 12 13 13 15 14 12 11 12 11 12 11 7 4 4 4 3 3 5 5 6 9 10 10 11 12 12 13 13 13 14 14 16 15 15
10 9 6 6 5 3 3 7 4 3 0 3 9 11 14 14 14 14 11 10 11 12 12 13 14 13 8 6 4 3 2 1 2 3 7 9 10 12 15 14 14 14 15 18 16 16 16 16 14
6 4 5 6 2 3 6 10 8 4 4 8 5 10 16 18 15 11 11 11 12 12 14 14 17 14 8 7 6 4 2 1 4 7 9 11 13 14 16 16 17 17 21 18 18 17 17 17 16
2 3 2 7 3 4 3 2 6 9 9 13 11 10 15 17 15 11 11 13 13 12 13 13 15 11 9 9 8 6 4 5 6 9 12 14 16 17 19 22 23 22 22 23 21 20 20 20 19
3 3 2 1 5 6 3 5 6 9 5 6 7 8 11 14 13 10 11 13 13 10 8 8 9 11 12 12 10 8 8 9 10 12 16 18 20 22 24 25 27 27 22 23 23 24 24 24 24
1 1 3 3 4 9 1 2 8 9 7 6 5 6 9 11 7 5 4 3 3 3 5 5 9 13 12 9 8 6 7 10 10 10 17 19 21 27 30 29 26 26 23 26 28 26 27 27 27
2 3 2 1 1 5 2 3 7 10 11 9 10 12 12 13 13 11 10 9 8 6 7 7 8 10 10 10 12 13 14 11 15 14 19 24 30 29 27 27 27 26 24 24 26 27 27 29 27
2 2 4 5 6 3 3 6 6 6 9 10 12 14 14 12 11 10 8 6 5 5 5 5 7 8 8 7 6 8 9 12 11 19 20 26 29 29 28 27 28 31 29 26 26 26 27 31 30
2 2 8 7 6 3 3 4 4 4 7 8 10 10 9 9 7 6 5 2 1 1 1 1 2 5 8 11 14 19 15 15 18 17 18 25 26 29 32 32 33 33 30 28 25 25 26 26 33
5 8 5 3 6 4 3 6 8 4 6 5 6 7 8 8 7 7 7 7 6 5 6 7 8 10 15 18 20 16 14 14 15 18 21 23 24 28 30 32 36 35 33 31 32 30 25 24 28
5 3 2 1 2 4 2 5 6 2 4 5 7 7 7 6 5 6 6 6 7 6 6 9 11 12 19 22 24 23 20 19 19 22 25 25 29 30 29 30 35 31 27 20 16 14 12 10 13
8 3 2 2 3 1 1 6 7 5 7 7 7 8 9 9 7 5 4 3 4 6 10 14 16 13 14 15 16 18 18 20 21 24 26 32 32 30 30 30 19 13 15 13 7 16 16 10 7
6 6 3 3 2 3 4 3 7 6 6 7 8 8 7 7 7 5 4 5 7 10 11 11 12 14 14 15 19 21 24 23 26 28 33 34 30 29 27 16 11 9 7 6 5 6 10 15 18
3 4 1 2 1 3 1 4 8 6 6 7 7 5 5 4 4 6 8 9 10 11 11 14 17 19 19 20 22 24 25 28 34 39 38 33 29 23 16 9 9 8 6 7 7 10 13 10 10
4 3 2 2 2 4 2 7 6 10 4 3 3 1 0 3 6 9 12 12 13 12 12 15 16 17 14 14 18 21 25 29 32 30 25 22 17 12 8 9 7 7 8 13 19 13 9 9 9
3 2 2 1 2 3 4 6 4 3 2 2 6 6 5 7 11 14 14 14 12 10 13 17 15 13 13 14 17 19 23 23 21 20 17 15 12 9 8 7 9 13 21 28 15 10 10 9 9
2 1 0 2 2 2 4 7 3 2 3 4 13 6 7 9 14 13 13 13 11 13 16 15 15 15 16 18 19 19 19 17 19 17 14 13 11 10 10 12 18 24 22 13 12 12 12 12 14

GFSSGP_850_spd_015.txt.gz
Wind_Speed
6 5 4 7 7 9 9 6 11 11 9 8 6 10 15 15 14 6 12 12 13 12 8 8 9 8 7 6 5 4 3 2 1 1 3 4 4 6 7 8 9 9 9 9 11 13 17 18 19
4 7 7 12 9 8 9 9 13 13 14 11 9 6 10 14 15 16 13 13 14 14 11 8 11 10 8 6 4 3 2 2 0 1 3 4 5 6 7 8 9 11 13 15 16 17 18 16 14
8 8 13 6 13 6 8 9 14 13 9 5 8 12 6 10 11 14 16 15 14 14 9 14 14 12 9 7 5 3 2 1 1 2 3 4 5 6 7 9 10 12 13 14 13 14 15 15 13
4 6 9 9 12 11 10 12 15 10 7 2 9 12 10 10 10 14 16 15 14 13 11 14 13 11 9 7 4 2 2 4 4 5 5 6 6 6 7 8 8 9 9 10 11 12 12 13 12
9 15 9 6 13 10 11 13 11 12 12 7 3 8 12 10 13 16 15 14 14 13 12 12 11 10 7 6 4 4 4 4 4 4 5 5 6 6 7 7 8 8 9 9 10 10 10 10 10
14 18 6 9 11 9 8 7 1 5 6 7 4 13 13 12 16 14 14 13 12 12 10 11 10 9 6 4 4 3 3 3 4 5 5 5 6 7 7 8 8 8 9 10 12 12 12 11 11
18 10 9 15 11 10 8 4 5 6 8 4 7 10 11 14 14 15 14 13 12 10 9 7 6 6 6 6 6 4 3 3 4 5 5 6 7 8 9 9 9 10 11 12 14 14 14 14 13
9 1 10 10 11 13 7 4 4 3 12 7 2 9 15 17 16 15 13 12 11 10 9 8 6 3 3 7 6 3 4 3 3 5 6 8 9 11 10 10 10 12 13 14 15 16 15 15 15
7 5 7 7 7 8 8 8 2 1 8 1 4 9 19 19 16 14 13 12 10 9 8 7 3 3 3 3 6 6 5 5 6 9 9 9 7 8 8 15 12 13 14 15 17 17 17 16 14
10 4 12 7 5 9 8 5 7 8 9 9 8 9 16 18 16 15 13 12 11 10 8 6 5 2 2 3 3 2 2 2 2 3 5 7 8 8 12 12 17 17 16 18 16 17 17 13 8
4 7 8 4 2 7 9 6 5 6 8 10 12 12 16 16 16 14 13 12 11 10 9 7 5 2 2 2 3 2 3 4 4 7 7 7 9 8 10 10 12 13 16 12 14 14 12 11 12
4 8 5 7 5 2 5 7 4 4 11 8 8 13 16 17 16 14 13 12 11 9 8 7 5 4 1 1 3 2 3 3 4 5 8 8 8 9 10 10 12 12 12 14 13 13 14 14 13
10 9 9 8 5 2 4 5 2 5 8 7 8 12 13 14 13 13 13 11 10 9 8 6 7 7 4 2 2 3 2 2 3 3 5 6 6 9 10 11 12 13 14 14 14 15 14 14 15
8 9 9 7 6 4 6 6 8 6 7 10 11 12 13 12 12 12 11 11 10 9 8 9 9 8 6 3 4 2 2 2 3 2 3 6 7 8 10 11 12 13 14 15 16 16 16 15 14
9 8 9 8 9 5 7 10 11 8 6 11 13 12 12 11 11 11 10 10 10 10 9 8 10 10 8 4 3 2 3 3 3 3 5 7 9 9 12 13 14 15 17 19 19 19 19 19 18
11 9 11 9 9 5 12 13 11 6 6 11 11 14 13 13 11 11 10 10 9 9 8 9 10 11 9 6 5 4 4 4 4 6 7 9 9 13 17 15 16 17 20 20 21 21 21 21 21
9 11 3 9 4 2 8 3 16 3 8 13 14 12 12 13 13 10 9 8 8 9 8 9 10 9 7 6 4 5 6 5 7 8 9 10 11 13 17 19 20 21 21 23 22 23 23 24 24
7 4 9 2 7 6 9 10 5 5 8 12 14 13 11 13 14 10 6 4 4 4 3 5 7 7 7 5 5 6 7 8 8 9 10 11 12 13 17 18 21 22 20 21 23 25 25 28 29
5 4 5 5 5 6 5 7 3 4 4 6 7 6 7 9 9 5 4 6 6 5 5 5 6 9 3 3 4 6 7 10 11 11 13 12 13 18 18 17 18 19 20 22 25 26 26 28 28
4 5 1 1 2 6 5 5 5 7 6 7 8 10 11 12 12 11 12 12 10 9 7 5 3 2 1 3 3 7 10 9 11 11 13 14 16 21 21 19 19 20 22 26 27 28 29 30 28
3 7 6 10 8 10 9 9 10 8 12 12 13 14 14 14 12 10 11 10 9 8 7 6 4 4 2 1 5 6 9 12 15 16 18 17 20 21 21 22 23 23 23 25 26 27 27 31 31
8 4 8 10 8 6 11 3 9 12 10 11 13 12 11 9 8 7 7 7 8 8 7 6 4 3 5 7 6 13 12 15 17 17 18 20 21 22 22 24 24 25 25 24 25 24 26 26 31
6 8 8 8 9 9 10 8 10 10 11 10 9 8 8 7 6 7 7 7 6 6 5 4 4 6 7 8 14 13 12 14 16 17 20 22 20 21 23 23 24 25 26 22 21 20 19 18 21
7 8 6 6 4 5 3 7 9 7 9 5 8 6 5 5 5 5 4 4 3 4 4 6 7 9 11 11 11 13 14 15 18 19 21 20 22 23 23 24 25 24 19 18 17 17 17 17 16
8 7 4 3 4 1 4 7 9 8 7 7 7 6 5 6 5 3 1 1 2 5 7 9 11 13 14 14 15 16 16 17 18 20 21 25 26 27 25 24 19 17 15 16 16 13 8 12 20
5 7 3 4 3 5 8 5 8 10 9 7 6 5 5 5 4 3 3 6 8 10 11 12 14 16 17 18 18 18 17 17 18 19 24 24 25 26 23 20 16 19 18 12 14 15 17 26 30
3 4 3 1 1 3 5 6 9 10 9 6 3 0 2 3 4 5 8 9 12 13 12 12 14 17 19 19 19 18 18 18 19 21 23 23 23 22 22 20 19 12 11 17 17 18 23 20 15
7 3 3 1 3 4 3 10 7 10 8 6 4 3 7 8 9 10 12 13 13 13 12 13 17 18 18 17 17 18 20 20 22 22 22 23 21 21 21 18 13 13 16 21 25 31 21 15 15
2 1 3 4 3 4 5 5 8 5 4 4 7 10 11 11 12 14 14 13 14 14 15 18 18 18 17 16 17 19 20 19 19 21 20 20 18 18 16 14 16 20 26 27 27 17 17 15 12
3 4 4 2 3 3 4 8 7 5 3 6 11 13 7 12 14 13 13 12 15 16 18 20 18 16 16 18 20 22 20 20 21 19 20 18 19 18 19 21 25 23 21 17 18 17 14 15 16

GFSSGP_850_spd_018.txt.gz
Wind_Speed
6 3 2 10 6 6 15 7 13 9 10 14 17 18 21 20 11 9 14 15 13 5 12 11 10 9 9 8 7 6 6 5 5 4 5 6 7 7 7 8 9 9 9 11 12 13 13 14 15
7 1 8 9 7 11 4 10 13 16 17 12 11 9 24 18 21 21 21 18 17 20 7 13 12 11 11 9 8 7 7 6 6 6 6 6 6 7 7 8 10 12 12 12 13 13 13 13 13
7 3 5 4 9 14 11 11 15 14 9 11 6 23 16 16 17 19 19 19 17 8 12 16 15 14 12 10 9 7 5 6 6 5 5 5 5 6 7 7 8 10 11 12 12 13 13 13 13
4 2 7 7 12 12 16 16 16 10 4 3 17 14 16 15 18 20 20 18 16 12 17 17 15 13 11 9 6 6 5 4 4 4 4 5 4 5 6 7 8 9 10 11 12 13 13 12 12
7 7 8 11 9 12 13 15 9 6 8 9 6 20 19 18 20 20 19 18 16 15 16 15 13 11 9 6 6 5 4 4 4 5 5 5 6 7 7 8 9 10 10 11 12 12 13 13 13
10 6 8 8 12 11 11 7 3 21 12 10 14 21 17 16 19 18 18 17 15 13 14 13 12 9 7 7 6 5 5 5 6 6 6 7 8 9 9 8 8 9 10 11 12 12 12 13 13
13 8 17 12 11 9 6 1 3 5 9 7 10 16 15 17 16 17 16 15 15 12 12 12 10 9 9 9 7 6 6 7 6 7 8 9 9 11 10 10 8 10 11 12 13 14 15 14 14
22 9 15 9 9 12 6 3 8 5 13 10 8 8 18 19 17 16 15 14 12 12 10 6 8 10 7 8 8 7 7 8 9 10 12 13 12 17 15 14 18 16 15 15 17 17 18 16 15
22 11 6 7 9 11 8 5 2 7 9 7 6 10 24 21 18 16 14 13 11 11 9 7 7 5 4 6 9 7 9 10 10 11 14 12 12 11 15 16 19 18 18 18 15 18 18 14 9
10 8 11 10 10 11 8 6 9 6 10 8 10 22 20 20 18 16 14 13 11 10 7 10 4 3 8 4 8 9 10 7 6 7 7 5 9 7 12 13 17 17 20 18 15 19 17 13 10
7 9 9 8 9 6 8 12 6 7 7 14 16 18 18 17 17 14 13 13 11 10 9 10 10 6 8 3 7 4 5 2 4 2 7 5 10 4 6 8 12 16 17 15 20 17 17 15 23
2 6 9 13 3 2 7 12 4 3 13 10 19 16 19 17 16 13 13 16 11 13 14 10 6 5 6 5 3 5 3 1 2 4 5 6 3 5 6 6 10 10 11 14 15 16 16 18 17
7 5 12 9 7 3 7 6 4 1 8 6 13 14 17 15 14 13 11 12 14 13 14 14 13 7 2 1 2 1 5 3 4 1 7 7 7 9 9 10 10 10 12 14 15 18 18 18 18
10 9 11 9 7 4 5 8 7 9 15 10 8 14 13 15 16 15 12 12 13 12 14 13 12 8 5 4 6 2 1 0 3 2 7 8 8 10 12 14 14 14 13 16 22 20 22 23 22
7 7 6 7 8 7 6 7 11 12 9 12 12 10 15 14 13 15 13 11 11 10 8 15 8 12 6 5 4 2 5 4 2 4 10 11 10 11 13 17 18 17 17 22 26 21 22 23 23
9 8 9 11 10 6 8 10 14 12 12 11 16 15 13 13 12 13 12 8 7 9 3 3 8 5 7 4 4 3 5 7 3 7 8 11 11 14 17 18 18 19 22 27 28 28 25 24 26
8 9 8 9 9 2 11 12 15 14 8 10 10 13 14 11 14 13 13 8 5 4 4 4 4 4 4 7 3 6 9 7 3 10 8 12 12 12 20 21 21 23 27 29 28 25 24 25 26
13 10 4 5 9 6 9 10 9 7 4 11 14 15 17 13 13 15 11 9 3 3 2 2 6 8 12 5 6 5 7 7 7 7 11 17 18 15 18 22 21 21 26 27 24 25 28 31 32
10 7 7 12 7 3 9 10 3 10 7 4 6 2 7 23 16 13 11 7 5 8 9 7 11 7 4 2 5 6 5 7 7 9 14 16 15 23 26 27 24 24 26 25 26 30 32 33 29
6 6 6 5 6 3 10 9 10 7 7 6 7 8 21 21 18 16 14 14 11 10 7 6 3 4 6 0 3 6 7 9 11 12 8 13 24 24 26 24 25 24 26 29 30 25 27 28 25
5 5 9 8 11 10 12 11 12 9 5 11 15 15 18 15 15 14 13 11 11 12 11 8 6 5 3 3 2 5 9 9 11 16 23 26 19 23 23 20 23 26 27 30 33 31 26 29 26
7 6 6 9 9 8 12 7 13 13 10 13 15 15 15 14 12 12 10 8 9 9 8 6 6 4 6 8 7 10 8 11 15 15 16 19 21 20 20 24 26 28 30 32 33 23 25 28 28
5 5 7 9 10 10 12 7 14 16 13 12 14 14 11 11 10 9 9 9 9 8 6 4 4 6 9 14 14 15 17 17 16 17 20 20 18 22 28 26 28 31 33 23 21 19 18 19 18
7 9 11 8 9 3 12 1 4 3 13 13 15 12 9 9 7 6 6 6 6 5 6 7 8 9 11 12 16 14 14 15 16 17 18 18 24 31 29 27 27 23 20 20 23 25 27 28 29
6 9 4 2 3 1 4 3 8 9 8 12 13 12 9 6 6 6 6 6 4 5 8 9 10 12 13 14 12 12 14 14 15 17 21 27 28 25 27 23 19 19 23 26 28 27 26 25 22
4 6 2 4 4 4 4 3 9 12 11 12 12 10 8 7 4 3 4 6 6 9 11 11 10 12 14 15 14 13 14 14 16 20 26 24 24 22 20 25 25 24 20 18 22 19 21 20 26
5 5 3 1 2 1 5 12 13 11 9 10 9 4 5 1 3 3 6 6 7 9 11 12 12 15 15 18 19 16 16 19 23 25 25 21 19 21 21 21 19 23 21 23 24 27 32 33 20
4 1 2 2 2 3 8 7 6 7 6 6 5 4 6 6 6 9 10 9 9 10 10 12 14 16 16 15 15 16 19 19 23 25 20 19 24 30 26 20 20 21 22 25 26 27 26 18 21
1 2 2 3 0 2 3 1 8 6 5 3 6 9 9 8 8 10 12 9 10 13 13 15 18 17 15 15 16 18 21 22 21 16 20 26 31 28 20 22 26 27 26 25 22 21 21 21 20
3 4 3 1 3 1 1 7 8 4 6 12 12 13 9 8 11 12 11 11 16 16 17 18 16 13 15 17 20 22 21 20 19 23 28 24 21 21 22 23 26 25 24 23 22 22 22 22 19

GFSSGP_850_spd_021.txt.gz
Wind_Speed
9 3 2 5 2 2 3 6 6 10 11 30 29 21 18 16 6 8 21 14 10 16 17 14 13 12 12 11 10 9 10 10 10 9 9 9 8 8 8 8 9 9 10 11 11 11 10 10 11
4 2 3 4 2 1 2 11 14 10 18 38 32 29 30 17 28 25 23 16 10 17 16 15 13 13 12 11 11 10 9 9 8 7 7 7 7 7 7 8 9 10 11 11 12 12 12 11 11
4 2 2 3 3 5 4 7 8 8 15 23 13 25 14 16 16 22 23 15 13 14 17 17 16 15 14 12 10 9 8 7 7 7 8 8 8 9 10 10 10 11 11 12 12 13 13 12 12
4 2 4 1 5 7 12 8 14 10 21 31 24 10 25 24 24 25 16 12 11 20 20 18 17 14 12 10 9 7 6 7 7 8 8 9 9 10 10 9 9 10 10 10 11 12 13 13 12
4 3 1 2 4 4 7 17 18 9 17 30 35 14 23 23 28 24 18 13 22 22 19 17 14 12 10 8 6 6 6 7 8 8 9 8 8 8 8 9 9 9 9 10 11 12 12 13 13
1 3 3 1 5 2 6 15 15 17 17 29 33 26 25 25 25 22 16 16 19 19 18 15 13 10 9 7 6 7 9 10 10 10 9 8 9 10 11 10 11 11 12 12 13 13 14 14 14
2 2 3 6 7 6 6 13 11 11 17 15 30 12 23 24 20 21 16 14 16 17 17 14 11 9 9 10 10 10 12 12 11 11 11 11 11 12 14 14 14 14 14 14 14 15 16 14 13
7 3 4 4 6 3 6 17 23 20 9 26 23 8 17 27 23 20 15 13 14 12 10 10 8 9 11 12 10 11 12 11 12 13 12 11 11 12 15 13 16 16 17 17 13 17 16 12 9
22 2 9 16 8 5 7 6 17 17 17 21 11 31 32 28 24 20 17 17 13 11 9 10 8 8 8 12 14 12 9 9 9 9 10 8 8 8 12 13 14 15 15 14 16 20 16 14 12
9 4 4 2 12 8 6 14 7 14 17 24 28 31 30 27 21 19 19 19 17 13 12 11 4 7 8 8 7 7 9 9 9 9 8 5 7 7 9 9 9 13 12 14 16 18 18 17 21
1 5 4 11 21 20 18 12 7 17 6 28 32 31 26 22 20 17 17 18 16 13 18 14 5 12 9 6 6 7 9 6 3 4 4 5 3 0 4 6 9 10 12 14 16 17 19 19 20
5 12 17 8 16 18 13 11 3 7 20 25 31 28 25 19 19 16 20 19 18 17 20 14 7 8 10 7 9 9 10 6 3 3 4 3 2 4 5 6 9 11 10 12 13 16 21 20 19
9 8 14 7 11 12 18 6 6 17 17 28 28 26 23 20 17 14 17 21 19 20 22 18 13 10 7 6 6 9 10 6 7 8 3 4 5 6 6 10 11 12 13 15 17 20 25 22 21
12 15 12 7 5 5 3 6 2 17 20 28 29 26 23 21 20 15 14 18 22 18 24 20 14 12 2 7 4 4 9 6 5 5 6 7 7 7 8 10 12 13 15 16 20 23 27 25 24
15 6 6 7 12 4 3 2 7 23 21 21 20 25 22 21 23 20 14 12 15 17 22 24 18 14 18 12 8 6 7 4 6 7 9 12 12 11 11 13 14 16 18 21 23 27 28 27 27
3 4 5 6 12 9 9 7 7 22 23 23 20 19 23 22 24 23 17 16 13 8 11 17 11 4 10 11 7 6 7 10 5 7 9 7 8 13 14 18 20 20 20 24 27 28 27 26 26
2 5 6 6 17 6 4 7 13 21 19 18 23 20 19 22 21 24 21 13 12 14 10 9 5 2 9 11 8 7 9 9 6 7 9 8 10 12 16 21 22 24 25 27 28 27 25 27 29
4 5 6 7 4 3 2 3 1 14 10 8 7 13 13 25 27 24 22 18 13 11 8 8 6 10 9 9 6 5 5 4 4 4 7 11 16 20 21 27 25 27 28 28 29 30 30 32 35
5 4 9 5 6 2 3 4 5 11 7 5 11 34 33 32 24 20 18 15 10 8 6 7 8 6 4 4 5 5 5 3 5 9 11 11 12 17 24 24 21 24 29 26 29 32 33 32 30
5 7 6 4 4 3 3 5 4 10 9 27 31 33 32 26 22 19 15 13 11 8 6 6 3 1 3 3 3 4 5 3 4 6 6 9 12 15 18 21 26 27 25 29 30 31 34 36 27
9 6 5 3 6 3 3 2 6 6 23 31 32 31 26 25 22 16 15 14 10 8 5 3 4 4 1 2 3 5 8 10 12 14 19 21 23 23 23 27 25 25 31 31 32 33 30 26 28
5 6 5 6 5 2 4 1 2 8 12 20 28 30 29 26 21 16 11 9 9 9 7 8 8 12 15 16 17 16 16 15 14 15 18 21 24 25 26 26 29 34 29 29 27 21 22 25 26
2 2 3 3 4 3 7 3 3 8 11 12 21 25 23 20 17 14 8 5 6 6 7 6 6 12 14 16 17 17 12 12 13 16 20 22 22 25 27 29 27 26 22 20 22 21 25 28 30
5 4 6 4 2 2 7 4 2 5 11 7 18 19 18 15 12 7 6 6 5 5 7 5 2 5 11 7 5 9 12 15 18 22 26 28 30 30 27 21 23 23 26 26 27 28 29 29 27
3 6 4 4 4 3 4 6 2 6 10 19 19 24 22 18 14 14 15 10 7 4 2 1 7 8 10 15 18 16 16 19 20 22 25 29 29 24 26 27 30 29 25 26 27 25 27 24 26
4 4 4 1 1 4 3 3 1 10 25 25 23 17 11 9 8 6 4 2 4 2 4 9 13 14 15 14 15 18 20 19 20 22 26 27 21 22 22 32 28 23 25 24 22 24 27 26 28
5 5 1 5 2 3 1 3 5 8 9 15 12 15 17 15 13 11 8 8 3 3 6 9 7 7 11 14 13 13 15 20 23 26 26 24 19 23 32 32 21 23 27 28 27 26 26 23 22
5 2 5 4 2 2 3 4 3 5 4 3 3 9 12 16 16 13 9 6 5 8 10 12 13 15 13 13 14 16 20 22 23 23 24 20 23 33 29 23 19 23 27 26 23 22 20 21 21
4 2 4 2 4 4 1 3 3 5 4 3 12 15 14 16 14 11 8 8 10 13 14 16 17 16 12 14 19 26 25 23 22 24 26 29 31 34 21 21 22 22 24 23 23 23 23 23 20
0 3 4 4 3 1 4 5 3 9 17 14 14 18 15 12 10 9 9 7 11 17 19 18 13 13 18 24 26 27 28 23 24 26 29 32 29 27 18 19 24 25 24 23 22 22 24 23 19

GFSSGP_850_spd_024.txt.gz
Wind_Speed
5 3 1 1 3 3 4 5 5 6 6 16 19 17 11 10 2 6 20 18 21 19 18 14 12 12 11 11 11 11 10 10 9 8 8 8 8 8 9 9 10 10 9 9 9 10 10 10 10
1 1 1 1 4 3 4 1 11 16 22 29 27 27 22 7 20 25 24 19 14 19 18 16 14 12 11 11 10 9 9 8 8 8 8 8 8 9 9 9 9 9 10 9 10 10 11 11 11
5 3 1 2 2 5 4 2 13 12 21 16 9 18 11 14 19 18 21 19 19 19 19 17 14 13 12 11 9 8 7 8 8 8 8 8 8 7 8 8 9 9 10 10 10 11 12 12 12
4 2 2 2 6 7 7 6 22 21 18 20 21 7 11 14 23 26 23 17 17 21 19 17 15 13 11 9 8 8 7 8 8 8 7 8 8 8 9 9 9 9 9 10 11 12 13 13 12
4 3 1 3 5 6 5 7 20 10 13 17 24 6 10 18 26 24 18 12 21 23 21 18 14 12 10 9 8 8 7 8 8 8 8 8 8 9 9 10 10 11 10 10 11 11 12 11 11
3 1 1 1 5 7 10 12 26 24 31 26 27 18 12 26 23 21 15 21 21 22 19 17 14 11 9 7 5 7 10 10 10 9 7 8 10 11 11 12 11 11 11 11 11 12 12 11 9
5 3 3 4 6 15 6 8 14 20 15 7 20 11 19 26 23 21 18 20 20 19 17 15 12 11 10 9 10 11 12 10 10 9 8 9 11 11 11 13 13 13 12 13 13 14 13 12 10
5 4 2 3 4 11 3 13 24 19 7 24 27 8 21 29 25 20 17 19 20 16 12 12 11 11 11 11 11 10 10 9 9 8 9 9 11 11 11 12 12 13 12 14 15 16 16 15 13
6 2 4 6 3 11 12 11 21 21 24 8 5 32 36 30 25 21 20 20 17 14 12 8 8 12 14 14 12 11 11 9 7 7 6 8 9 8 9 10 10 10 11 12 13 17 20 20 19
5 2 3 5 10 5 10 20 12 9 20 18 26 34 35 32 26 22 24 25 20 19 14 7 10 12 10 8 6 6 8 6 7 7 7 4 5 5 6 7 10 11 12 13 14 16 19 21 21
6 4 2 10 14 20 12 9 13 20 2 29 34 37 35 32 26 22 24 21 22 20 15 13 13 10 10 7 6 5 4 3 2 4 5 1 3 4 6 7 9 11 11 14 15 17 18 23 23
4 2 9 7 12 16 10 14 6 10 12 25 35 38 34 29 25 26 28 24 25 21 16 15 9 7 10 7 6 9 5 3 4 1 1 2 2 3 3 3 5 7 9 12 15 17 20 23 25
8 4 10 12 11 12 11 11 6 8 24 28 35 33 30 28 24 23 25 26 26 23 23 18 14 13 9 7 7 6 7 6 6 7 6 3 4 4 4 5 5 6 8 11 14 17 20 23 23
10 13 9 9 7 6 6 6 8 14 33 35 34 30 26 24 23 22 25 27 28 28 27 23 16 13 8 8 7 7 11 9 10 9 8 7 8 10 9 9 10 11 14 16 18 20 23 25 24
17 6 5 1 4 3 7 3 5 21 36 37 35 30 26 21 20 22 24 27 30 30 28 25 19 4 9 8 8 6 9 8 8 8 9 10 12 14 15 15 15 18 20 21 24 26 28 30 30
5 5 3 3 5 2 6 6 6 30 35 35 36 33 30 27 25 17 18 19 28 29 31 28 21 10 8 12 10 8 7 8 9 8 9 12 14 19 17 15 18 21 23 31 29 30 33 33 33
5 3 4 2 11 3 3 6 8 28 33 34 36 30 24 17 16 15 10 19 23 21 30 25 17 7 4 12 12 8 8 7 8 8 7 9 11 12 15 19 21 26 29 30 30 31 29 30 31
5 5 3 7 5 2 4 6 5 24 26 25 11 16 19 20 22 23 23 22 22 21 24 21 16 11 13 13 12 11 8 6 4 3 4 5 8 11 13 16 20 23 26 27 30 30 31 33 34
5 5 7 2 1 4 5 3 3 8 10 24 30 33 36 36 32 30 30 27 24 21 20 15 14 15 15 14 12 9 9 4 2 3 3 7 10 13 18 23 25 25 26 25 26 30 35 36 37
5 8 4 5 7 4 6 5 5 9 12 29 35 35 36 31 27 23 19 18 17 18 16 15 13 11 9 5 4 2 0 3 5 8 10 13 17 21 24 25 26 26 28 29 32 34 32 29 26
5 5 3 2 3 3 8 5 6 9 24 24 27 30 28 26 25 21 17 14 12 10 9 10 11 10 8 4 1 3 6 10 14 18 21 24 26 27 27 27 29 30 30 27 23 22 21 21 20
2 3 3 2 4 2 3 1 5 6 9 11 19 28 28 26 22 18 15 12 8 8 7 6 7 9 10 10 12 14 15 17 22 22 20 20 22 25 28 30 27 24 26 24 22 20 21 23 25
3 2 1 1 3 4 6 6 4 6 10 9 16 27 25 22 18 16 12 10 8 6 6 8 10 11 12 15 15 14 15 16 16 15 18 21 27 30 30 24 26 32 33 25 19 21 21 20 20
1 2 7 4 3 3 5 5 4 4 7 8 11 24 24 18 15 12 9 6 5 4 4 2 4 6 9 12 15 15 16 16 18 20 24 27 30 31 26 27 31 37 29 24 24 26 24 23 25
7 5 3 4 4 3 5 5 2 6 8 11 15 21 21 18 11 8 7 5 3 3 2 2 7 9 9 11 14 15 16 16 18 17 21 28 28 27 25 25 30 28 23 20 22 23 23 24 24
3 5 5 4 2 3 5 3 1 5 24 25 23 19 14 14 13 12 12 11 8 5 1 4 10 14 17 20 21 20 20 22 23 27 31 32 30 27 22 27 32 23 20 20 22 22 21 19 17
3 4 4 6 3 3 1 3 2 6 10 18 8 9 12 10 12 14 18 13 9 4 5 7 9 12 15 18 18 18 21 26 30 31 30 31 29 26 25 28 27 21 18 20 21 22 21 20 17
5 2 4 4 2 1 3 2 4 5 6 6 9 14 16 18 16 13 10 6 4 6 8 12 14 14 12 12 16 21 27 29 31 33 31 32 31 28 27 28 26 17 18 19 19 18 16 16 18
4 3 5 4 3 4 2 4 4 7 5 8 16 21 18 16 13 9 6 3 4 8 15 13 11 7 11 18 23 25 29 32 30 27 27 30 31 30 25 27 22 20 21 21 20 20 20 21 22
2 3 4 4 2 2 3 4 4 10 16 20 22 19 15 14 13 11 3 6 12 14 12 12 10 14 19 22 25 28 29 27 33 33 32 32 32 32 30 27 21 22 21 20 21 22 24 24 21

GFSSGP_850_spd_027.txt.gz
Wind_Speed
2 6 6 4 1 4 3 5 2 1 4 4 8 6 8 10 2 2 29 16 27 23 21 18 15 13 11 10 10 10 10 9 9 9 9 9 8 8 8 8 9 9 10 11 11 11 12 11 10
3 7 6 3 3 2 3 4 7 7 18 25 20 14 14 5 8 19 24 27 23 24 21 17 15 13 11 10 10 10 9 9 9 9 9 8 8 8 8 9 9 10 11 11 11 11 12 12 12
6 5 6 3 2 4 3 1 8 19 20 10 7 11 5 2 26 24 22 26 24 23 20 17 15 12 11 10 10 9 9 8 8 8 8 8 8 8 8 9 9 10 10 11 11 11 11 10 10
6 3 5 4 6 7 4 2 15 11 14 11 21 5 9 4 19 17 24 23 24 22 19 17 14 13 11 9 8 7 7 7 8 8 8 8 8 8 9 9 9 9 9 10 10 10 9 9 9
7 2 3 1 3 4 4 7 18 5 8 17 14 8 6 12 17 23 23 23 22 22 19 18 14 11 9 7 6 6 8 9 9 9 9 8 9 9 10 10 10 10 10 10 10 12 12 10 9
2 1 4 3 5 6 6 16 1 7 12 19 16 12 3 22 23 21 20 23 21 22 20 17 13 9 8 7 7 9 10 10 9 9 9 10 10 10 11 11 11 12 12 13 13 14 14 14 12
4 3 3 4 2 6 4 4 3 16 10 7 22 6 16 25 19 20 23 23 22 20 17 14 12 10 9 9 10 10 10 10 9 10 10 11 11 11 11 11 12 13 12 13 15 17 17 16 14
2 3 2 3 8 4 5 5 9 10 3 24 18 8 12 29 25 26 24 22 20 17 13 11 12 12 12 11 11 11 10 9 9 10 10 9 8 9 10 11 11 12 13 13 14 16 18 19 20
2 4 2 3 14 10 14 6 13 7 19 4 2 21 33 34 31 28 25 24 20 16 13 12 13 14 14 13 13 12 11 10 9 8 6 7 6 7 7 9 9 10 11 11 12 14 16 18 19
4 4 8 7 8 9 11 19 15 7 7 5 19 26 37 34 31 27 28 25 20 17 15 11 13 12 13 12 12 10 9 9 7 6 5 3 3 5 6 7 6 7 8 8 9 10 12 14 18
6 3 2 4 13 26 17 13 5 21 2 19 30 38 39 36 29 24 25 20 16 17 16 13 14 12 11 9 8 7 5 7 4 3 3 2 3 4 5 4 4 5 6 7 9 11 13 15 18
3 3 6 6 16 17 11 14 13 5 11 26 25 37 39 36 31 24 22 19 21 20 16 15 15 14 11 7 5 3 3 3 1 0 3 4 5 6 5 5 5 7 9 10 13 15 17 19 21
5 5 6 10 10 10 11 7 7 6 22 27 28 39 38 35 29 21 20 21 24 23 19 16 17 15 11 7 6 5 5 5 4 3 4 6 6 7 7 8 9 11 13 16 18 19 22 25 26
8 5 8 8 10 6 7 4 1 6 29 32 36 38 34 33 30 25 26 27 30 26 22 20 19 14 11 7 5 4 7 7 5 6 5 7 8 9 12 13 12 12 15 18 19 22 26 26 29
14 6 5 2 2 3 11 3 4 22 31 36 37 34 34 30 28 26 31 32 29 28 25 23 19 15 8 9 6 3 5 6 4 5 8 10 12 11 11 12 13 15 17 20 22 26 29 31 32
4 5 3 3 4 1 3 7 2 25 32 33 34 34 31 27 28 28 29 30 31 29 29 26 23 14 7 12 9 6 7 8 7 10 13 15 14 13 14 15 15 17 20 24 28 32 36 35 36
7 2 2 3 4 2 3 4 3 27 32 27 20 16 17 15 14 19 21 22 28 32 33 30 27 10 8 9 8 8 9 9 9 11 12 12 13 14 16 17 18 21 24 29 33 32 35 36 36
4 1 2 5 5 4 1 9 2 28 19 12 13 13 13 13 9 11 12 13 20 30 36 25 15 13 7 11 9 9 8 7 6 7 8 9 11 14 16 18 22 26 29 32 33 35 36 36 39
2 2 3 3 1 5 3 6 8 4 18 21 20 22 24 24 22 21 20 17 19 23 23 19 13 9 7 7 7 8 7 3 3 5 7 10 13 16 21 24 27 31 33 32 34 35 34 32 30
5 6 3 1 5 6 6 8 11 12 9 18 26 28 33 33 29 27 26 22 18 16 8 7 6 5 3 3 1 1 2 5 7 11 14 18 21 25 27 28 32 33 31 30 28 27 27 26 24
4 4 3 3 4 6 5 6 7 7 19 21 22 28 29 27 26 22 18 12 11 14 14 12 11 7 4 1 3 5 9 12 14 17 20 20 22 24 26 30 29 25 24 27 26 23 23 24 24
2 1 3 3 4 3 3 2 4 4 7 10 19 23 24 25 21 18 15 16 14 13 11 8 7 7 7 9 10 10 12 15 16 17 18 20 23 27 31 31 26 26 29 32 25 21 20 20 19
3 2 3 3 3 3 4 5 2 5 2 4 11 21 24 23 21 20 18 16 13 8 5 4 3 1 3 6 11 12 12 13 14 14 16 22 29 30 31 27 27 28 31 28 25 24 21 19 20
1 4 6 4 3 3 3 4 4 6 6 6 11 20 21 19 17 16 15 14 12 9 3 2 2 4 8 12 14 14 14 14 14 16 21 26 26 28 28 27 27 27 28 26 23 23 20 19 20
5 5 2 3 3 4 5 3 5 5 5 7 13 21 19 18 19 19 17 13 11 7 4 3 4 9 12 13 13 14 14 14 16 21 25 26 31 30 29 27 25 26 28 23 21 21 21 21 18
3 4 4 5 3 3 5 2 4 1 20 21 23 21 18 16 14 12 10 9 6 7 3 4 9 12 14 13 14 13 13 17 23 26 28 29 31 32 30 29 24 24 24 21 19 20 19 16 15
1 3 3 6 3 3 2 2 6 2 11 21 24 22 18 14 13 12 10 9 7 3 3 7 11 14 15 13 13 16 20 24 26 28 28 30 30 29 28 27 25 21 21 19 18 18 16 16 15
4 4 3 4 2 1 3 3 4 8 7 8 8 18 17 17 17 16 13 9 5 2 8 12 14 11 9 10 14 18 20 24 26 25 27 27 27 29 31 25 21 20 20 18 18 18 20 20 21
4 2 6 5 3 4 1 5 5 10 8 8 12 21 22 21 18 15 12 6 1 7 10 8 3 4 9 14 17 18 19 20 21 24 28 28 29 28 23 19 18 18 15 21 19 20 21 22 22
1 3 4 4 2 1 3 5 3 6 15 22 23 25 22 20 15 9 5 3 5 6 5 2 5 9 13 17 20 19 16 16 22 26 27 26 25 26 30 35 36 22 12 19 20 21 22 22 23

GFSSGP_850_spd_030.txt.gz
Wind_Speed
5 4 3 2 4 4 4 6 1 3 3 6 16 15 8 5 1 1 21 24 21 22 21 19 17 15 14 12 11 10 10 10 10 9 9 10 10 10 11 11 13 12 12 13 13 12 12 11 11
5 4 2 2 4 3 5 3 2 3 18 27 19 15 12 7 5 14 23 23 23 22 21 19 17 14 13 11 11 10 10 10 9 9 9 10 10 11 12 13 13 11 12 12 12 12 11 11 10
7 4 1 4 3 4 4 2 8 15 6 11 7 13 7 9 8 22 17 25 23 22 20 18 15 13 12 11 10 10 10 9 9 9 9 10 10 11 12 12 11 10 10 10 10 10 11 10 10
6 4 3 4 3 5 3 5 10 5 5 3 12 6 3 3 15 13 23 24 22 21 19 16 14 13 12 10 10 9 9 9 10 10 11 10 11 12 12 11 10 10 10 11 11 11 11 10 11
6 3 4 2 4 5 2 17 4 2 4 7 11 9 8 9 4 16 22 21 22 21 19 16 14 12 11 9 9 9 10 11 12 11 11 11 12 12 12 14 14 14 14 15 16 16 16 15 13
2 1 5 1 4 6 3 17 6 7 6 7 7 13 5 13 15 20 21 22 22 20 18 16 14 11 9 9 9 10 12 13 13 12 12 12 12 13 14 14 15 15 15 17 18 19 19 18 16
3 3 6 5 3 6 2 12 14 1 9 7 18 5 9 20 19 20 22 22 19 19 18 15 13 11 9 9 11 12 12 13 12 12 12 12 12 12 13 14 14 14 14 15 15 16 17 17 18
0 4 5 4 6 7 2 13 17 22 12 16 17 7 10 28 23 23 23 23 21 19 15 12 11 11 12 13 13 12 12 12 12 11 10 9 11 11 11 12 11 12 11 11 11 12 13 15 15
3 3 3 5 9 15 12 9 14 4 15 4 6 10 25 29 28 29 29 26 22 18 13 12 12 14 14 14 14 12 12 12 11 9 8 7 8 8 8 7 8 8 7 7 7 8 9 11 13
4 2 3 7 10 11 9 16 15 7 9 3 10 16 33 31 32 32 30 27 21 17 15 15 15 15 15 14 14 13 12 11 9 8 6 5 4 6 5 3 3 4 4 5 7 8 10 14 17
3 5 5 9 16 13 12 10 10 14 2 8 25 35 33 33 32 29 26 22 17 15 16 15 14 13 13 12 12 12 10 8 6 6 4 2 2 3 2 2 3 5 6 8 10 12 13 16 19
1 10 7 4 12 20 12 15 7 13 5 11 27 34 35 34 32 27 25 21 19 18 16 15 15 13 12 11 8 7 7 5 3 2 3 4 3 5 6 6 7 8 9 9 10 13 14 16 20
3 3 4 11 15 20 18 7 9 5 9 22 27 33 35 34 30 24 19 19 18 18 18 15 15 13 11 10 9 6 5 4 3 1 2 2 2 4 5 7 10 11 10 11 13 14 16 19 24
7 5 4 7 11 10 9 5 7 6 20 25 30 34 34 32 29 24 22 20 20 18 17 15 14 12 10 6 7 9 9 7 7 6 7 6 6 7 8 8 10 11 13 15 17 19 22 26 27
6 4 5 5 3 4 10 3 2 17 26 29 33 34 33 31 28 25 20 22 20 18 19 19 16 13 12 11 9 6 8 10 9 10 11 10 10 9 10 11 12 13 15 17 20 22 25 28 31
5 5 4 3 2 2 4 6 0 21 29 28 28 27 28 28 27 26 23 23 22 23 24 22 19 16 12 11 9 4 14 11 11 12 12 11 11 13 13 13 14 16 19 23 26 31 33 35 38
7 3 1 1 2 3 3 0 10 20 23 18 23 22 23 24 24 26 24 23 24 27 29 27 23 15 8 8 11 6 10 10 9 9 10 11 12 12 12 15 18 22 26 31 35 36 36 37 36
5 4 1 3 2 2 4 5 8 9 14 13 15 13 15 16 19 18 19 20 22 29 31 31 26 17 17 11 8 8 6 3 2 6 6 7 10 14 18 21 25 29 33 36 35 34 33 33 32
4 3 3 2 2 7 6 5 8 3 12 11 12 13 12 12 11 11 10 13 19 20 21 25 16 13 3 9 5 1 6 5 4 5 8 12 17 20 21 25 28 31 33 31 31 31 31 30 31
6 5 2 2 6 6 6 8 8 11 4 8 15 17 17 16 13 12 11 10 10 11 9 5 8 12 9 2 4 6 7 9 12 13 11 17 20 19 23 27 30 29 27 26 27 27 26 25 27
4 4 1 2 3 7 4 4 5 6 11 15 16 21 24 25 25 22 16 12 8 12 16 15 12 9 6 6 7 6 7 9 12 14 14 17 17 21 25 27 27 26 26 25 26 25 24 24 21
3 0 2 4 3 3 3 3 2 3 4 6 18 22 23 21 18 12 9 13 16 16 14 10 9 7 4 6 7 9 9 11 11 12 14 14 18 24 25 29 27 25 25 24 25 23 21 19 18
1 5 4 3 5 4 4 4 3 6 3 5 10 18 20 18 14 15 16 15 14 11 8 5 2 2 1 4 7 9 10 10 10 10 11 17 21 24 25 26 25 27 26 27 29 26 23 20 21
4 5 8 5 3 2 1 4 3 5 6 6 12 18 20 17 16 18 17 13 10 9 3 3 5 2 6 9 11 12 11 10 9 12 17 22 22 25 26 28 29 30 28 26 25 23 20 19 20
6 5 3 3 3 4 3 3 6 5 5 11 15 21 21 18 19 20 20 19 12 10 8 5 4 5 7 10 11 10 8 10 14 18 21 20 21 25 25 28 27 28 24 21 18 22 19 19 20
3 5 5 5 3 3 3 3 4 4 10 23 23 23 20 18 18 19 19 16 13 12 9 7 3 7 10 11 8 7 10 14 17 19 20 20 22 24 24 26 28 25 22 17 20 18 19 19 19
2 3 3 6 2 3 2 3 4 5 4 19 24 20 20 20 21 20 18 16 14 12 8 3 8 10 10 6 7 11 14 16 18 19 20 21 24 24 25 26 27 20 17 18 19 17 20 18 17
2 5 3 3 2 3 3 4 5 5 7 8 12 22 20 18 20 20 19 17 13 8 4 7 8 6 4 7 10 13 16 18 19 18 19 22 23 24 28 27 26 31 33 29 20 16 17 18 17
2 2 6 4 3 4 1 5 5 12 12 12 15 20 22 22 23 22 19 14 9 6 4 8 8 5 7 10 15 18 18 17 16 21 21 21 24 27 27 24 26 27 29 27 18 13 17 18 19
2 3 5 4 3 1 3 5 2 6 14 16 17 19 22 23 20 16 12 7 4 3 8 8 7 7 11 14 15 13 14 19 23 21 23 26 29 33 30 25 26 27 23 21 14 14 18 19 20

GFSSGP_850_spd_033.txt.gz
Wind_Speed
5 5 5 4 2 1 2 2 1 7 4 4 8 13 11 8 3 1 14 20 23 23 21 20 18 16 15 15 14 14 13 12 11 11 11 11 11 11 11 12 12 12 12 12 12 12 11 11 11
4 6 4 2 2 2 4 3 3 6 14 14 14 12 9 5 4 9 22 20 24 23 22 20 17 16 15 14 13 13 12 12 12 12 12 12 12 13 13 12 12 11 11 11 11 11 11 11 12
6 7 2 2 2 4 3 7 16 19 19 4 5 11 8 1 3 20 8 19 23 22 21 20 18 16 13 13 12 12 11 11 12 13 13 12 13 13 13 12 11 11 11 12 11 11 10 11 11
7 4 2 1 1 1 2 13 22 5 5 1 8 3 7 6 14 20 20 23 22 22 21 19 16 14 14 13 12 11 11 13 14 13 12 14 14 13 12 12 12 12 13 14 15 15 15 14 14
5 1 2 2 2 2 2 14 14 9 9 5 8 7 6 14 13 18 24 24 22 22 20 18 15 14 13 11 11 12 14 15 15 13 14 14 14 15 14 15 15 16 17 18 18 18 17 16 16
2 1 2 4 4 4 7 12 14 20 14 4 4 4 5 14 12 22 25 24 22 21 20 18 16 13 11 12 12 14 16 16 15 15 15 15 16 15 15 15 15 15 15 16 17 17 17 17 17
2 2 3 6 4 10 6 11 9 11 15 12 7 4 8 14 19 23 23 24 21 20 19 18 15 13 12 12 13 15 15 15 15 15 14 14 14 14 13 13 13 12 13 12 12 12 13 14 14
1 3 4 4 8 8 6 7 16 13 4 8 14 5 7 23 24 22 23 22 21 20 17 14 14 14 14 14 15 15 15 15 15 13 13 12 12 11 10 11 10 9 9 8 8 8 10 12 13
2 1 3 7 10 11 12 7 13 7 5 5 7 6 16 27 24 24 24 23 22 19 16 15 14 14 15 15 15 14 15 15 13 11 11 10 9 8 7 7 6 5 4 5 6 7 9 10 12
3 3 7 7 10 9 10 14 14 6 12 4 6 10 25 24 26 27 27 25 22 19 17 15 15 14 15 14 14 15 14 13 11 9 9 7 6 5 3 3 3 2 3 5 6 7 9 10 13
6 4 6 9 15 22 15 10 12 14 10 7 12 26 28 26 28 27 25 23 20 19 17 16 16 16 14 14 14 13 12 10 8 6 5 4 3 2 2 2 1 2 4 6 7 9 12 13 16
3 4 3 3 18 15 15 9 6 8 3 8 17 34 31 29 30 28 26 23 21 18 17 17 16 15 14 14 11 9 8 7 5 4 3 3 4 4 3 4 3 4 7 8 10 12 14 15 18
3 1 2 7 12 8 17 6 6 8 1 12 24 33 31 29 29 27 24 21 19 18 16 16 14 14 11 10 9 8 7 6 6 5 4 4 5 6 5 5 6 8 10 11 13 15 16 18 21
2 5 7 8 13 16 8 5 6 6 14 20 29 30 28 27 27 25 24 21 19 17 16 14 14 11 10 9 9 11 11 11 11 11 10 9 8 8 7 9 10 11 12 13 16 19 21 24 27
7 5 5 5 5 4 16 4 2 11 20 26 30 28 29 27 27 25 22 21 19 18 17 16 15 14 12 12 10 8 6 13 15 14 12 12 9 9 9 11 11 11 12 14 17 22 27 29 31
4 4 4 2 4 4 4 3 8 13 23 21 23 24 27 25 23 22 21 19 18 19 20 19 17 14 10 7 2 3 7 17 16 11 10 8 7 8 9 9 10 12 16 21 26 29 28 28 28
6 3 3 4 4 4 3 3 9 9 13 12 14 17 24 23 21 22 21 20 17 19 21 22 21 18 13 3 11 9 16 14 8 5 5 6 6 7 9 10 14 19 24 27 28 27 27 28 28
4 4 2 3 2 9 7 4 7 2 9 10 13 16 19 21 20 18 20 19 18 18 22 24 24 19 9 9 13 13 7 3 2 6 6 4 6 9 12 15 19 24 27 27 26 26 26 26 28
4 3 3 2 2 6 4 4 6 3 7 11 11 13 13 13 14 13 13 12 13 15 15 17 21 14 4 3 12 12 6 3 2 4 6 5 7 10 13 18 23 24 24 25 25 23 25 26 27
4 7 3 3 3 4 4 6 7 6 2 4 11 12 13 11 9 7 6 5 5 3 7 10 9 14 12 12 9 5 1 2 5 5 5 7 10 14 19 22 24 24 23 24 25 24 26 25 25
4 5 2 3 4 6 3 3 2 5 6 4 6 10 12 13 15 15 15 15 17 20 20 18 17 15 14 10 6 3 3 4 7 8 8 9 14 17 21 23 21 21 23 25 26 26 26 23 19
4 1 4 4 2 2 3 3 2 1 3 4 9 13 19 24 23 20 18 25 27 24 20 17 15 12 8 4 2 4 7 8 8 8 8 12 15 19 20 20 20 22 23 24 24 24 21 19 16
3 3 4 3 4 2 2 2 1 0 4 8 13 16 19 19 17 20 24 23 21 19 15 12 11 11 7 5 5 6 7 7 6 7 10 15 18 18 21 21 22 22 24 26 23 18 16 16 14
8 4 5 3 2 1 1 3 3 5 5 11 14 15 16 16 18 22 22 21 19 19 17 16 14 9 6 5 5 6 7 6 6 10 14 17 19 21 21 21 22 23 25 23 18 15 15 16 16
4 4 2 1 1 3 1 2 5 4 6 17 20 18 18 17 21 23 24 22 18 15 12 12 10 6 4 6 6 6 5 8 10 13 14 16 17 18 19 21 23 25 24 22 19 18 26 17 17
2 3 4 4 3 1 1 4 1 2 5 19 21 20 21 21 21 22 20 17 14 9 11 10 7 5 5 5 4 3 7 9 11 13 16 17 18 20 25 25 27 29 28 29 25 28 24 17 18
3 2 2 6 1 1 2 3 5 1 5 15 21 19 22 23 23 22 19 17 12 12 11 9 7 5 2 1 3 7 9 11 14 16 17 17 22 25 25 25 27 26 25 26 24 27 23 20 17
1 7 3 2 3 3 2 4 5 4 8 12 18 23 22 23 21 21 19 16 15 15 11 7 3 2 2 4 7 9 11 14 15 15 20 23 23 25 27 30 29 23 23 26 23 24 28 13 16
2 2 5 4 1 2 1 4 4 8 11 16 23 24 23 22 21 21 19 17 16 11 7 2 2 2 3 7 9 11 12 13 17 22 21 23 26 29 32 31 27 21 20 26 16 23 14 16 17
1 3 4 3 4 1 0 5 2 5 10 13 17 17 19 19 18 18 18 16 12 8 5 2 2 7 8 8 9 10 14 19 23 21 21 24 29 32 31 27 24 18 19 22 23 19 17 17 17

GFSSGP_850_spd_036.txt.gz
Wind_Speed
6 6 4 2 6 6 10 5 2 8 9 8 10 7 9 13 5 3 16 16 23 22 22 20 18 16 16 15 14 14 12 12 11 10 10 10 10 10 10 10 10 9 9 10 10 10 10 10 11
6 4 3 4 7 8 4 4 4 13 19 13 11 8 10 7 7 12 16 18 23 23 20 20 18 16 15 14 13 12 12 11 11 11 11 11 12 12 12 11 10 10 10 9 9 10 11 11 12
5 7 7 4 8 9 2 2 17 23 15 12 5 8 5 3 10 13 10 20 22 20 20 20 19 17 15 14 13 12 11 11 11 12 13 13 13 13 12 11 11 10 11 11 11 11 12 12 12
4 5 5 8 5 3 5 12 25 21 15 7 12 4 8 7 7 9 10 19 18 18 18 20 19 17 16 14 13 12 12 12 13 13 13 13 13 12 12 12 12 12 13 14 14 14 14 15 15
6 5 7 8 3 3 5 18 14 11 14 7 5 8 9 10 15 18 21 23 21 18 17 19 17 16 15 14 13 13 13 14 13 13 14 14 13 13 13 13 14 14 15 16 16 16 16 17 17
9 4 7 9 4 5 9 9 12 12 13 8 3 6 5 11 14 20 27 22 20 20 18 18 16 15 14 13 13 14 15 14 13 14 14 14 14 13 13 13 13 14 14 14 13 13 13 14 15
7 6 4 4 8 11 12 8 12 13 12 12 4 6 6 11 15 18 19 21 19 19 18 16 16 16 13 12 13 15 15 13 14 14 14 13 12 12 11 11 11 11 10 10 9 9 9 10 12
5 5 8 8 9 13 11 12 9 10 2 0 6 5 6 16 21 22 20 20 22 20 15 15 14 14 13 14 15 15 15 14 14 13 12 11 10 9 8 9 8 7 6 5 4 5 6 7 9
4 7 9 11 15 15 10 11 9 11 12 3 4 2 8 24 23 24 24 23 22 19 16 15 14 13 13 13 16 15 15 14 13 12 10 8 6 6 5 6 5 4 2 1 3 5 7 9 10
9 8 7 4 7 14 22 12 15 11 15 8 4 7 20 27 27 27 26 24 23 20 18 15 15 15 16 13 15 15 15 11 8 8 8 5 6 5 4 4 4 3 2 3 6 8 10 9 8
10 8 5 6 11 9 15 15 13 18 10 12 13 19 26 26 23 25 22 21 19 16 14 14 15 16 16 12 11 9 9 10 8 7 7 7 7 6 4 5 5 4 4 5 6 8 10 14 14
8 12 4 2 12 9 7 7 7 14 5 5 8 22 26 25 24 24 23 20 17 15 13 14 15 16 15 11 9 11 8 9 5 6 5 7 6 8 7 6 7 7 8 8 9 11 14 16 18
14 5 5 7 12 15 7 11 9 7 6 10 19 24 22 22 21 19 17 16 14 14 13 13 14 13 13 12 12 11 9 7 9 10 9 8 9 9 8 8 9 9 8 8 9 10 13 16 16
5 3 6 4 13 12 11 7 12 4 10 14 22 22 20 22 21 19 16 14 13 13 12 15 14 13 13 13 12 11 10 10 12 13 12 12 10 9 9 8 8 9 8 10 12 16 18 17 19
9 11 10 7 12 5 11 11 6 5 13 17 18 18 17 18 17 15 12 11 12 13 14 14 16 16 14 12 11 8 4 8 10 15 15 12 9 7 7 7 7 8 10 13 16 19 14 14 15
4 9 8 6 8 5 11 11 6 8 14 17 18 18 17 18 16 13 11 11 12 13 14 18 15 12 11 8 8 7 10 11 15 14 8 7 4 5 5 5 7 10 15 18 18 14 15 14 15
7 8 9 9 2 7 7 9 3 11 14 15 17 18 18 17 14 12 9 10 12 13 16 18 18 16 12 7 4 9 13 8 8 3 1 2 3 3 4 7 12 17 17 19 18 14 15 16 16
8 6 11 12 7 13 9 8 7 10 15 16 17 16 17 17 14 10 11 10 12 15 16 16 18 18 11 5 8 9 10 6 7 3 4 4 4 5 8 13 17 18 13 13 20 19 15 16 17
3 4 10 8 5 7 4 7 5 8 14 16 16 16 15 15 11 9 13 12 14 18 19 12 11 19 12 4 12 13 11 7 5 4 5 5 5 7 11 12 14 14 13 18 19 16 17 18 17
5 8 6 5 4 5 8 6 4 6 11 13 14 14 15 13 10 9 9 11 13 14 13 11 10 11 12 13 13 11 8 7 7 5 8 7 8 11 13 15 10 13 12 13 14 16 18 18 18
4 3 7 5 7 2 9 8 8 4 7 9 10 11 12 12 11 11 11 12 15 18 16 18 16 18 18 16 13 9 8 5 6 9 9 9 9 10 12 16 18 16 15 15 16 16 16 19 18
6 3 6 10 10 7 8 8 11 8 8 9 11 12 12 13 13 13 15 16 19 22 21 19 20 20 19 17 11 10 4 5 6 6 5 4 10 14 18 20 20 18 16 16 17 18 15 16 19
4 4 4 4 6 5 9 7 8 8 10 11 12 14 15 16 17 16 18 21 20 19 18 18 18 15 16 15 8 5 5 5 4 4 4 7 10 16 17 15 16 16 17 18 18 16 17 16 18
10 7 6 3 3 7 4 7 9 5 4 11 14 18 20 19 17 18 20 19 17 16 15 16 15 14 12 9 7 7 4 4 3 4 6 10 12 14 15 16 17 18 20 20 21 20 19 16 17
6 6 3 3 4 6 2 6 11 3 3 9 19 23 21 18 19 21 20 18 16 15 15 14 12 10 9 8 6 4 4 3 3 5 9 13 16 17 18 19 20 20 21 23 22 21 19 18 18
3 4 3 4 3 1 3 5 2 1 1 7 19 22 21 19 20 21 19 16 15 14 13 12 12 9 7 3 3 3 5 3 5 9 12 13 13 15 16 18 20 21 22 21 20 19 18 17 20
5 4 3 2 1 3 4 4 8 3 5 11 19 22 22 22 21 20 18 17 15 12 13 12 10 7 3 3 7 8 7 9 10 13 13 10 13 15 18 21 23 24 22 21 20 19 19 19 20
4 9 3 3 3 4 4 5 2 6 9 12 18 22 23 22 19 19 18 16 14 13 14 13 9 5 1 5 9 8 10 11 12 13 12 11 14 18 21 24 24 23 21 19 19 18 20 16 17
4 4 0 1 2 2 3 1 3 2 5 13 19 23 24 22 20 19 17 15 14 12 11 11 9 3 5 6 8 10 9 12 13 10 10 12 18 21 23 22 21 20 18 15 19 22 15 14 14
3 6 9 4 4 1 2 3 3 1 3 9 16 20 22 20 19 18 17 17 15 14 13 13 7 4 7 8 7 5 11 11 8 10 13 17 20 22 20 18 17 15 13 13 15 14 10 11 13

GFSSGP_850_spd_039.txt.gz
Wind_Speed
6 6 5 10 8 8 17 17 4 7 7 11 4 6 13 19 11 5 19 15 22 23 24 24 22 21 19 17 15 13 12 9 9 8 7 7 7 8 9 8 8 8 8 8 8 9 10 11 11
4 7 8 15 9 14 13 6 11 21 12 11 11 10 15 13 13 16 15 19 24 24 23 24 21 19 18 16 14 12 11 10 9 7 7 8 9 10 9 9 8 7 7 8 9 10 11 13 14
6 9 14 10 14 15 8 16 18 16 12 9 7 12 7 5 10 6 12 19 21 21 20 20 22 19 17 16 13 12 11 10 9 8 8 9 10 10 9 9 8 9 10 11 12 13 14 15 17
5 9 14 10 18 4 10 19 10 13 11 11 12 7 6 4 4 7 13 20 19 23 22 18 18 18 17 15 13 12 11 10 10 10 10 10 10 10 10 10 10 11 12 13 14 15 16 17 18
10 14 12 14 18 3 6 15 14 11 10 4 6 8 6 8 7 6 14 16 17 21 21 22 18 16 15 14 12 12 11 11 11 11 11 11 10 10 11 11 11 12 13 13 13 13 14 15 16
14 17 13 14 12 4 5 12 11 10 6 7 5 12 5 7 11 12 10 14 18 20 20 21 17 15 15 14 13 12 12 12 11 12 11 11 10 10 10 11 11 11 11 10 10 11 11 12 13
17 11 16 16 8 7 12 9 17 11 11 5 7 5 2 11 15 18 9 13 16 22 20 20 18 15 14 13 13 13 13 12 12 11 12 10 10 9 8 8 8 7 6 6 6 6 7 8 10
20 12 20 10 11 6 8 5 6 6 13 3 5 4 5 11 14 16 20 22 18 19 18 17 16 14 13 14 14 14 13 13 13 12 11 9 8 7 6 4 4 3 3 4 5 6 8 10 11
14 11 14 7 14 11 18 10 6 4 7 5 4 3 8 16 19 21 18 17 16 17 16 15 13 12 12 11 14 14 13 13 12 10 9 9 3 5 1 1 0 2 4 6 7 8 9 11 14
13 12 16 15 8 2 16 5 11 10 12 6 2 5 16 18 18 18 18 16 16 17 15 14 16 15 15 12 15 12 13 10 7 5 6 6 4 6 6 4 4 5 7 8 9 10 10 9 8
15 15 4 3 13 34 3 11 13 14 14 20 18 14 17 18 15 14 16 16 17 16 12 12 13 14 13 10 11 10 10 8 6 7 5 6 2 2 3 6 5 5 8 5 7 9 7 12 13
15 17 5 7 5 14 13 14 8 9 25 9 11 17 21 19 18 18 18 18 16 14 13 12 12 14 12 12 10 10 8 7 6 7 3 2 1 5 3 3 4 5 6 8 8 8 12 13 14
15 4 3 1 8 9 11 7 5 2 7 4 16 20 20 18 19 19 18 16 15 14 15 14 13 13 14 11 10 9 6 9 6 4 6 6 4 6 3 5 3 4 5 6 8 10 12 15 16
12 14 3 6 11 18 8 4 4 8 7 12 19 20 19 20 21 20 18 16 16 16 15 15 13 12 11 9 10 8 7 2 5 5 8 10 10 11 5 2 2 3 6 8 10 14 15 16 16
4 7 9 7 12 7 12 3 17 5 11 16 19 20 20 22 21 19 17 17 17 16 16 16 15 14 12 10 10 7 3 3 5 5 11 12 15 15 8 10 9 9 10 12 11 14 14 16 16
8 6 12 7 13 7 15 12 7 11 13 17 19 19 20 21 20 18 16 16 16 16 17 17 17 17 15 12 10 9 7 5 9 10 11 8 4 5 7 7 7 10 13 10 13 13 15 17 18
10 8 11 11 13 11 12 15 11 15 14 18 19 20 21 20 19 17 15 15 16 17 19 17 18 18 16 13 14 9 6 9 21 10 3 2 4 5 3 5 8 11 7 10 12 14 15 17 19
13 14 14 11 11 10 10 9 10 17 16 16 17 18 18 20 20 16 14 14 16 17 20 18 18 20 20 18 11 14 18 15 13 8 4 3 5 4 1 6 10 11 10 10 12 13 15 16 19
4 7 11 14 11 13 12 10 13 16 16 18 18 19 20 20 18 15 14 14 16 18 19 20 21 15 21 17 13 13 12 11 10 7 4 4 3 2 3 2 7 10 9 12 13 14 17 18 19
6 6 7 10 11 9 10 12 12 15 19 19 19 20 21 20 16 14 14 15 17 20 19 19 17 11 16 10 9 9 10 8 7 6 7 6 5 3 4 8 7 9 12 13 14 17 18 19 19
7 2 8 7 11 14 9 14 15 12 14 14 19 20 20 21 18 16 16 16 17 19 19 19 15 13 13 13 13 12 11 10 8 8 5 7 5 3 5 8 11 11 13 14 16 17 19 22 22
10 2 1 4 12 13 17 13 19 18 16 15 17 17 19 18 18 17 16 17 18 20 18 17 18 15 15 16 12 12 8 7 7 8 8 6 8 5 7 10 11 13 15 17 18 19 22 22 23
8 3 4 6 12 7 13 8 18 15 15 15 17 19 19 19 18 18 17 16 19 20 19 17 17 18 17 14 12 10 7 5 5 6 8 6 8 9 11 12 14 15 18 20 22 23 24 23 23
4 4 6 7 10 8 15 13 5 12 14 17 14 16 18 18 18 18 20 23 22 20 18 18 19 17 15 13 10 8 7 6 6 6 7 8 9 12 13 15 16 19 20 21 23 24 24 26 21
8 9 8 5 4 8 4 5 12 7 4 5 14 18 19 20 20 22 24 23 21 20 18 18 17 16 14 12 10 8 7 6 4 7 7 9 11 12 13 15 17 18 20 21 22 24 24 25 22
9 11 5 6 7 7 8 7 3 9 2 4 14 18 20 20 20 22 23 21 19 18 17 16 16 15 14 13 11 9 7 4 6 7 7 9 10 11 13 16 18 20 22 23 23 23 23 23 21
6 7 5 4 1 5 10 9 9 5 6 7 15 19 21 21 21 23 22 20 19 18 17 17 17 15 15 13 11 6 8 6 7 7 6 7 9 11 14 16 19 21 21 21 20 21 22 21 20
8 3 3 4 3 7 4 6 5 7 7 8 14 19 21 21 22 23 22 20 19 18 17 18 18 17 15 12 7 6 8 7 5 5 7 7 9 12 15 17 18 19 19 19 18 18 19 20 21
7 8 6 4 3 4 4 2 8 3 6 9 13 18 20 22 23 22 21 20 20 18 18 18 18 18 14 9 4 8 8 7 5 5 7 8 11 14 16 17 17 17 17 17 19 16 17 16 14
10 8 9 5 6 4 4 5 4 5 3 7 12 17 20 22 23 22 22 21 21 20 19 20 20 16 11 6 9 6 9 7 7 8 9 10 13 15 16 16 16 16 16 14 13 14 16 13 12

GFSSGP_850_spd_042.txt.gz
Wind_Speed
5 2 4 11 7 8 16 19 7 14 5 12 16 20 18 20 8 7 23 23 26 25 26 24 22 22 20 18 16 14 12 10 9 9 8 8 8 10 11 11 11 11 12 12 14 15 15 16 16
7 9 11 11 10 13 13 10 16 13 11 12 16 16 15 10 16 17 18 23 26 24 27 26 22 21 19 16 15 13 11 10 9 8 8 8 9 11 10 10 10 11 13 15 16 18 20 21 21
7 4 11 7 12 15 11 9 10 6 10 10 9 13 7 5 9 3 17 26 30 21 22 25 22 20 19 17 14 12 11 10 9 9 9 9 9 10 10 10 12 14 15 17 19 20 21 21 22
3 8 11 8 19 21 7 20 22 12 13 7 14 12 11 10 5 4 14 22 27 28 22 23 20 19 18 16 13 12 11 10 10 10 10 9 9 9 11 12 13 15 17 17 18 17 17 19 19
12 12 10 15 18 19 5 14 15 9 5 9 10 7 11 9 15 12 12 13 23 24 26 25 20 19 17 15 13 12 11 11 10 10 10 9 9 11 12 12 13 15 15 15 15 14 15 15 16
17 17 13 15 22 11 2 12 15 12 14 16 1 14 10 14 13 17 13 13 21 22 23 21 18 18 17 15 13 12 13 12 10 11 10 9 10 11 12 11 12 12 12 12 11 11 11 12 13
15 12 16 19 16 11 3 12 17 2 2 21 9 6 10 16 11 13 13 10 13 28 25 23 19 17 16 15 14 13 13 12 12 12 11 11 11 10 9 8 8 9 9 8 8 9 9 11 12
20 13 21 19 17 6 24 32 25 25 13 11 8 6 8 17 16 12 8 15 16 28 20 20 21 18 16 15 15 14 13 13 13 13 11 11 10 7 6 5 5 6 6 7 8 8 10 12 15
20 12 14 19 10 5 25 19 34 7 8 7 8 13 20 19 20 20 17 21 19 25 23 20 18 14 13 14 15 14 14 14 14 13 13 12 11 7 6 5 4 5 6 8 10 10 10 11 12
13 12 20 3 11 6 9 16 41 4 4 10 14 21 22 20 23 22 21 22 21 22 20 18 18 14 10 15 15 14 14 13 12 12 12 10 6 1 2 8 7 7 8 8 11 12 9 6 7
17 15 16 3 18 19 13 27 39 4 8 11 8 22 22 21 20 20 18 21 26 22 23 23 23 22 16 11 13 16 13 11 7 5 7 7 3 2 4 7 7 8 9 6 8 9 12 14 14
14 18 21 4 15 17 14 19 11 11 3 17 7 20 23 20 18 19 20 24 22 15 16 18 19 19 12 15 13 10 11 7 6 6 6 3 3 2 5 4 0 4 4 6 5 6 13 12 16
14 17 8 7 5 8 11 8 8 14 9 25 23 22 22 17 18 22 24 22 20 18 18 17 22 19 18 16 17 15 17 12 7 6 6 4 7 5 5 8 5 10 9 9 10 12 16 18 18
10 16 4 3 4 3 9 7 13 6 6 26 20 21 19 18 19 22 19 22 19 20 18 15 20 20 20 19 20 18 15 13 8 5 2 5 10 10 3 5 9 11 11 11 12 15 18 19 15
5 7 4 2 3 3 13 9 2 6 11 13 16 18 17 18 19 18 20 20 21 19 20 21 19 20 21 20 21 20 17 9 4 3 5 8 14 13 12 11 12 11 12 13 16 18 16 16 19
8 6 5 6 12 11 13 9 8 7 15 17 19 19 19 19 19 19 17 19 18 22 21 19 22 23 24 22 21 17 11 7 6 4 8 16 11 9 7 8 9 9 11 15 17 13 20 19 21
1 6 9 15 14 6 11 14 14 13 15 19 20 21 21 22 21 20 17 20 22 23 23 24 25 25 20 16 13 14 13 18 18 17 9 6 4 4 4 7 7 9 7 9 15 22 22 21 19
8 14 16 12 13 11 16 14 14 18 19 19 20 20 22 23 21 21 20 19 21 24 29 24 23 20 17 15 14 15 16 20 21 16 7 7 4 3 3 8 9 11 8 16 22 21 17 18 17
11 15 15 11 13 8 8 10 12 18 16 21 20 21 20 21 18 21 18 17 21 25 23 19 19 19 19 17 15 14 17 10 12 12 8 6 3 5 5 6 7 11 12 12 13 15 18 19 20
16 1 10 13 9 10 13 11 14 14 17 19 20 23 23 23 25 21 19 19 19 24 22 21 20 15 14 14 12 9 9 9 8 9 9 8 7 7 4 8 7 10 15 15 12 17 22 21 16
8 12 7 9 7 11 11 13 15 15 18 21 25 26 28 28 27 20 20 20 21 22 25 20 21 16 15 10 10 10 10 9 11 9 10 13 8 3 3 7 10 15 15 12 16 18 18 21 26
2 11 8 16 15 7 9 9 17 13 13 16 23 24 25 26 28 23 21 22 21 22 17 16 16 14 14 16 14 12 14 13 12 11 6 11 9 9 6 10 15 16 16 18 18 20 24 28 27
3 9 16 16 6 4 7 6 12 12 18 16 13 16 19 24 24 23 25 24 21 22 21 19 16 19 19 19 15 14 10 14 15 13 14 10 7 12 9 10 11 14 14 16 20 21 20 22 25
13 10 15 9 9 7 16 11 14 13 11 19 13 19 19 17 19 21 23 25 18 21 20 23 21 23 20 17 16 15 13 10 12 11 9 6 9 9 10 14 16 19 22 26 24 26 26 26 26
8 10 3 7 7 4 9 5 5 19 19 17 20 18 18 19 18 19 19 21 24 24 23 23 22 22 20 19 16 15 13 12 12 13 15 14 13 11 14 17 21 23 20 21 23 25 25 25 25
15 7 3 2 5 7 5 5 5 12 11 8 16 15 16 16 17 19 22 25 26 25 23 22 23 21 19 18 16 17 15 14 13 8 12 12 12 15 16 17 15 20 21 23 24 24 23 23 23
9 4 4 7 3 2 6 17 7 8 8 8 14 17 18 19 20 22 24 24 24 23 22 23 23 22 23 19 20 19 16 13 10 15 16 14 12 10 12 16 19 19 20 20 19 19 19 20 21
5 6 4 2 2 4 8 10 9 6 8 6 11 16 18 19 20 23 26 25 24 23 22 21 22 25 23 23 24 19 11 13 15 13 11 12 12 13 13 16 17 17 16 16 20 22 21 21 21
6 7 5 6 4 1 4 3 7 6 8 6 9 17 20 21 23 24 26 25 22 23 23 22 21 24 23 21 20 15 17 17 9 9 11 11 11 12 14 15 16 15 15 19 23 19 15 17 16
9 11 9 3 5 2 1 6 4 5 6 6 9 15 20 23 23 25 26 25 23 23 22 23 22 21 20 20 18 14 17 9 9 10 12 11 12 12 15 16 14 15 17 22 19 15 17 16 12

GFSSGP_850_spd_045.txt.gz
Wind_Speed
6 3 4 5 1 3 5 5 4 3 4 16 22 21 17 14 4 5 27 20 26 31 28 27 29 27 24 22 20 17 15 14 13 13 13 15 15 16 17 16 16 17 18 20 22 23 25 24 24
7 4 9 6 2 1 6 5 5 0 8 14 19 15 10 6 10 16 19 20 27 32 31 29 28 27 24 22 19 17 14 13 12 13 15 16 15 15 16 16 17 19 21 23 25 25 26 27 24
5 6 4 4 3 7 5 3 6 10 11 8 6 14 6 4 11 7 20 23 30 32 32 30 28 26 23 21 18 16 14 12 13 15 15 15 15 15 16 18 19 21 22 22 23 23 24 25 24
2 4 6 1 10 14 9 7 7 7 13 16 19 8 8 5 4 10 22 27 30 35 34 29 27 24 22 20 17 16 15 13 14 15 15 15 15 16 17 19 20 20 21 20 20 20 20 21 21
7 7 3 4 9 12 4 9 16 8 7 9 8 5 7 13 11 15 24 25 31 31 32 30 25 23 20 19 17 15 15 14 15 15 15 15 15 16 18 18 19 18 18 16 16 16 16 17 18
6 3 2 5 12 5 13 21 15 14 7 3 16 11 6 12 12 13 18 16 35 30 30 29 24 19 14 17 16 15 16 16 16 15 15 15 16 16 17 16 16 15 14 13 12 12 13 14 14
8 2 7 10 16 5 5 13 21 9 1 2 12 6 14 13 12 13 12 12 21 30 27 24 21 19 17 16 16 17 16 16 16 16 16 16 16 15 14 13 12 11 10 9 10 10 11 12 14
18 4 8 10 12 4 0 7 17 21 8 4 12 7 9 21 14 14 19 24 20 29 26 24 19 17 17 17 16 17 17 17 18 17 16 15 14 13 12 9 8 7 7 8 9 10 8 9 10
20 1 11 10 0 4 7 3 2 6 26 9 7 17 27 28 21 21 26 32 33 29 24 23 19 16 16 16 17 17 17 18 18 17 16 14 13 12 12 7 5 5 6 7 10 8 5 6 8
2 4 7 3 6 6 7 18 20 12 20 4 20 18 22 27 25 30 30 34 33 25 21 22 20 18 18 19 19 18 19 19 19 16 13 10 9 6 6 7 6 6 6 7 8 5 5 8 12
14 10 9 5 8 10 11 4 8 5 1 9 12 7 15 29 31 32 39 41 21 23 22 23 22 19 20 20 21 21 20 20 18 12 13 8 5 3 1 4 5 6 4 2 1 4 8 12 12
6 17 20 10 10 10 9 3 3 7 5 16 21 14 12 27 28 30 31 27 35 28 27 24 21 18 16 21 23 20 16 14 15 14 13 11 8 4 4 7 7 7 6 7 8 9 11 13 14
7 8 11 15 17 11 23 16 2 5 5 12 17 13 16 16 20 26 31 33 28 31 31 28 25 18 23 23 21 19 17 15 15 13 11 11 12 10 9 9 10 10 10 9 10 11 13 15 16
11 17 3 6 10 12 18 8 16 13 14 18 26 15 20 18 27 34 34 32 30 28 26 29 26 22 21 20 21 22 21 17 13 10 10 13 12 11 10 11 11 12 10 9 10 13 16 15 17
14 6 5 4 6 5 17 5 5 10 21 20 21 21 19 22 29 35 37 36 29 23 19 30 27 29 23 26 23 21 19 15 11 14 13 11 10 8 9 11 10 10 9 10 13 15 15 18 16
7 3 2 2 10 7 9 5 8 26 28 25 24 23 22 27 34 37 36 31 25 21 17 25 29 29 25 24 24 21 18 16 17 14 9 8 5 7 8 11 9 7 9 13 15 16 19 19 19
4 3 3 2 2 8 5 5 16 22 30 27 25 22 24 29 28 31 25 25 23 18 21 26 28 26 24 23 24 22 21 19 13 11 6 4 4 4 6 4 6 8 10 12 14 19 23 23 24
1 3 3 6 7 12 6 7 6 23 28 28 30 27 25 28 28 26 21 23 24 26 23 23 27 27 26 21 21 21 20 16 16 12 10 8 7 6 5 5 6 9 10 12 17 18 19 22 25
5 6 8 9 8 6 9 9 11 20 23 23 30 31 28 28 29 26 25 28 33 29 24 24 25 27 25 23 18 18 18 19 18 17 15 11 7 5 3 7 8 8 12 15 15 16 20 24 24
6 11 10 13 5 4 7 8 11 12 17 28 29 31 31 29 32 28 29 31 33 31 28 27 26 25 22 20 16 14 15 15 10 12 11 10 8 5 7 9 11 12 16 18 18 19 22 22 21
3 6 2 2 5 5 3 5 6 7 13 26 32 31 31 31 35 34 30 24 30 34 34 24 22 16 19 16 16 15 13 14 15 13 11 9 8 8 8 11 14 17 18 19 21 21 22 23 25
4 5 5 3 5 2 2 3 1 5 10 12 24 33 34 33 33 35 33 27 23 31 26 22 16 14 16 16 15 17 19 17 12 5 7 10 10 6 9 13 14 15 15 17 20 23 24 26 25
6 7 10 8 7 10 4 5 6 2 5 6 5 29 37 40 40 39 34 31 25 25 24 16 13 16 21 21 16 16 13 8 9 11 11 10 8 8 11 10 11 13 15 19 21 24 29 26 27
3 2 4 4 1 1 5 5 4 6 8 5 5 19 20 37 40 34 30 32 31 27 21 14 17 21 20 21 20 15 14 17 18 20 19 14 7 11 14 13 14 16 18 22 27 28 25 26 26
7 3 3 5 6 5 8 3 8 11 12 8 18 36 17 20 34 34 35 35 32 27 23 22 24 23 25 26 22 20 18 21 19 17 16 17 15 12 12 18 20 24 27 27 25 24 24 23 23
3 3 4 4 2 6 7 6 5 14 13 26 28 30 22 17 26 31 33 30 26 23 24 24 27 30 31 28 24 24 21 20 18 19 20 18 14 18 23 24 26 27 24 24 21 20 17 16 19
2 4 4 6 2 2 4 4 5 7 4 7 17 20 21 21 20 23 23 22 23 24 22 24 30 29 29 28 27 26 25 24 21 21 19 20 19 21 26 24 22 22 21 19 18 18 19 20 22
7 7 1 3 3 3 4 3 3 6 3 8 9 19 20 19 19 20 24 26 28 27 29 28 22 24 25 25 27 28 27 24 22 18 18 17 23 19 21 21 20 19 18 18 20 21 24 25 17
1 3 2 3 5 4 1 4 1 7 8 9 14 26 25 24 23 24 27 29 30 29 29 26 25 24 26 28 29 27 25 22 17 20 18 12 18 22 17 17 19 17 17 20 21 23 18 16 17
6 6 6 5 4 3 5 5 2 7 9 15 17 29 30 29 28 28 30 31 30 28 24 22 27 26 30 30 28 23 18 14 17 15 12 14 20 19 18 19 19 16 18 21 21 22 14 12 10

GFSSGP_850_spd_048.txt.gz
Wind_Speed
5 4 2 1 4 4 5 7 2 2 2 4 7 14 11 8 2 2 14 24 34 35 34 34 32 31 27 25 24 21 19 17 17 17 19 20 19 19 20 21 22 25 27 29 29 28 27 25 25
4 5 3 2 4 1 6 4 6 4 12 16 12 11 8 5 4 13 30 23 35 36 36 36 35 30 27 25 23 20 19 18 18 19 20 21 19 20 22 23 25 26 27 28 29 29 26 23 25
3 5 2 4 4 7 4 4 6 6 13 5 6 11 6 4 10 22 23 32 37 35 35 34 33 30 27 24 21 19 19 18 19 20 19 20 20 22 23 24 25 25 25 26 26 26 26 21 21
2 4 3 3 12 4 5 8 2 3 9 6 14 7 7 1 5 15 22 30 36 35 34 34 33 30 26 23 19 18 19 18 19 20 20 20 22 23 24 24 23 24 23 22 21 21 20 20 20
2 2 0 3 3 0 5 9 16 6 6 5 2 3 6 8 5 15 23 28 34 37 37 33 30 29 25 22 19 18 17 19 19 20 20 20 23 24 23 22 21 21 19 18 17 16 16 15 14
2 1 0 1 2 2 3 13 10 15 16 8 8 7 4 8 12 20 23 25 25 32 30 29 27 25 23 19 17 17 18 20 21 20 20 21 23 23 21 20 18 17 15 14 12 11 11 11 12
4 2 3 4 4 5 1 1 6 13 18 9 6 3 7 9 10 12 14 27 25 23 23 26 27 22 16 16 17 17 18 20 20 20 21 21 20 19 17 16 14 13 11 10 8 8 9 8 9
3 3 3 3 3 4 9 11 18 22 12 12 9 6 7 16 16 18 24 29 31 27 28 28 39 29 12 14 17 18 19 20 21 20 20 19 18 15 13 12 10 9 9 8 7 8 8 7 9
8 2 3 3 2 2 5 3 7 8 7 6 7 12 20 25 23 28 30 32 26 22 21 28 26 23 19 19 18 19 20 21 20 20 19 18 16 14 11 9 8 9 7 6 5 4 3 4 9
4 3 5 7 3 5 11 6 4 2 7 2 21 27 29 29 29 31 30 28 25 27 25 25 21 24 24 22 21 22 22 21 21 17 17 15 14 11 12 13 12 9 7 4 1 2 3 7 9
4 4 6 8 12 7 12 5 5 11 2 5 23 33 29 26 25 31 32 25 24 31 28 28 25 23 23 24 23 23 23 22 18 16 14 13 10 11 10 10 6 4 3 2 3 3 6 8 9
3 12 14 10 13 9 8 9 9 7 9 20 28 27 25 26 31 38 29 26 27 28 26 23 23 22 22 22 23 23 23 21 18 15 13 11 11 9 12 11 8 6 4 4 4 6 8 10 12
4 7 8 10 21 12 12 3 6 7 17 27 26 25 21 27 34 36 21 24 30 27 25 25 22 23 22 23 24 24 22 18 17 14 13 12 11 8 9 9 8 9 6 6 9 9 10 11 12
14 16 9 18 21 13 9 3 4 9 23 29 27 28 23 31 41 36 27 33 29 29 29 28 23 20 24 25 24 22 19 16 14 14 14 13 12 11 9 7 9 9 9 10 10 10 11 12 13
12 2 5 10 17 7 21 1 1 13 23 26 21 23 28 34 33 35 37 34 30 28 28 29 24 27 27 25 23 19 17 18 17 15 13 15 13 11 12 10 10 9 9 8 9 10 11 13 12
6 4 2 5 9 10 4 4 5 12 16 20 18 20 30 32 34 37 36 33 33 34 32 31 29 29 26 25 22 22 21 21 18 16 16 12 10 11 13 10 9 7 8 8 10 12 15 15 18
5 2 4 1 6 5 5 3 6 16 17 18 20 24 26 34 38 40 36 37 36 33 35 35 32 30 25 25 25 24 24 21 17 15 12 8 7 8 9 9 8 7 8 9 11 16 18 18 20
4 1 3 2 3 4 6 5 6 25 26 27 27 26 31 34 40 42 39 40 36 30 29 33 33 32 29 28 27 25 22 20 17 15 11 8 8 10 10 10 9 8 7 9 14 16 16 18 20
9 1 4 6 6 5 11 6 6 23 22 23 31 27 31 39 42 41 41 40 38 32 29 30 32 35 31 29 26 25 24 23 21 18 13 11 11 11 11 9 8 7 8 12 15 14 16 18 22
3 2 9 9 8 9 6 9 6 17 22 30 30 31 39 35 38 44 45 43 39 32 29 27 28 29 29 27 26 25 22 22 20 17 16 15 14 12 11 8 7 10 11 14 14 17 19 22 23
4 3 5 6 4 4 5 3 4 5 12 24 31 41 41 44 46 45 47 43 39 37 31 26 24 25 26 26 26 25 22 20 21 18 18 17 15 11 8 8 10 12 14 15 17 21 24 25 26
7 7 7 1 4 1 3 3 3 7 8 12 25 29 38 41 45 45 46 44 41 38 34 30 27 26 24 28 29 26 24 23 18 16 16 16 14 10 9 13 12 13 16 18 22 24 24 26 28
9 4 6 1 3 3 1 2 7 4 7 9 22 32 42 45 48 47 48 45 43 40 37 32 29 25 22 29 27 22 22 18 15 18 18 16 14 13 12 11 11 16 18 19 20 22 25 29 28
8 2 7 7 4 1 5 5 6 5 11 12 20 28 29 35 43 43 44 42 42 37 34 29 26 20 21 27 23 18 18 19 20 21 20 17 18 16 16 15 16 18 18 19 21 25 27 27 27
2 4 3 3 3 6 2 3 8 6 7 8 15 22 26 37 40 39 41 38 33 33 32 30 22 21 22 26 22 19 19 21 21 20 22 22 21 21 16 12 16 18 22 22 24 25 25 23 22
4 4 5 4 3 4 5 4 6 7 5 5 15 17 18 15 36 41 42 37 35 34 33 28 23 22 25 23 23 21 22 23 22 23 26 26 25 19 19 17 17 23 23 25 26 24 23 22 23
1 2 5 5 2 3 4 4 6 5 4 7 5 12 13 18 25 37 40 39 35 32 31 28 24 25 25 25 25 27 26 26 24 24 26 26 21 19 12 14 18 25 27 26 24 24 22 23 26
6 4 2 3 2 3 3 3 4 3 3 1 3 8 13 22 31 36 37 37 34 28 23 22 24 26 26 30 31 31 28 24 23 24 24 20 19 14 14 17 19 24 23 24 24 23 22 25 22
3 3 2 4 4 4 1 5 6 7 8 10 10 16 21 24 26 28 28 30 29 26 26 26 24 24 24 32 30 27 26 25 23 21 18 15 15 17 21 16 21 22 23 23 22 22 22 26 20
6 5 4 5 4 1 4 5 4 9 9 14 19 22 25 25 25 24 25 27 28 29 29 29 28 25 28 32 31 32 30 26 21 17 16 19 20 18 12 20 19 22 23 21 21 21 23 27 20

GFSSGP_850_spd_051.txt.gz
Wind_Speed
3 0 2 2 3 4 3 6 3 4 2 5 3 4 4 8 1 3 7 30 28 33 32 34 32 30 28 26 25 22 20 19 20 22 23 24 23 24 26 28 31 30 30 29 27 26 26 26 26
1 2 1 4 4 1 5 5 6 6 7 10 9 5 7 4 5 3 22 27 29 33 34 35 34 32 30 29 24 21 19 19 21 23 22 23 24 26 29 30 31 31 31 28 25 24 25 25 22
2 3 0 4 3 4 4 3 6 5 10 6 4 7 4 5 6 13 11 22 32 32 34 34 33 31 28 27 24 21 19 20 21 22 22 23 26 28 29 29 30 30 30 28 25 23 23 23 24
4 4 3 3 4 5 4 7 10 1 6 16 12 5 5 8 2 9 12 25 29 31 33 33 30 31 28 25 23 21 20 21 21 22 23 25 27 29 28 28 27 26 25 24 22 19 18 19 19
5 3 2 1 4 3 2 2 12 8 4 13 12 3 4 10 0 12 17 24 26 31 35 35 32 30 27 24 22 21 20 21 21 22 24 26 27 27 26 25 24 22 20 18 16 15 15 16 16
3 3 3 2 4 4 3 3 2 4 11 13 8 4 4 6 6 13 22 22 22 24 31 35 30 28 25 24 21 20 20 20 21 23 25 26 27 25 24 22 20 18 16 14 12 12 12 13 13
5 4 3 4 4 4 4 3 3 8 8 7 6 3 2 5 7 11 19 19 19 18 29 30 29 28 20 21 19 15 17 20 21 23 24 25 24 22 20 18 17 14 12 10 9 9 9 8 10
4 4 2 3 4 6 4 5 2 6 5 7 4 7 5 15 11 15 23 25 21 17 17 32 32 29 17 15 10 16 18 20 21 23 23 23 21 19 17 15 14 11 9 7 7 7 8 9 10
5 3 1 4 5 5 4 3 3 1 5 5 7 13 15 27 21 21 24 20 25 24 23 30 33 35 24 15 13 16 18 20 21 22 21 20 18 17 15 13 10 7 5 6 6 6 6 8 11
4 3 7 6 5 4 8 5 9 5 14 6 20 17 28 26 26 27 30 31 32 32 34 35 36 27 25 20 20 20 22 23 21 21 21 19 18 15 12 11 9 5 4 4 3 5 5 8 10
2 4 4 12 14 7 9 6 4 9 1 13 30 34 30 29 25 24 29 28 28 24 24 28 26 29 22 22 21 23 22 22 21 20 20 17 15 13 11 8 7 5 1 1 2 5 7 9 9
2 13 10 11 9 11 7 7 1 3 3 17 27 34 32 28 24 22 24 24 29 32 32 31 28 22 21 22 22 22 22 22 20 19 17 15 14 12 10 8 3 2 2 2 3 4 8 9 9
3 5 11 8 16 13 11 4 6 5 15 27 31 28 28 26 26 22 23 25 30 29 26 23 22 21 21 21 23 25 23 21 17 17 15 14 13 9 10 7 7 7 6 4 6 6 7 9 10
6 8 6 14 12 14 10 3 6 10 28 31 28 27 25 28 22 28 26 28 28 27 24 23 22 22 23 24 26 25 23 19 16 13 13 11 9 8 8 7 9 9 8 7 9 8 8 10 10
8 4 3 2 7 6 8 2 4 27 27 29 29 29 30 21 32 27 26 29 31 26 26 25 22 25 25 26 26 25 21 19 17 15 12 9 9 9 9 10 10 10 9 9 8 7 9 10 9
4 3 3 4 5 3 5 4 6 31 31 23 25 25 29 29 29 28 30 29 30 29 30 28 25 25 26 28 26 25 22 20 18 14 13 13 13 12 13 13 11 11 10 8 7 8 11 11 14
5 2 2 3 10 3 2 4 5 32 31 25 25 25 27 29 29 34 30 31 30 28 29 29 28 26 29 30 28 25 22 20 17 16 16 14 13 14 13 14 13 13 10 7 8 12 12 14 16
4 3 1 3 4 4 5 6 6 23 25 26 27 27 30 28 33 32 34 34 30 28 28 30 29 28 29 29 27 25 24 23 22 19 17 14 13 13 16 16 13 10 7 8 11 12 13 14 17
3 5 4 3 4 3 7 6 8 18 18 16 23 30 37 35 32 34 35 34 34 33 34 34 32 33 33 32 31 30 28 26 23 20 17 14 13 15 15 13 10 8 9 11 12 11 12 15 19
0 4 6 6 5 5 4 10 4 8 12 27 30 31 33 34 36 38 39 37 36 35 35 36 35 34 35 32 29 30 28 26 22 19 17 15 14 15 14 12 11 11 11 11 12 11 14 18 22
1 2 5 6 5 2 4 5 3 5 10 20 25 38 36 41 41 41 43 43 40 39 37 32 35 35 33 32 31 29 28 25 24 22 22 19 17 17 14 11 10 10 10 13 12 15 18 21 23
3 3 8 3 2 4 1 3 4 6 14 12 23 28 37 39 41 44 46 46 45 44 40 36 35 36 36 34 32 32 31 31 26 24 22 19 18 16 13 12 11 10 12 14 15 17 19 23 24
6 3 3 3 2 2 2 3 6 4 9 15 22 29 39 45 46 48 48 46 45 45 43 40 39 35 35 35 34 33 32 28 23 20 20 20 20 19 16 14 14 14 14 16 19 18 20 24 25
2 1 4 3 1 2 2 5 5 4 10 17 20 33 37 45 47 48 47 45 46 46 44 42 40 36 35 33 32 33 32 27 23 23 24 22 22 20 18 17 16 12 12 15 18 21 23 24 22
6 5 3 4 4 5 3 2 8 7 7 8 15 31 41 42 45 47 49 49 49 48 43 43 42 33 29 31 32 32 28 24 24 23 23 23 23 21 22 22 15 10 12 17 17 23 25 21 20
2 5 4 4 2 4 3 4 6 5 14 0 10 29 35 36 41 46 49 50 49 47 45 42 42 31 29 29 27 27 24 22 22 21 22 23 25 27 27 22 17 17 19 18 22 28 20 18 19
1 0 2 6 3 3 3 7 10 7 4 7 3 12 21 31 36 42 44 47 48 45 40 39 39 29 26 26 25 25 23 22 23 24 25 27 30 30 29 20 18 18 16 16 21 19 17 17 18
4 5 1 2 3 2 4 4 5 6 5 4 7 11 20 20 25 35 40 41 41 38 36 34 29 26 25 26 26 25 26 26 27 28 28 30 34 31 22 19 16 14 14 15 18 17 18 18 20
2 1 1 4 4 4 1 5 6 7 6 6 7 5 13 19 23 25 28 34 35 38 35 31 27 26 26 27 28 29 29 30 28 27 30 32 31 18 23 22 12 12 12 17 19 18 19 20 21
2 5 5 4 4 1 4 6 4 8 8 8 13 9 9 12 14 16 19 23 30 33 32 32 29 29 28 29 29 30 33 32 32 31 31 29 15 26 15 10 9 12 14 17 17 17 19 21 22

GFSSGP_850_spd_054.txt.gz
Wind_Speed
2 2 4 3 4 4 2 6 4 6 2 3 8 5 10 7 1 2 5 22 30 33 33 33 31 29 28 26 25 24 22 19 20 22 24 25 25 25 27 28 29 29 27 26 25 25 26 24 22
1 4 3 3 4 1 4 4 4 3 5 7 4 6 8 6 9 3 11 17 31 33 33 34 33 31 29 28 26 24 22 22 24 25 25 25 28 30 31 30 29 28 26 26 24 23 21 20 19
2 5 2 4 3 4 4 4 4 3 9 3 2 9 5 2 5 5 4 17 28 29 31 33 34 32 31 29 26 24 22 24 26 26 26 28 31 32 32 30 29 27 26 25 23 22 21 21 19
3 3 4 4 2 5 5 4 3 2 3 8 4 6 4 7 6 2 17 19 25 25 29 32 32 33 31 28 26 24 25 25 25 27 28 31 32 32 32 31 27 25 24 22 21 21 20 19 17
5 1 3 2 4 3 3 3 3 3 5 7 6 3 5 6 7 6 15 17 20 22 24 30 32 35 32 29 25 22 25 25 26 26 29 32 32 32 30 28 25 22 20 19 18 17 17 15 14
2 2 4 1 4 3 2 5 2 1 4 8 10 5 3 4 2 11 16 18 22 24 16 37 32 34 33 27 23 24 25 25 26 27 30 30 30 29 27 24 22 20 17 16 15 14 14 13 13
5 4 3 3 4 5 1 6 4 4 3 1 4 6 5 4 7 13 16 13 13 18 17 26 28 27 31 24 23 21 23 24 24 27 28 28 27 25 23 20 18 16 15 12 11 10 11 10 10
4 4 1 3 3 4 1 4 5 2 1 3 3 7 7 14 12 12 14 15 20 20 26 34 35 30 23 21 20 21 21 20 24 27 27 26 24 22 20 17 14 12 11 10 10 8 8 9 10
3 4 2 4 3 5 4 1 3 1 2 3 2 8 13 19 14 15 18 20 20 23 21 21 29 38 26 19 16 16 16 19 24 26 25 23 21 19 17 14 11 10 9 8 6 5 6 9 12
4 3 6 6 4 4 5 8 5 3 3 5 6 9 18 18 17 19 24 23 20 24 16 30 38 37 34 26 18 18 18 21 24 25 23 21 18 16 13 11 9 7 5 5 4 4 5 9 11
6 6 5 7 17 11 6 3 3 7 2 10 16 26 29 21 17 19 23 24 25 24 31 37 35 34 34 26 26 21 21 23 23 21 20 19 16 14 12 9 7 4 4 2 1 3 7 8 10
2 10 10 8 4 9 9 7 6 6 4 10 20 27 27 21 21 24 27 30 32 35 36 41 38 29 33 28 24 21 22 23 23 22 20 17 15 13 11 9 7 4 2 2 3 5 7 9 11
4 5 4 8 8 9 13 5 5 4 8 17 22 21 19 19 19 22 27 27 24 39 40 31 36 28 26 24 21 23 25 23 21 20 18 16 13 11 9 8 6 4 4 5 5 6 7 9 10
4 7 5 6 8 10 7 5 3 4 17 21 20 19 15 17 20 24 23 25 25 32 30 33 31 21 21 24 24 25 25 24 21 19 16 13 13 10 12 9 7 8 7 7 7 7 7 10 9
5 4 4 1 4 4 12 3 3 15 19 21 16 17 17 19 24 22 23 26 28 30 27 26 23 20 21 22 23 25 25 22 19 16 16 13 12 11 11 10 9 10 10 9 7 6 9 10 9
3 4 2 0 2 3 3 4 2 22 25 22 19 18 21 20 18 24 24 26 28 28 24 22 21 22 21 21 23 25 24 21 18 16 16 14 11 9 10 11 12 12 11 9 8 8 9 9 9
5 2 2 4 6 2 4 1 7 26 21 20 22 24 26 25 22 27 24 24 27 26 23 23 20 19 21 23 25 26 24 21 18 18 16 12 10 12 12 13 13 13 12 9 8 8 10 9 11
1 1 4 4 5 4 3 7 6 22 22 22 26 27 25 25 27 27 24 24 26 27 24 24 23 22 23 25 27 27 24 22 22 20 17 13 14 16 15 16 16 13 11 8 8 9 8 9 12
3 2 4 5 2 4 7 7 9 19 17 17 22 27 29 28 20 25 28 26 25 28 27 28 28 26 25 28 29 28 27 27 25 22 16 17 17 16 17 17 14 12 11 9 8 8 8 10 13
3 2 3 6 3 3 2 7 7 15 21 27 29 31 34 31 28 29 29 31 30 29 26 28 29 29 27 28 29 29 26 27 25 23 19 19 18 17 16 15 14 14 11 8 8 7 8 11 15
1 1 3 3 6 1 1 3 4 6 9 19 25 36 32 33 31 31 33 34 32 33 31 28 28 29 29 30 30 30 30 32 29 25 23 22 19 17 17 16 16 13 10 10 8 8 10 12 17
2 3 1 4 2 3 3 4 4 4 12 10 23 29 34 35 34 33 35 37 38 37 34 32 32 31 31 33 33 35 34 33 30 27 23 21 20 20 19 18 15 12 11 10 9 9 12 15 19
7 4 2 2 2 3 2 2 6 1 5 11 18 29 37 39 39 39 40 39 39 39 36 34 34 34 34 35 36 36 35 34 30 25 23 21 22 22 20 18 16 14 13 11 8 10 14 18 20
4 4 5 4 3 2 4 4 5 4 7 6 14 28 39 43 43 43 41 41 41 42 41 38 36 35 36 36 36 37 37 35 29 23 23 24 25 24 23 20 19 19 17 13 13 19 15 20 25
4 5 3 4 3 5 1 1 8 6 5 7 11 29 40 45 43 42 41 42 42 42 43 39 41 41 39 39 39 39 37 34 25 23 24 24 26 26 26 25 25 25 23 19 14 18 21 20 23
2 6 5 2 2 4 3 4 5 3 10 8 11 20 34 41 45 44 44 43 44 43 42 40 41 41 42 42 39 39 39 31 24 23 21 21 24 24 26 28 27 25 18 14 18 17 19 19 17
3 2 4 6 2 2 3 6 10 3 2 5 5 6 19 30 39 46 44 46 46 44 44 42 41 41 42 42 37 36 36 26 26 22 22 23 26 28 30 31 31 22 21 18 18 16 15 15 16
2 5 3 3 1 3 4 4 5 7 7 6 5 3 6 15 25 34 40 43 45 44 45 44 43 42 40 33 34 25 23 24 25 26 28 29 29 31 33 32 23 22 20 12 10 16 14 15 15
2 0 5 5 4 3 1 5 7 6 5 5 5 5 2 9 13 22 27 32 34 36 38 40 38 39 37 32 26 24 25 27 30 31 31 30 30 32 31 22 22 22 14 13 9 13 17 16 15
4 7 6 5 4 1 3 6 5 8 6 5 10 6 6 3 9 14 17 20 22 26 28 28 31 33 30 26 24 24 27 31 33 36 31 30 30 30 26 25 21 16 6 7 12 18 15 15 16

GFSSGP_850_spd_057.txt.gz
Wind_Speed
3 3 4 3 3 1 2 4 2 4 3 1 3 2 2 6 3 2 7 18 26 32 34 33 35 35 34 33 32 30 27 25 23 23 23 23 23 23 25 26 27 29 28 27 26 24 22 19 18
2 5 3 2 2 4 4 2 5 3 4 3 4 4 6 3 4 0 6 14 26 32 33 32 32 33 34 33 31 27 25 24 25 25 26 25 25 26 28 28 28 28 28 26 24 21 19 17 16
3 6 1 2 2 4 2 4 1 2 1 1 6 6 8 7 6 1 5 15 30 33 32 31 31 32 32 30 28 26 25 26 26 26 27 27 28 29 29 28 28 27 26 24 21 19 18 16 14
3 2 4 1 3 4 4 2 1 3 2 2 8 5 5 3 7 6 10 20 30 30 32 29 32 33 31 31 29 28 27 28 27 29 31 31 30 29 29 28 26 25 24 22 20 19 18 15 13
4 2 1 1 4 4 4 5 1 4 2 1 8 6 6 2 2 5 12 17 19 27 24 28 29 33 35 33 31 30 31 29 29 32 33 32 30 29 28 26 25 23 22 21 20 19 16 14 12
2 2 1 2 5 4 2 2 2 1 3 4 6 8 4 7 3 9 11 16 18 20 25 25 29 35 26 35 34 34 32 31 33 33 34 32 30 27 25 23 22 21 20 19 18 16 14 11 11
2 2 2 3 5 4 2 5 2 4 3 1 5 5 8 11 8 8 11 11 18 20 15 23 32 41 34 20 25 30 29 31 33 36 34 32 29 25 22 21 18 17 16 16 15 13 12 12 11
2 1 1 3 2 4 2 2 4 4 2 2 2 5 7 14 16 13 9 10 11 15 22 23 26 27 27 25 14 21 27 29 32 32 32 30 27 24 21 18 15 14 14 13 12 11 11 10 9
3 1 2 4 3 4 3 4 4 3 3 3 1 4 7 19 14 11 17 19 17 18 21 22 24 27 25 41 24 17 25 25 29 30 30 28 25 22 19 16 14 12 11 10 9 8 7 8 10
3 2 6 6 4 5 5 3 4 2 2 1 1 5 15 16 14 14 19 23 29 31 33 31 40 31 45 45 38 31 21 25 28 29 27 25 22 19 17 15 12 11 9 8 5 4 6 8 10
4 4 3 10 16 8 2 2 5 4 4 6 8 17 20 14 15 15 19 21 25 23 22 23 30 40 40 39 35 27 27 29 29 27 25 22 20 18 15 13 11 10 8 4 2 2 5 9 10
3 11 10 7 7 6 5 5 6 5 3 6 9 19 19 19 16 14 16 16 19 22 28 38 35 39 37 29 25 26 23 25 26 26 23 20 17 15 13 12 10 7 5 3 1 2 6 8 10
4 5 7 10 10 6 7 3 3 3 3 7 14 18 18 16 14 12 17 20 23 33 39 42 38 35 28 26 26 26 24 26 25 23 21 18 17 15 14 12 9 7 6 4 2 5 5 8 9
5 7 7 4 3 4 4 3 1 3 8 12 17 18 13 13 17 15 18 21 20 32 29 34 30 26 23 24 24 21 23 24 23 22 19 17 16 15 14 13 10 8 7 5 4 5 5 7 9
4 5 2 3 3 2 8 0 2 9 10 12 15 13 17 15 18 20 21 19 24 33 34 30 28 26 24 21 19 20 22 22 23 21 20 18 17 16 14 14 12 10 8 7 5 6 6 7 7
1 2 3 1 6 4 3 3 3 12 12 12 11 14 14 19 19 20 21 21 29 32 28 31 29 19 19 20 21 22 25 24 22 20 21 19 17 18 15 14 12 11 11 8 8 6 4 6 6
3 2 2 1 4 4 4 3 6 14 13 12 13 13 13 16 19 19 19 22 28 31 29 30 28 22 20 21 22 23 23 24 23 20 19 19 17 15 14 11 11 13 12 9 8 7 6 6 7
3 1 2 2 2 3 4 8 7 16 16 16 13 14 17 18 22 20 21 21 25 29 26 24 22 19 19 21 22 24 26 25 24 22 21 20 18 14 12 13 14 15 12 13 10 9 7 6 8
3 1 2 1 2 4 6 9 8 17 16 16 18 17 19 22 19 20 23 22 24 27 27 25 24 22 23 26 27 27 29 27 26 24 21 21 16 15 14 17 16 16 15 13 11 9 6 7 8
4 1 2 3 2 4 1 8 4 18 23 26 24 23 24 22 22 23 25 29 28 28 30 29 27 26 25 24 26 28 27 29 27 25 25 23 18 17 19 18 18 17 17 14 11 8 6 7 8
4 4 4 1 1 1 3 4 2 7 15 19 22 24 23 25 24 26 30 32 32 31 31 30 29 29 29 28 26 29 30 29 30 29 27 22 19 20 20 20 19 18 17 15 12 10 8 6 10
3 5 5 2 2 2 3 3 4 4 11 13 23 24 27 27 30 29 31 34 35 33 31 29 28 28 30 30 29 30 31 30 29 29 26 22 22 22 22 22 21 20 20 17 14 13 9 8 10
5 2 2 2 3 1 2 3 3 0 7 16 23 28 30 30 31 34 36 34 33 33 33 30 29 28 29 30 32 31 33 33 31 30 26 23 24 24 24 24 23 23 20 18 17 14 11 9 15
4 3 5 3 2 1 1 3 3 5 5 3 13 25 30 34 34 34 32 32 33 33 33 32 32 31 31 30 32 32 33 33 33 31 27 25 26 28 27 26 25 24 22 22 21 17 14 14 16
2 3 0 1 1 3 3 2 7 3 7 8 9 15 27 39 38 36 35 35 34 35 35 35 35 35 35 34 35 32 31 33 35 34 28 27 30 31 29 28 27 26 25 24 20 15 14 13 18
4 3 4 3 3 1 0 4 3 3 10 9 10 14 13 26 39 41 40 38 37 36 36 37 38 39 39 37 37 29 18 34 36 35 31 28 29 29 28 29 29 29 28 28 21 22 16 12 13
4 2 1 6 2 0 2 5 8 3 4 4 7 8 7 11 23 34 41 41 40 39 36 36 36 38 41 37 38 34 29 36 37 36 31 26 26 29 31 30 29 32 30 25 25 22 14 11 13
1 8 3 1 3 3 2 3 4 4 3 4 3 5 7 4 9 18 26 33 38 38 36 35 35 35 37 37 37 35 32 34 33 33 29 29 28 30 29 30 33 31 25 23 20 12 8 12 13
3 2 3 4 1 2 2 3 6 5 2 4 3 2 3 3 3 6 11 17 23 30 32 31 32 33 34 35 33 32 32 28 29 28 29 27 25 21 34 30 27 23 20 17 14 10 12 10 15
2 6 5 3 3 0 1 5 3 6 5 8 10 6 2 2 2 3 6 10 13 15 17 19 22 23 25 27 28 26 24 24 24 26 28 31 32 29 28 28 28 24 19 18 15 12 12 14 14

GFSSGP_850_spd_063.txt.gz
Wind_Speed
4 4 4 9 8 8 17 21 15 7 10 10 7 9 18 25 4 5 35 2 8 20 24 30 28 28 30 34 32 30 27 25 22 19 19 22 23 24 24 25 26 25 25 24 22 20 19 18 18
3 5 7 14 9 13 14 11 1 6 13 15 9 9 15 13 7 2 6 10 11 21 27 27 29 31 32 34 32 30 27 25 23 21 24 25 25 25 26 27 26 24 25 23 22 20 18 17 17
4 6 14 11 13 15 11 2 11 8 3 10 10 7 2 8 1 3 4 9 12 21 28 29 34 33 33 35 33 31 29 25 23 26 27 26 26 27 27 27 26 23 23 22 21 18 17 17 16
4 8 11 9 17 14 6 11 6 9 6 8 11 5 5 2 2 2 7 7 13 20 28 33 34 36 35 35 33 31 28 25 27 29 28 28 29 29 28 28 26 22 22 21 19 17 16 15 15
7 12 10 15 16 7 6 4 8 10 8 7 8 20 9 4 7 4 4 11 18 24 25 38 35 33 36 35 33 29 27 28 30 30 31 31 30 29 29 29 25 22 21 20 18 16 14 14 14
15 7 12 13 4 4 3 5 2 8 9 4 13 16 8 3 6 4 4 10 12 17 18 8 34 28 29 27 25 25 28 30 30 31 32 32 31 29 26 24 23 21 19 18 16 14 13 12 13
14 11 14 13 10 6 3 4 2 7 9 10 8 11 5 3 2 1 7 3 7 14 13 19 22 28 30 30 25 20 21 26 28 32 33 32 29 27 24 21 20 20 18 16 14 12 12 12 13
11 8 16 11 7 2 2 2 4 9 14 8 7 7 4 9 6 5 3 4 3 9 19 38 41 28 28 21 19 21 16 22 29 31 30 30 28 26 22 20 19 17 16 13 12 10 11 11 12
10 11 12 4 6 4 9 1 7 1 13 6 5 11 2 7 11 6 11 13 14 24 34 41 39 35 34 31 21 32 34 26 28 28 27 27 25 23 21 19 17 15 14 11 10 8 9 9 11
12 12 8 8 9 8 12 9 5 7 18 15 7 2 4 12 14 15 15 18 27 32 39 39 35 40 37 22 33 38 33 28 30 30 28 24 23 22 18 17 16 14 12 9 7 7 11 13 8
13 13 8 5 6 12 13 7 9 14 4 20 3 11 10 12 11 14 19 22 28 32 30 30 36 36 25 36 37 36 32 34 33 29 25 23 20 18 19 18 15 13 11 9 7 7 8 4 3
9 14 12 10 8 11 13 12 8 12 15 6 9 13 13 11 11 11 16 22 27 32 34 37 32 26 29 30 37 35 34 34 33 28 24 24 17 17 18 15 15 14 9 8 6 6 1 1 2
11 13 11 11 14 12 10 12 7 2 7 12 13 12 11 8 8 10 15 17 22 27 28 28 31 26 29 37 35 35 35 30 25 27 23 21 16 17 14 14 13 11 11 9 8 3 2 1 2
8 10 16 14 15 9 11 11 8 10 11 14 15 12 10 9 7 12 15 17 22 22 23 27 23 22 33 35 31 29 26 22 28 26 23 18 16 19 15 16 13 13 11 9 7 5 2 3 1
12 14 18 13 14 13 10 15 22 13 12 15 15 14 10 8 9 11 19 21 19 22 22 21 27 35 29 23 23 20 17 19 19 16 16 18 17 16 15 14 13 12 11 11 10 8 6 4 4
15 16 17 8 10 9 9 3 25 11 14 14 13 13 12 10 13 11 17 19 21 21 27 27 27 25 19 18 19 18 17 17 17 18 17 20 19 17 16 13 15 16 14 13 10 8 6 7 7
15 16 8 12 12 6 11 8 24 12 10 13 13 13 13 13 13 14 15 19 24 27 26 27 24 21 18 18 17 15 17 19 19 17 16 17 19 18 18 19 16 18 15 14 12 9 10 9 7
11 14 14 8 8 8 13 16 13 6 10 12 13 13 14 15 16 17 19 22 22 24 25 25 23 21 19 17 16 15 15 16 17 18 16 20 20 19 19 17 20 20 17 17 13 11 10 8 8
11 11 9 8 5 7 8 19 9 13 9 11 13 15 14 16 17 19 20 22 23 23 24 23 23 22 20 17 17 17 18 18 19 18 19 20 19 21 21 17 19 20 18 15 15 13 12 9 10
11 13 12 3 3 6 6 18 5 8 10 13 15 15 17 18 19 20 23 24 25 26 25 23 22 22 20 18 18 18 18 19 19 18 18 20 20 23 23 21 20 22 18 18 19 16 11 11 10
11 14 2 2 17 13 14 17 9 8 13 14 13 14 16 20 22 23 25 26 26 27 27 25 24 23 21 19 18 18 18 19 20 20 19 23 23 24 23 21 24 24 24 24 22 19 16 13 11
13 11 8 10 10 8 15 3 18 13 13 13 17 19 22 22 22 24 26 28 28 28 28 27 26 25 24 23 21 22 21 22 21 21 21 28 23 27 24 23 26 27 25 28 23 20 17 16 15
14 5 7 11 12 15 14 7 10 12 10 14 17 23 23 24 26 26 28 28 28 28 29 29 28 27 25 24 24 22 22 20 18 19 21 25 21 24 23 25 32 28 28 29 26 21 19 16 17
6 7 10 11 11 11 7 12 6 10 11 7 17 21 24 23 25 26 26 26 27 27 28 28 28 29 28 26 26 26 24 23 21 22 24 24 21 25 25 29 30 28 31 29 29 22 18 25 24
11 13 9 8 3 8 10 6 7 13 4 1 2 9 20 23 24 25 27 29 29 31 31 29 29 29 29 29 28 28 28 25 25 23 23 18 22 25 29 27 30 32 33 29 23 22 26 24 21
16 16 7 8 6 2 6 6 4 7 3 1 4 6 8 13 23 29 29 30 30 31 31 31 30 29 30 31 29 27 27 27 26 28 23 26 24 28 25 28 29 31 31 26 24 30 27 25 24
12 15 9 7 2 3 6 7 6 6 4 3 1 4 5 6 14 23 29 29 29 29 31 32 29 28 28 29 28 29 29 29 26 30 29 27 28 31 29 30 28 28 23 27 32 28 28 27 25
8 10 8 7 4 8 6 7 5 7 4 6 5 5 5 4 3 10 20 28 27 27 27 27 27 27 26 27 29 30 32 31 29 27 28 30 29 25 22 23 28 29 30 34 27 29 28 24 24
12 10 9 4 7 5 5 4 4 3 6 4 1 2 3 4 4 5 9 18 25 24 23 25 25 24 23 24 27 28 31 28 28 28 30 29 26 23 22 27 27 26 27 20 26 26 24 23 19
13 18 17 9 11 7 8 11 4 6 8 6 8 4 3 2 2 4 6 9 14 20 23 22 22 21 21 21 20 25 23 20 21 18 20 22 23 23 25 27 24 13 14 20 26 20 16 12 17

GFSSGP_850_spd_066.txt.gz
Wind_Speed
6 5 3 11 6 8 16 18 20 22 9 9 11 4 10 25 14 4 10 14 13 32 12 21 26 28 31 32 31 28 26 24 21 19 17 20 23 25 26 25 25 25 24 23 22 21 21 21 22
5 9 10 16 10 12 13 10 10 13 9 6 5 3 13 20 6 6 13 18 13 30 17 20 24 26 30 32 30 28 26 24 22 19 21 24 26 27 28 25 26 25 24 22 21 20 21 21 21
6 6 13 11 13 14 16 3 9 8 13 8 11 9 9 11 15 6 10 9 11 21 23 25 26 27 30 32 31 29 27 25 22 22 25 26 28 29 27 25 25 25 24 22 21 19 20 20 21
6 12 12 9 14 17 17 17 3 8 24 28 21 15 5 23 5 4 2 7 6 18 21 19 27 31 35 36 33 30 28 25 23 26 27 28 29 30 28 26 25 24 23 21 19 18 18 18 20
12 13 11 16 19 18 11 10 11 11 9 19 29 14 9 31 9 1 3 4 13 17 23 19 25 34 35 38 37 34 30 27 27 28 28 29 30 30 27 26 25 23 22 20 18 17 17 17 18
17 20 13 13 13 7 12 5 7 5 9 22 8 10 2 12 13 1 4 2 9 15 21 20 24 21 33 41 41 37 32 31 30 29 27 30 31 31 27 25 24 22 20 19 18 16 15 16 17
14 11 15 18 18 6 11 7 8 6 8 5 2 5 11 3 5 6 4 6 10 18 18 12 5 24 27 36 33 29 34 32 31 30 30 29 30 29 25 24 23 21 18 17 16 16 14 14 16
17 10 19 17 11 8 8 13 7 8 11 9 4 6 7 6 3 2 5 7 11 14 16 17 15 25 21 12 27 23 22 28 30 31 32 30 28 25 23 22 21 19 16 15 15 14 13 13 15
14 11 14 13 11 10 9 8 13 4 8 20 29 16 5 8 7 2 6 9 9 16 20 21 25 21 15 24 19 25 21 21 28 29 28 29 26 23 22 21 20 17 15 13 12 11 13 13 13
11 12 19 10 10 12 9 16 6 4 17 14 30 11 6 12 14 12 10 10 11 12 18 27 32 20 20 24 21 26 34 33 28 29 30 29 26 22 20 19 17 15 13 11 11 12 13 12 9
16 14 17 16 8 11 16 19 9 11 5 7 12 12 13 10 10 13 13 15 16 18 29 33 32 22 27 27 23 34 35 30 30 29 29 26 22 19 18 18 16 15 12 10 9 8 9 9 7
15 14 18 19 16 13 12 16 18 4 3 4 19 15 14 13 10 12 16 20 22 22 24 25 28 31 24 26 34 40 34 30 32 30 25 24 20 19 17 16 16 14 11 8 6 5 4 6 2
12 14 16 22 14 18 15 11 17 13 20 17 16 13 13 11 11 12 13 17 24 26 25 29 36 25 24 34 39 40 31 32 32 28 24 27 22 16 17 16 14 12 8 7 8 5 4 3 2
18 16 16 19 23 14 13 5 7 26 35 15 12 12 11 10 12 13 12 17 19 21 23 29 23 26 30 35 33 34 30 34 29 26 25 21 17 15 13 13 12 11 12 11 9 5 2 2 1
19 17 17 19 20 13 17 10 3 13 9 7 11 11 11 8 9 11 13 18 21 23 23 30 25 27 29 27 30 27 27 28 26 22 22 21 17 18 19 19 13 16 12 8 8 10 6 7 2
17 17 16 14 6 15 13 7 5 7 6 12 11 12 12 13 14 8 13 13 16 21 27 20 23 31 31 27 27 27 31 21 19 17 22 22 20 15 17 17 19 15 14 17 16 12 9 7 5
16 15 19 16 10 14 8 2 8 21 15 22 15 14 12 20 16 13 16 17 18 18 22 33 40 39 35 32 33 24 23 23 22 19 20 23 22 20 22 16 19 20 20 17 13 11 8 10 10
16 11 20 12 9 12 11 15 13 15 28 34 19 17 14 23 24 17 22 23 24 32 35 38 31 23 25 27 25 24 20 25 22 23 19 18 21 23 20 23 23 20 20 17 19 13 13 13 9
16 13 15 4 4 4 9 9 16 25 29 23 21 22 24 18 27 20 30 23 25 29 31 31 28 27 26 30 25 22 22 23 22 19 20 22 20 22 23 23 21 21 20 21 18 17 17 16 16
12 14 15 2 2 3 11 7 21 17 14 15 19 21 22 22 29 27 28 27 27 33 28 31 32 30 28 22 24 23 23 20 24 25 20 24 24 22 25 22 21 23 19 22 20 21 20 18 20
13 14 3 18 4 13 13 13 9 2 13 10 18 20 25 24 28 30 32 32 35 36 37 36 30 30 29 27 21 22 23 21 23 26 25 27 30 29 24 22 24 25 22 24 25 26 23 20 22
14 10 11 11 10 7 6 9 11 11 11 13 14 18 21 24 26 29 31 33 34 34 34 33 33 31 30 29 28 27 26 27 26 26 26 28 28 25 26 24 21 26 27 24 28 30 29 26 25
13 6 11 10 12 14 10 5 11 13 15 14 13 17 21 21 25 32 33 33 34 34 35 32 32 31 30 26 27 26 26 24 24 24 25 24 25 22 23 23 22 24 28 29 31 33 30 26 27
10 9 9 12 11 11 14 6 9 5 10 11 20 24 23 28 29 28 33 33 34 33 34 34 32 32 30 30 29 27 28 27 24 24 23 27 27 23 22 21 26 20 32 33 33 33 28 28 25
9 10 7 6 8 8 6 9 7 12 12 14 8 27 30 27 29 31 33 37 36 37 37 36 36 35 32 31 30 28 27 26 26 24 24 31 27 24 20 29 29 29 29 30 31 32 34 30 30
14 14 8 6 3 4 12 6 5 10 11 6 2 3 15 27 28 28 32 37 38 39 39 39 38 37 35 35 32 28 26 29 25 28 27 35 32 29 24 26 28 25 24 30 34 34 33 31 30
14 13 16 9 9 5 5 14 6 9 5 8 5 2 10 12 17 32 30 30 36 38 40 40 38 35 35 36 37 36 30 35 29 34 36 38 35 31 24 26 28 26 27 27 28 31 32 28 29
16 9 10 6 4 6 6 7 3 8 6 8 8 8 7 2 4 13 29 35 33 35 37 38 36 34 34 34 36 38 37 37 35 33 35 33 31 31 27 24 27 30 28 26 28 29 26 26 30
11 11 11 13 7 1 4 2 2 7 6 7 6 9 6 6 7 3 7 16 34 32 34 37 37 35 32 33 36 34 36 37 34 30 31 28 28 27 27 24 28 25 24 26 25 24 23 27 26
17 17 15 6 8 5 2 5 4 11 5 9 9 8 6 5 7 8 7 9 11 29 29 32 33 31 31 31 30 34 33 36 25 26 28 22 26 23 26 24 20 22 20 18 17 22 25 20 16

GFSSGP_850_spd_069.txt.gz
Wind_Speed
3 1 3 5 2 2 7 12 15 11 3 3 2 4 4 4 2 3 11 5 11 12 15 20 20 26 30 32 30 30 29 26 25 22 23 28 29 29 29 30 30 29 27 26 25 25 27 29 29
4 4 7 6 2 4 7 15 9 1 8 3 4 4 3 9 24 8 3 1 15 18 23 28 26 35 32 32 30 29 29 27 24 23 28 30 31 31 30 30 30 28 27 26 25 25 26 28 29
3 6 4 3 4 8 9 15 10 9 28 20 11 18 9 9 17 15 13 12 3 11 25 22 27 35 37 35 33 32 31 29 26 27 31 33 30 31 31 30 29 27 26 25 25 25 26 29 27
1 4 8 2 14 17 15 14 6 6 13 23 15 8 5 11 14 18 19 4 6 0 5 13 27 41 38 37 37 36 33 30 29 33 35 35 31 32 31 30 28 26 25 24 24 24 25 28 26
6 6 3 6 13 16 15 6 12 5 5 8 12 3 7 6 11 21 23 10 13 6 8 15 25 30 26 37 40 37 35 31 32 35 37 36 33 33 32 30 28 25 24 24 23 23 24 26 26
5 5 6 11 14 15 3 14 15 5 7 3 2 4 3 7 5 16 15 10 12 7 10 10 18 30 12 37 45 41 37 35 37 37 38 36 34 33 32 29 27 24 23 23 21 21 22 24 25
11 3 7 10 15 12 4 12 7 4 9 3 7 4 2 2 8 8 12 9 6 11 16 16 14 18 11 32 41 36 36 38 38 37 38 36 34 33 32 29 26 24 22 21 20 19 20 22 23
21 2 8 10 12 7 4 2 3 5 8 18 12 6 8 14 8 8 10 10 9 11 10 11 12 16 15 20 16 26 29 31 29 33 38 36 33 31 30 29 25 22 21 19 19 19 18 20 21
22 3 8 14 15 3 4 2 4 8 13 9 3 3 10 6 7 5 8 13 15 17 15 19 18 15 11 15 29 27 27 25 27 29 33 35 33 29 28 26 23 20 19 17 17 18 18 17 17
3 4 11 17 9 6 1 7 7 6 7 7 15 11 8 10 8 9 8 11 14 16 17 16 14 16 15 27 30 25 38 29 25 28 30 32 31 29 26 24 22 18 16 16 16 16 15 14 11
16 10 16 16 25 15 7 9 28 10 11 28 5 17 12 9 8 5 7 9 13 17 20 22 23 20 22 22 29 31 36 32 33 30 29 29 29 26 23 22 19 17 14 13 13 11 9 10 7
5 21 16 16 24 13 5 8 10 28 8 29 8 4 6 12 8 9 12 13 13 20 26 25 22 21 24 29 28 40 35 36 32 31 30 28 26 24 21 18 17 14 13 10 9 8 6 7 6
9 11 15 21 20 19 15 10 11 10 4 11 12 5 8 10 8 7 12 15 16 17 21 26 26 19 23 30 35 40 37 31 31 30 28 25 23 21 18 17 16 13 12 8 7 5 5 5 5
21 20 15 21 20 23 10 8 6 4 5 17 13 10 12 10 10 12 14 16 16 18 22 25 23 22 24 29 43 43 36 33 30 29 25 24 19 16 15 14 13 13 11 8 7 5 5 5 4
20 12 10 11 20 12 18 3 6 8 12 16 15 13 14 13 10 10 15 18 19 21 24 26 23 23 27 34 45 40 35 32 29 27 23 18 16 16 16 16 14 14 11 9 10 8 5 4 4
8 9 6 12 11 17 10 3 6 18 16 15 20 17 17 19 17 14 15 16 17 21 28 24 22 27 25 35 43 36 36 30 29 28 24 21 18 16 14 14 13 14 13 14 11 10 8 7 7
5 10 13 19 17 6 6 3 10 16 14 13 19 19 19 20 18 14 15 13 18 22 24 25 25 28 30 35 38 31 29 28 22 23 22 19 19 17 18 17 16 18 17 17 16 15 13 11 10
8 9 11 7 1 6 3 7 5 14 15 12 10 13 23 26 16 15 14 14 18 21 25 23 32 37 38 37 31 31 24 25 20 23 23 21 21 21 19 19 18 20 20 20 20 19 16 13 14
16 18 8 5 5 7 6 6 9 14 19 17 27 23 31 30 20 19 18 19 22 23 28 35 36 37 35 32 34 36 31 24 24 24 24 22 22 25 23 22 23 22 21 21 22 20 19 19 20
18 12 9 2 7 2 5 5 10 10 7 21 30 28 33 29 28 25 26 27 28 35 40 34 34 34 34 40 31 26 28 27 26 26 26 24 22 21 23 24 24 25 24 23 23 24 25 24 25
12 5 7 6 5 7 4 7 5 10 12 24 30 37 37 43 39 35 30 34 34 35 35 33 32 31 33 33 29 31 27 25 27 30 27 24 24 25 23 21 25 27 25 22 24 26 27 30 28
5 10 10 4 4 3 5 5 3 6 13 15 30 34 36 44 42 41 36 36 36 36 33 32 32 31 33 32 33 33 32 30 29 30 29 27 28 28 29 29 29 31 28 25 24 25 27 30 28
9 5 1 5 5 4 4 2 5 9 10 8 11 34 38 44 44 44 39 37 35 35 35 34 35 37 37 34 30 30 30 30 27 28 28 31 32 32 30 30 32 31 31 28 24 21 28 34 30
8 2 3 3 1 4 4 4 7 5 9 13 10 32 39 40 45 44 40 37 35 36 35 34 39 36 33 33 38 35 32 32 34 31 33 34 35 34 33 30 29 29 29 26 25 24 28 35 33
6 2 3 4 2 5 5 6 9 10 8 9 13 30 40 39 43 43 46 47 43 44 45 41 40 41 39 37 36 41 38 36 37 34 35 36 37 37 35 32 29 27 26 25 24 28 27 30 33
6 8 5 5 3 3 6 5 6 8 10 7 14 37 39 40 43 48 49 47 47 48 48 47 44 46 47 45 44 43 42 39 40 37 38 39 41 37 35 34 26 22 22 25 27 26 29 31 30
5 6 7 6 2 4 4 7 6 4 5 7 8 26 32 37 42 45 49 49 48 47 48 47 48 48 49 49 48 43 43 42 44 39 40 39 37 33 33 34 25 23 24 25 22 23 25 28 27
7 4 3 3 4 3 8 7 2 4 8 7 6 6 10 26 37 45 46 49 48 47 45 46 45 45 46 48 48 47 44 42 38 40 37 40 36 26 36 38 27 25 22 21 21 21 23 24 23
5 9 4 6 6 5 2 4 4 7 6 7 8 14 12 8 4 6 20 43 46 48 48 47 47 45 43 42 44 46 45 42 38 37 33 24 31 36 37 32 30 23 20 22 22 20 22 20 20
14 10 8 5 5 4 5 5 6 10 5 11 14 17 17 14 9 5 4 5 36 47 47 48 46 47 45 41 39 41 42 43 31 36 30 32 31 26 22 21 22 21 22 20 21 20 19 19 20

GFSSGP_850_spd_072.txt.gz
Wind_Speed
2 3 3 2 4 4 4 7 3 10 6 3 9 6 14 16 4 4 11 6 7 21 22 26 31 33 29 21 27 30 30 29 26 25 27 29 30 31 33 33 32 30 29 28 27 28 27 25 23
3 3 2 1 4 0 5 6 3 5 6 2 9 8 7 4 8 7 6 6 11 15 18 28 33 34 29 15 25 32 32 30 28 27 32 34 34 34 35 33 31 30 29 29 29 29 26 22 20
2 3 1 3 3 4 4 3 5 6 5 5 7 8 5 3 4 5 3 5 13 16 16 23 29 25 22 22 38 36 36 32 29 33 34 35 36 37 36 34 31 29 30 30 30 29 27 21 20
2 1 2 3 7 11 7 21 24 7 9 5 12 6 2 1 3 6 7 9 8 9 20 36 29 31 22 20 39 38 40 36 35 35 34 36 36 37 35 34 31 30 30 30 31 30 25 18 17
0 1 3 2 8 6 12 23 22 8 3 4 3 4 2 3 7 10 11 9 7 6 6 17 27 28 23 8 39 45 44 38 39 36 35 36 37 37 35 32 30 29 29 30 32 31 23 17 17
0 2 2 3 8 6 11 10 10 4 5 3 5 6 4 4 6 7 6 6 9 12 9 15 31 30 15 21 14 47 41 42 41 40 38 38 38 37 35 32 30 29 28 29 30 29 24 17 17
6 3 4 4 14 14 6 10 2 5 5 5 7 5 4 7 11 5 0 7 5 10 15 17 25 13 4 7 7 47 37 44 44 39 38 39 39 37 34 31 28 27 27 27 27 28 26 20 14
4 5 3 6 10 12 15 4 4 5 8 4 4 2 6 9 9 5 6 5 3 9 12 12 11 10 9 7 3 28 35 31 40 39 38 37 36 35 33 30 28 25 25 25 25 25 25 21 15
3 2 5 7 5 8 21 4 13 17 15 6 2 2 7 9 6 4 3 6 5 10 11 14 16 15 21 19 29 24 32 28 33 37 36 36 36 34 30 28 26 24 23 23 23 23 22 21 14
5 3 8 7 9 8 4 1 2 5 6 3 4 3 4 5 5 4 2 7 7 8 10 13 14 11 13 17 29 39 41 39 29 31 34 34 34 32 30 27 25 23 21 21 21 21 20 19 13
4 7 11 23 27 27 7 3 4 15 2 8 10 6 4 3 1 6 3 5 9 8 11 13 15 16 22 36 37 41 43 40 32 32 29 29 31 31 29 27 24 21 19 19 16 15 15 15 11
3 14 18 26 33 19 3 10 3 5 10 11 8 10 13 5 6 7 3 6 8 10 13 20 19 23 27 34 40 40 42 43 39 39 35 30 32 31 27 25 22 20 18 16 14 12 12 11 10
6 10 20 20 25 11 2 4 6 9 14 6 10 9 11 9 6 7 6 9 10 11 18 22 20 25 28 32 34 42 43 37 38 39 34 32 32 29 26 24 22 18 16 12 11 10 9 9 8
12 14 17 21 21 14 4 4 2 13 10 11 13 9 9 8 6 9 10 13 14 15 22 23 24 26 28 28 38 45 38 37 37 35 34 32 28 26 25 21 19 16 13 12 10 8 7 8 8
8 9 10 13 10 9 7 3 6 5 13 18 13 12 12 9 7 10 11 12 13 12 17 24 26 27 30 35 41 41 38 38 35 35 32 28 26 22 19 18 18 16 13 12 10 8 8 8 7
6 4 4 7 4 18 4 13 5 14 18 15 14 15 9 10 8 11 11 13 16 16 19 24 28 29 32 36 42 42 38 36 35 33 29 25 22 21 19 17 15 16 15 11 10 9 8 7 6
2 5 6 10 12 9 7 6 5 18 18 18 20 17 13 14 12 15 14 13 15 19 24 25 24 28 33 41 43 39 39 34 35 32 28 27 23 18 16 16 15 15 15 13 11 11 9 8 8
6 4 5 7 12 4 1 4 9 23 17 18 21 16 17 19 16 18 15 15 14 17 25 22 21 29 35 42 40 38 37 33 32 30 26 23 20 18 19 18 16 17 18 17 15 14 13 13 13
5 6 8 13 21 5 7 6 15 13 18 15 20 19 20 22 18 15 14 16 19 22 27 25 27 29 37 44 38 39 40 35 29 26 25 25 23 21 21 18 19 20 21 19 17 18 19 19 18
11 12 15 15 14 3 4 5 8 12 16 24 28 25 21 23 23 21 19 19 22 25 29 29 30 33 41 46 44 42 36 32 28 25 27 27 26 25 24 24 25 23 22 22 22 22 23 22 22
15 13 13 16 5 5 2 3 3 11 10 18 27 29 23 27 30 28 27 26 24 28 33 31 36 39 44 45 40 38 31 27 30 29 31 31 29 26 25 26 27 25 25 25 24 24 25 25 24
12 12 14 6 2 4 3 5 5 5 10 11 25 30 33 30 34 31 31 30 30 34 36 37 41 41 45 42 43 40 40 38 36 34 30 32 31 28 27 26 25 25 26 27 27 26 24 26 27
12 13 9 6 4 1 4 2 6 4 8 12 16 30 35 38 42 39 36 34 31 36 39 40 40 39 40 41 41 38 39 36 33 31 31 33 31 30 29 30 28 28 27 29 29 28 26 25 29
16 7 1 5 2 3 3 5 5 5 6 5 19 31 38 42 46 42 36 34 34 37 37 39 40 40 40 41 41 38 38 39 37 34 33 34 34 35 33 32 31 30 30 31 30 31 27 25 28
14 5 1 3 3 6 1 3 8 9 8 10 20 31 39 46 47 47 43 41 41 44 43 41 42 41 39 40 39 39 40 40 37 34 35 34 35 37 36 32 33 34 32 28 27 28 27 27 30
8 8 5 5 4 4 4 6 6 7 19 20 29 41 43 43 46 49 48 46 44 44 44 44 44 42 40 39 40 40 41 42 41 37 35 38 38 38 34 35 34 33 31 29 25 26 27 30 32
5 5 8 7 2 2 4 7 9 3 2 6 13 29 37 42 45 50 49 49 47 45 45 44 43 42 41 41 41 43 45 46 44 43 45 39 39 38 37 34 36 37 33 28 26 24 29 30 28
8 7 4 1 5 3 5 5 5 1 3 3 6 18 31 39 45 50 51 50 49 48 46 44 44 45 44 44 45 46 46 46 47 48 44 45 44 41 39 37 33 39 38 33 27 26 27 28 22
1 3 3 5 6 4 3 5 6 7 7 8 8 21 31 37 38 41 46 50 50 51 51 50 49 47 48 47 46 47 47 48 49 51 49 42 42 37 34 35 36 44 41 31 28 26 29 22 20
7 11 9 5 5 5 3 5 3 9 7 7 12 22 23 22 22 31 43 44 46 50 51 54 52 51 46 41 36 32 40 43 50 49 48 40 29 31 35 38 40 39 31 31 25 26 27 25 21

GFSSGP_850_spd_075.txt.gz
Wind_Speed
3 2 2 1 4 5 3 5 4 6 6 2 5 4 5 6 2 3 8 5 8 15 20 25 28 28 31 32 28 24 27 24 24 24 24 24 27 29 32 33 32 30 28 26 23 24 23 21 22
4 3 1 3 4 3 5 4 4 4 6 6 9 3 1 3 6 4 3 1 6 13 19 23 21 20 25 29 28 29 24 22 25 25 25 26 28 32 34 35 33 29 27 26 25 22 22 21 22
4 3 0 4 3 3 4 5 6 5 11 9 4 0 5 6 9 8 9 5 12 15 18 21 19 13 15 14 16 26 30 23 28 28 27 30 32 34 35 33 31 29 28 27 25 23 24 23 22
4 3 4 4 5 7 6 10 13 4 7 7 6 3 3 5 4 8 8 4 12 21 23 18 22 24 31 15 21 25 27 29 27 31 33 34 36 33 33 32 31 30 30 27 25 24 23 22 22
4 2 4 2 5 5 6 13 23 6 5 3 9 3 1 3 3 5 8 8 15 22 23 22 29 40 32 22 15 19 31 39 34 34 34 36 37 35 33 33 33 32 31 28 23 22 21 21 19
2 3 4 3 5 5 7 19 7 4 3 5 4 3 3 3 4 6 7 6 14 16 15 20 31 34 22 19 23 17 32 41 38 35 37 40 38 35 33 33 32 32 33 28 22 20 20 20 17
6 4 4 4 5 7 4 5 6 3 9 4 5 3 3 5 6 5 5 3 7 12 12 15 20 20 11 25 35 36 34 45 42 39 41 40 38 35 32 32 33 33 33 29 22 20 20 18 15
5 4 2 4 4 8 6 6 7 5 4 5 7 5 4 4 3 6 4 3 5 10 9 13 21 27 23 7 9 21 48 47 43 40 40 35 33 32 32 32 32 33 31 28 23 19 18 17 14
6 3 3 5 2 7 13 4 3 4 7 8 8 8 7 4 9 11 8 6 6 8 12 25 28 30 19 19 10 24 40 42 41 38 41 41 39 34 32 31 31 32 30 27 23 17 14 13 10
5 4 7 6 6 10 18 2 7 5 4 7 9 11 7 7 7 7 11 10 8 11 11 14 18 18 20 14 11 34 43 37 36 37 41 40 37 33 30 29 29 30 29 27 23 18 14 11 10
5 6 4 17 23 19 14 8 8 8 6 13 12 12 11 10 10 10 8 7 8 10 13 15 15 16 17 19 33 44 44 41 39 37 40 39 36 34 32 30 28 27 25 24 23 19 15 12 8
3 11 7 17 26 10 4 7 7 18 7 6 11 9 13 13 11 7 7 7 8 9 14 16 15 16 20 25 36 33 44 44 40 40 39 39 35 32 29 27 26 24 23 22 20 18 17 13 11
4 6 12 19 22 24 9 7 8 13 12 7 7 9 9 13 9 9 8 6 9 12 18 19 19 23 26 29 34 42 45 42 38 36 36 36 31 26 25 25 24 23 21 18 18 16 13 11 10
5 9 15 16 21 15 8 5 2 12 16 10 11 13 11 13 10 9 7 7 9 11 21 21 21 27 28 34 38 46 48 43 42 41 33 32 32 33 30 26 23 20 19 17 13 11 10 9 7
6 8 7 7 8 6 12 2 9 11 21 13 16 15 14 13 11 7 4 7 10 15 18 20 24 28 30 34 38 45 50 45 42 44 41 36 34 31 28 24 23 20 17 15 12 11 10 10 8
4 1 3 3 3 5 7 9 8 15 19 19 18 18 18 16 13 9 7 7 9 14 19 23 26 29 35 35 41 44 42 41 45 45 37 33 32 28 23 22 21 18 15 13 11 10 11 10 10
2 4 6 10 4 3 3 10 5 17 18 15 20 20 20 18 15 12 7 8 11 13 16 22 28 33 37 39 44 38 38 40 42 39 34 33 31 25 24 22 18 17 16 13 12 12 10 10 9
6 5 5 6 6 6 5 12 4 15 17 16 19 21 20 20 17 14 11 11 14 15 17 20 28 31 35 41 41 37 36 36 35 35 33 30 28 27 23 19 17 17 16 15 13 12 11 11 9
4 3 5 8 15 3 10 6 10 8 14 15 19 20 21 22 18 15 12 13 16 18 20 23 24 22 33 41 42 38 37 34 35 34 30 29 26 22 22 20 18 15 16 15 14 14 16 15 13
6 5 10 11 18 4 9 9 6 7 11 20 22 24 24 23 21 19 16 18 19 20 24 29 25 26 32 39 43 38 38 33 34 33 30 27 24 24 20 19 17 18 17 17 18 18 18 17 17
8 10 8 11 7 5 5 5 4 5 8 18 22 22 26 28 24 23 20 19 19 24 25 28 24 25 30 40 41 38 36 34 32 30 28 27 24 21 21 19 19 22 21 21 21 21 21 21 22
11 11 13 9 3 5 3 5 4 6 10 7 17 22 26 29 26 24 21 19 20 23 25 26 25 26 31 43 43 40 42 36 36 30 26 24 24 24 24 23 25 25 25 27 26 24 25 26 27
12 7 9 9 6 3 1 1 7 2 6 11 17 27 32 33 31 28 26 21 21 23 26 27 27 30 33 42 44 42 41 38 37 34 30 27 29 31 30 31 29 28 27 27 26 28 28 30 31
6 4 4 1 3 3 5 5 5 6 9 9 12 29 32 33 34 28 27 25 25 25 27 29 32 34 36 46 47 46 44 41 39 37 36 35 33 34 35 36 33 30 31 31 31 29 30 31 32
5 3 3 2 1 5 3 3 8 8 8 9 10 24 34 33 34 32 32 33 31 32 33 34 35 39 40 47 49 47 48 43 43 41 37 37 37 37 39 38 37 34 34 33 33 31 28 29 31
8 9 5 5 4 4 0 5 6 7 8 20 27 27 34 34 36 36 35 37 36 35 37 39 40 43 44 47 47 45 48 47 45 43 41 39 38 38 38 38 36 36 36 36 34 31 29 28 28
5 5 10 6 3 2 4 7 8 8 8 6 15 19 25 34 38 40 38 38 39 39 41 44 43 42 44 46 47 48 47 46 45 43 40 38 38 39 38 36 35 37 36 37 35 31 30 31 27
10 8 4 1 5 4 3 5 6 8 8 6 6 15 30 34 37 40 40 41 42 42 41 42 44 44 44 45 46 46 45 44 43 42 40 40 40 43 44 41 39 40 39 38 37 37 38 32 30
4 4 2 4 4 6 1 6 7 10 9 8 8 22 30 33 37 40 42 42 42 43 43 44 45 45 46 47 45 44 42 42 42 42 44 43 44 47 42 38 39 36 34 42 38 38 41 31 30
5 6 6 5 3 1 5 7 4 8 6 3 9 20 27 28 31 36 41 43 42 42 43 45 46 48 48 44 40 34 20 32 36 46 45 39 44 41 31 36 42 41 44 44 38 37 34 32 33

GFSSGP_850_spd_078.txt.gz
Wind_Speed
6 5 3 2 4 5 2 5 2 4 3 3 10 5 3 0 0 3 4 7 4 11 17 22 22 22 25 25 23 27 30 30 33 36 34 31 27 27 29 29 28 26 23 23 21 21 22 23 23
7 6 2 3 4 3 4 4 6 7 2 7 4 4 3 3 1 2 6 5 8 11 20 25 25 25 25 21 19 20 30 32 36 35 33 31 27 29 31 29 28 26 24 22 24 24 24 25 22
6 5 1 4 3 4 4 6 8 4 18 7 2 2 3 3 5 4 9 6 8 16 21 25 30 32 31 17 7 14 25 34 35 33 33 31 28 29 31 29 28 26 24 28 26 26 24 22 20
5 3 5 4 3 6 6 6 9 7 3 5 4 2 4 7 5 8 9 7 10 17 24 28 29 31 31 26 20 13 18 22 29 31 29 27 28 31 32 31 28 26 25 25 25 26 24 23 22
6 2 4 1 4 5 5 9 5 4 2 2 4 3 5 10 12 9 10 13 17 19 23 22 32 32 25 25 30 29 30 28 27 25 20 27 30 34 34 32 26 26 25 27 26 26 25 23 21
3 3 3 3 4 5 6 10 8 2 3 1 2 1 6 10 12 10 11 11 11 18 19 20 21 29 23 23 25 28 34 33 31 28 26 32 35 36 34 32 28 26 26 26 25 24 23 22 22
6 4 5 3 4 6 4 5 2 4 3 7 5 3 5 10 11 11 10 5 8 14 16 20 25 27 26 28 22 24 30 35 35 34 31 37 38 36 34 33 29 27 25 24 24 23 22 21 20
5 4 4 4 3 7 3 6 3 4 7 7 8 7 5 9 8 7 6 6 6 8 10 17 30 33 33 26 24 30 34 33 41 42 37 39 40 37 34 30 30 28 25 23 24 23 20 19 17
6 4 3 5 6 6 5 2 4 6 8 10 8 10 9 6 6 5 5 5 5 7 13 14 14 29 30 27 22 13 33 39 34 37 41 42 39 36 32 32 32 27 24 22 23 22 19 18 16
4 4 8 7 5 5 13 4 12 5 4 9 12 15 9 6 7 8 9 8 8 10 14 17 16 25 26 19 15 9 29 33 43 40 42 42 38 35 33 32 31 28 23 21 21 19 17 15 14
6 6 5 8 17 16 7 6 6 6 5 19 11 18 12 8 9 9 8 10 11 11 13 16 22 25 22 18 14 21 34 51 47 42 41 41 39 36 31 34 33 28 23 21 20 18 15 12 10
3 10 8 11 15 5 4 6 4 14 19 12 14 11 16 14 13 11 10 10 12 13 13 14 17 19 18 18 26 39 41 50 50 46 39 41 39 37 34 33 29 27 24 20 18 17 16 13 13
5 5 13 17 19 18 12 11 6 15 24 20 11 13 15 13 11 11 11 11 11 13 12 14 14 15 16 25 37 40 37 43 44 46 38 38 36 34 33 30 28 26 23 19 17 15 13 12 13
4 6 13 14 20 15 6 1 3 17 20 18 14 13 14 15 15 14 13 12 13 12 12 16 16 16 24 33 38 38 36 37 40 41 41 39 35 32 28 27 26 24 22 19 15 15 15 12 11
6 7 8 7 9 7 7 5 8 27 15 20 14 14 14 15 17 13 10 13 13 11 12 15 15 17 25 35 38 37 36 44 43 40 40 35 31 26 23 22 21 21 20 18 18 17 14 11 10
2 1 3 2 5 2 8 9 13 17 20 20 15 15 16 19 17 12 10 12 13 14 13 15 17 21 24 29 34 37 41 45 43 38 37 34 31 29 23 27 26 23 19 18 16 13 11 10 9
2 5 5 9 5 3 5 10 7 3 13 16 18 18 18 17 19 16 12 11 11 13 16 20 21 25 26 29 37 41 39 38 41 38 35 32 29 28 29 27 24 21 19 18 13 12 8 8 8
5 5 5 7 2 2 3 11 11 7 12 12 17 20 21 21 21 17 16 12 13 12 13 16 21 26 29 32 38 41 38 32 41 37 36 34 29 28 26 23 21 21 20 16 13 11 11 10 7
4 4 4 5 4 4 8 7 16 4 10 13 17 21 23 23 19 16 16 13 14 14 15 16 21 26 32 30 34 34 41 35 34 38 42 31 30 28 24 22 22 22 18 14 14 14 14 11 11
6 4 11 12 11 8 8 12 11 4 7 15 20 20 24 24 22 20 18 17 17 17 18 17 18 24 32 31 34 30 35 34 37 40 35 29 28 27 25 24 24 20 16 16 18 16 14 13 15
13 13 10 10 7 5 5 7 7 3 7 8 15 17 22 27 26 23 20 19 17 20 21 20 20 22 27 32 39 36 33 30 37 36 35 30 28 26 24 25 22 20 19 18 18 17 17 17 18
7 11 10 7 2 4 2 5 7 6 7 5 13 19 23 26 28 23 22 20 19 19 22 23 26 23 26 36 40 40 39 35 36 35 33 36 28 27 25 24 23 22 21 20 22 20 21 20 22
11 9 10 6 6 1 5 2 7 2 6 9 9 23 25 26 29 28 25 21 17 18 24 24 26 25 27 33 39 42 39 38 39 36 34 38 30 30 28 26 25 24 24 23 24 24 24 26 27
1 4 4 1 2 4 9 6 5 5 7 6 6 20 23 27 29 27 25 23 21 19 22 24 26 26 28 32 37 43 42 42 41 41 37 35 34 32 30 27 27 28 28 26 27 27 28 29 30
6 4 2 1 1 6 6 4 10 7 9 8 10 20 21 25 28 30 31 30 27 23 23 25 26 29 29 33 37 43 44 44 44 44 42 39 36 34 32 30 31 31 31 32 31 32 33 32 33
11 10 5 6 5 4 2 6 6 8 8 13 17 21 17 19 27 31 34 32 31 29 28 29 29 30 31 35 38 44 44 44 45 43 41 41 40 38 35 33 31 32 32 34 34 35 35 36 34
6 13 8 5 2 2 4 6 8 8 7 7 13 15 21 21 26 29 32 33 33 32 32 33 33 33 34 33 36 41 44 44 44 44 43 42 40 38 35 33 33 32 32 34 35 37 35 35 34
8 7 4 1 5 4 4 4 6 8 12 9 8 9 18 20 23 28 30 32 33 34 33 32 33 33 34 35 35 40 43 42 42 43 43 41 40 41 39 38 36 35 35 35 35 34 33 35 36
5 14 3 4 5 6 3 6 7 8 8 9 9 13 18 18 22 25 28 28 30 32 35 35 36 37 38 38 38 39 40 40 39 42 43 42 44 43 42 40 39 37 38 38 38 43 35 36 34
9 9 10 5 4 2 3 8 5 6 7 3 12 13 15 16 18 21 24 27 29 31 33 37 38 41 42 42 42 38 33 31 37 46 46 48 46 40 41 43 42 38 40 34 36 38 39 37 37

GFSSGP_850_spd_081.txt.gz
Wind_Speed
7 6 4 2 2 0 1 2 2 3 3 3 4 4 2 3 4 5 3 8 8 21 20 25 21 22 24 24 22 26 30 31 32 32 31 29 28 29 29 27 26 23 22 20 19 21 23 22 21
8 7 3 3 2 3 2 2 7 8 5 4 5 4 4 3 6 4 5 9 9 13 23 20 24 24 24 26 27 27 29 29 35 35 33 30 28 28 30 27 26 22 21 21 21 22 21 20 20
9 6 2 3 2 3 2 5 9 6 11 7 4 5 3 4 8 4 13 9 8 13 20 22 25 27 28 30 28 24 25 26 38 36 35 30 30 31 30 27 26 22 21 21 23 24 23 21 20
6 3 4 2 4 4 4 5 5 8 1 7 3 4 5 9 4 8 7 13 11 11 22 23 25 25 28 29 26 24 18 19 34 37 34 30 29 30 29 28 27 23 21 23 22 23 21 21 21
7 2 2 1 3 4 5 8 5 4 4 6 8 3 5 7 14 10 10 13 14 12 22 26 25 27 30 35 24 23 20 13 28 32 31 30 31 32 31 29 28 27 26 25 23 23 23 24 22
2 2 2 3 4 4 6 7 2 3 3 2 5 3 6 12 13 15 12 12 13 14 22 24 26 32 35 34 25 19 22 28 31 28 27 30 32 34 33 30 29 26 25 26 25 23 23 24 23
4 2 3 3 3 5 4 2 3 5 4 6 5 3 7 11 14 14 13 11 10 12 14 21 23 31 36 39 30 28 27 30 27 33 36 34 35 35 34 31 27 26 27 27 26 23 23 22 22
5 3 3 4 3 4 3 3 6 4 5 5 6 6 5 9 12 12 10 7 8 8 11 15 21 27 28 40 29 25 27 28 31 42 39 40 39 37 35 29 27 28 27 26 26 24 23 21 21
6 2 5 5 7 4 5 4 4 9 6 7 9 14 15 12 12 10 6 6 7 7 7 10 18 25 23 29 28 22 20 26 37 40 44 42 43 39 33 30 30 28 26 26 25 23 22 21 20
5 4 9 6 6 5 2 5 8 3 4 8 13 21 19 15 12 9 6 5 7 7 7 11 11 23 26 31 31 24 20 31 40 43 51 44 41 39 33 31 29 27 26 26 25 22 21 20 20
5 9 6 7 13 9 7 6 4 5 6 16 13 17 19 17 13 11 8 7 9 10 11 13 15 17 23 26 26 28 29 32 42 37 43 40 38 35 35 34 29 28 27 27 24 22 19 18 17
5 11 10 7 12 6 4 6 5 10 15 17 13 13 14 17 14 12 7 8 9 11 13 14 18 18 23 28 21 24 20 35 47 40 42 40 40 38 37 35 31 29 27 26 23 20 18 16 16
6 6 11 16 13 13 9 15 9 17 26 21 17 13 15 15 12 11 10 10 11 12 12 12 12 14 15 16 16 18 35 40 44 44 44 43 41 40 38 33 29 25 24 21 21 19 18 15 15
5 8 12 11 10 9 9 7 5 23 17 19 18 15 15 14 13 14 12 12 13 12 13 11 12 12 14 14 20 27 36 53 46 42 41 40 39 38 35 31 26 25 21 19 17 17 16 15 13
4 8 10 12 17 10 9 6 9 19 10 13 15 15 14 15 16 14 11 13 12 12 11 12 12 12 12 17 20 30 33 44 44 38 39 39 36 34 32 29 24 20 21 17 15 13 13 15 14
2 2 5 2 2 3 9 11 12 7 9 14 15 14 14 16 17 14 10 12 13 11 13 14 14 13 17 23 26 35 39 41 41 39 36 37 33 27 29 27 23 24 21 16 15 14 15 15 13
3 9 8 8 4 3 7 6 6 5 8 14 16 16 17 17 17 15 12 10 14 13 15 17 16 16 21 29 28 30 38 42 43 41 35 32 33 31 29 29 31 23 19 17 16 17 18 16 13
9 7 5 9 1 2 4 14 17 8 11 16 18 17 18 18 19 16 15 13 13 13 15 18 18 18 20 32 30 28 38 45 42 40 41 39 35 34 31 31 20 18 20 21 19 19 15 13 10
7 7 9 6 4 2 9 11 17 11 8 12 16 19 21 22 15 16 16 16 14 14 16 17 21 21 23 26 31 30 39 49 37 40 38 32 30 27 27 21 22 24 23 20 20 18 17 16 15
10 7 18 11 8 7 9 15 16 12 8 10 19 20 22 19 20 19 19 18 15 18 17 19 19 22 25 27 30 34 34 44 38 39 32 28 27 25 23 25 28 27 24 22 22 20 18 18 17
16 18 16 14 6 9 7 8 7 3 5 6 12 19 20 24 24 23 23 22 18 20 21 21 20 24 27 30 31 35 37 40 40 44 42 38 27 26 27 28 27 25 24 24 22 20 20 20 18
17 12 15 14 7 6 2 6 7 12 11 7 12 19 23 25 24 23 24 25 24 20 24 23 23 21 25 32 32 30 43 36 46 47 46 49 35 30 31 30 28 26 24 25 22 20 21 20 21
14 6 12 16 12 7 12 6 3 3 7 11 9 20 24 27 27 28 28 25 22 21 24 25 25 24 25 31 33 38 37 42 41 44 48 50 36 32 32 31 29 27 26 24 23 22 22 22 24
3 8 1 1 4 7 14 6 7 6 8 6 7 8 17 26 28 27 24 23 23 21 24 27 29 28 27 29 33 40 40 41 43 47 49 43 39 35 33 32 30 29 28 26 24 23 24 24 26
7 5 2 3 5 8 8 9 14 6 8 10 13 15 8 20 29 29 29 28 27 25 25 28 30 34 31 29 33 39 43 43 42 47 44 44 43 40 36 34 32 30 28 28 27 28 29 28 29
15 11 5 7 5 6 6 7 8 10 10 10 12 15 7 15 25 33 32 31 30 28 26 29 31 33 33 32 36 39 43 43 43 40 42 40 42 41 39 34 32 30 29 28 29 31 33 33 33
7 11 15 4 2 3 4 4 7 9 7 6 10 10 11 17 22 32 32 33 33 31 29 28 29 30 32 32 33 35 40 45 45 45 41 43 40 38 35 34 34 33 31 30 31 31 33 32 33
9 11 6 8 7 11 4 3 7 2 5 7 9 13 7 14 20 26 31 33 35 33 29 26 27 29 28 30 32 34 36 41 44 43 45 44 43 41 40 39 37 35 34 34 34 34 33 33 34
9 10 4 6 7 8 4 5 8 12 7 7 9 11 4 13 17 23 29 31 34 34 33 30 28 29 29 29 30 32 35 38 41 42 44 46 44 44 44 43 41 42 41 38 37 36 38 44 42
12 18 18 7 5 5 6 11 2 7 5 5 10 10 3 7 13 18 23 28 32 34 36 36 33 32 33 32 32 31 28 30 33 36 36 40 44 45 46 44 44 42 42 40 37 38 43 37 36

GFSSGP_850_spd_084.txt.gz
Wind_Speed
8 6 4 2 6 6 4 8 1 4 3 2 5 6 5 7 5 6 4 7 6 14 13 25 28 27 25 23 23 29 31 32 31 31 31 29 26 26 24 25 25 25 22 22 20 20 22 21 23
8 7 3 3 7 8 6 3 7 3 4 4 5 7 8 9 4 3 4 8 7 14 19 20 29 29 27 26 27 28 31 31 31 32 32 30 28 28 26 26 26 24 25 21 21 22 20 21 21
9 8 6 4 5 8 3 4 4 4 6 8 5 5 3 2 3 3 9 8 6 10 20 21 22 27 25 26 25 26 28 32 32 31 32 30 31 29 26 25 25 23 22 21 23 21 20 20 20
5 4 4 7 9 4 4 1 4 6 2 7 8 5 4 7 3 5 8 11 11 12 15 20 22 23 25 22 22 18 19 24 20 19 23 33 33 29 28 24 24 21 21 24 23 22 20 20 20
7 5 7 9 9 5 6 2 3 6 3 5 7 5 4 6 12 11 12 10 13 14 14 18 19 21 25 24 32 32 34 26 25 16 33 37 35 30 23 26 26 22 22 23 24 21 21 20 20
9 5 8 10 7 5 7 5 3 4 3 5 6 7 7 10 8 13 16 13 13 14 16 18 19 20 23 26 23 25 27 25 20 23 41 38 34 33 32 31 26 25 23 25 23 23 22 21 21
15 8 11 11 10 9 10 6 4 6 6 7 4 8 3 5 10 12 12 14 15 14 15 18 22 22 22 26 27 21 17 18 15 8 34 34 31 32 33 32 30 28 24 25 24 23 22 22 22
13 6 10 10 10 12 9 5 4 6 6 1 5 5 7 7 9 9 11 12 13 10 12 17 26 25 24 30 35 22 17 16 19 21 26 27 26 33 35 34 31 27 27 27 25 24 22 22 22
9 8 11 13 11 9 9 5 3 5 8 6 8 10 6 10 11 10 10 9 10 9 10 15 22 26 28 34 35 34 24 25 27 29 32 32 32 35 35 34 29 30 29 27 26 23 22 22 22
14 11 14 6 10 8 10 9 11 8 10 10 12 15 13 13 11 9 7 6 7 8 9 10 21 15 26 34 30 33 29 28 29 34 35 39 37 40 34 32 32 31 29 26 25 23 23 22 22
14 18 13 10 10 12 13 14 12 13 13 12 12 13 15 13 12 10 8 7 8 11 9 9 16 15 24 26 26 27 32 24 25 30 50 50 45 43 34 35 34 32 29 28 25 24 20 17 17
14 19 20 15 14 16 17 18 17 18 21 17 14 13 13 14 13 11 9 8 7 10 12 12 13 19 19 22 23 27 28 26 25 28 33 54 50 46 38 32 35 34 31 29 26 21 17 17 15
19 18 17 18 19 18 20 20 22 28 23 21 17 14 13 13 12 11 9 8 8 9 13 12 13 16 18 21 21 25 26 25 26 27 47 55 46 41 40 38 36 35 30 27 22 18 17 18 16
8 15 19 18 18 17 17 22 17 27 17 15 16 16 14 13 13 11 10 9 9 9 13 12 12 12 13 14 18 24 17 23 28 48 47 48 45 39 40 39 37 33 31 23 21 21 18 16 14
14 16 18 20 22 19 19 21 24 28 12 14 15 14 14 14 13 13 11 10 11 13 14 14 12 12 11 12 15 19 24 39 51 45 43 41 37 39 40 38 35 30 27 25 22 20 18 15 14
11 14 16 4 6 6 11 18 13 10 11 13 14 14 14 14 14 13 12 10 11 13 16 13 13 11 10 12 13 20 30 44 44 44 41 41 42 41 39 35 30 27 25 23 21 21 16 15 13
15 15 17 13 12 10 13 15 6 6 9 11 12 14 15 14 15 15 14 11 11 13 14 14 13 12 12 15 16 29 37 38 39 39 41 43 39 35 32 29 25 23 23 20 20 17 15 15 13
17 18 15 16 3 11 14 18 15 16 11 12 11 15 16 16 17 16 16 13 12 13 15 14 14 12 16 18 24 32 40 45 45 37 35 34 33 31 28 28 27 28 24 22 21 18 16 15 13
15 15 18 17 2 8 12 15 17 19 12 15 12 16 18 17 16 17 17 16 14 14 16 17 16 15 19 21 30 34 45 47 42 39 37 38 37 41 40 37 30 26 24 22 18 15 15 18 14
20 19 20 18 5 10 17 18 18 16 18 16 14 16 18 17 19 20 19 18 16 15 18 17 18 19 21 25 26 35 40 48 44 45 40 36 36 38 33 31 32 27 23 22 21 20 19 16 17
19 21 20 17 11 14 18 21 23 17 15 11 13 15 17 20 22 23 23 20 18 17 20 22 19 21 25 25 29 27 39 43 41 43 38 44 33 34 36 32 27 23 24 27 23 21 20 15 16
20 19 19 18 16 13 2 10 10 9 14 12 13 14 17 20 21 23 23 22 21 20 20 23 23 23 26 26 31 32 43 50 45 45 47 43 36 34 33 32 27 31 31 28 24 22 21 18 16
18 14 14 14 14 15 16 10 11 9 16 16 16 16 17 19 23 24 25 22 21 20 22 25 24 24 27 30 30 33 39 50 45 43 46 44 35 30 31 31 29 28 29 27 22 23 24 22 19
6 11 10 7 8 10 17 12 12 11 13 10 6 11 14 18 23 23 21 22 22 22 23 26 27 27 28 31 33 33 41 43 44 46 47 51 43 31 29 26 30 29 28 26 26 25 24 24 23
16 10 5 8 7 9 4 11 15 4 6 7 9 9 10 15 22 25 26 26 25 26 25 27 29 29 29 30 33 33 34 44 48 49 52 56 42 33 25 32 32 30 30 30 26 26 26 26 27
18 17 7 9 9 7 6 7 12 8 13 15 10 7 7 13 22 28 29 27 27 27 27 29 30 31 29 30 33 33 34 34 41 44 50 45 42 41 29 32 32 32 30 29 28 28 28 28 29
15 19 16 15 13 8 9 7 12 12 9 8 11 13 12 14 21 27 29 29 27 28 29 29 31 32 31 33 33 32 34 36 34 38 43 47 39 37 34 34 35 33 33 33 31 29 30 29 28
20 7 10 11 7 11 9 11 7 5 9 8 5 8 10 14 22 25 30 30 28 28 28 28 29 30 29 30 31 32 33 35 34 35 39 44 40 37 33 36 38 36 37 35 32 33 33 29 30
12 14 12 10 14 11 11 7 6 14 11 4 10 8 4 10 20 23 27 27 27 26 28 30 30 29 30 30 29 30 32 35 38 39 39 41 40 38 36 37 37 39 39 36 34 34 34 33 32
9 18 19 12 13 10 14 14 5 3 1 3 8 6 5 4 14 18 22 26 29 30 29 31 31 31 31 30 30 31 31 33 39 45 47 48 49 46 46 46 42 39 38 37 34 32 34 37 38

GFSSGP_850_spd_087.txt.gz
Wind_Speed
8 5 4 9 7 8 14 4 5 4 5 1 3 7 10 13 9 5 1 3 8 5 7 15 23 23 20 18 20 25 26 26 27 27 26 25 24 22 21 21 20 21 21 20 17 16 17 19 18
5 6 7 12 8 12 10 10 5 5 3 2 6 8 9 10 4 3 1 7 4 8 10 10 20 25 21 17 18 22 27 28 29 30 29 27 26 24 23 23 24 24 20 18 17 16 19 21 22
9 8 13 10 13 13 9 8 5 1 5 8 5 5 6 4 1 1 4 7 5 8 9 12 16 22 22 21 19 19 23 28 31 33 32 29 27 25 25 26 24 21 20 17 16 17 20 21 21
6 8 12 10 17 12 7 5 3 6 5 7 11 5 6 3 1 3 8 7 6 5 10 16 14 18 24 23 21 23 19 22 29 32 32 30 28 28 28 27 24 22 19 17 17 18 21 20 22
10 12 12 17 17 10 4 5 4 9 5 5 9 15 3 5 6 6 7 10 9 11 16 13 17 21 22 20 22 27 28 36 30 3 15 24 26 29 31 28 23 18 21 21 20 20 21 20 22
13 12 13 15 16 4 5 7 5 10 10 6 8 14 9 6 7 8 12 11 12 13 17 16 17 19 19 19 22 23 23 27 24 35 25 20 21 29 32 25 20 20 20 20 21 22 21 21 23
16 13 16 20 17 11 8 10 8 8 10 14 14 10 4 9 8 12 9 10 13 14 17 18 17 18 17 20 21 21 28 27 29 30 24 27 38 39 29 21 19 21 20 23 22 22 22 22 23
20 13 22 19 14 14 5 7 10 9 12 3 5 9 9 9 9 7 7 6 12 13 15 16 15 19 18 19 20 19 17 18 21 26 24 10 41 33 32 23 20 24 24 23 24 23 23 22 22
12 13 16 20 17 9 4 8 13 10 12 12 9 14 2 4 6 7 8 8 10 11 13 15 16 21 24 20 21 21 23 18 14 21 12 20 35 40 35 31 31 26 25 25 25 24 24 24 24
18 13 21 19 12 9 11 11 16 16 16 19 16 15 11 8 9 11 11 10 10 8 9 14 15 20 24 23 23 25 25 18 20 19 13 13 29 33 31 30 29 26 27 26 25 24 24 25 27
21 19 21 20 10 15 16 16 19 16 19 20 17 14 10 12 14 14 14 12 11 11 9 11 10 19 17 21 26 21 21 26 26 26 21 21 34 28 29 31 29 31 29 29 26 26 24 21 23
20 25 23 24 23 15 18 21 21 23 21 20 22 16 15 16 17 16 14 12 10 11 9 10 11 14 16 18 24 22 19 19 22 24 22 23 34 35 34 34 34 36 31 30 28 24 19 18 18
21 20 24 23 20 22 23 22 23 25 24 24 21 22 19 17 18 16 14 12 10 10 11 10 11 11 13 17 17 19 25 19 22 23 25 26 48 44 36 37 32 33 31 29 26 19 19 17 16
18 21 23 26 26 23 21 24 24 29 23 21 19 20 19 17 17 15 14 13 11 9 10 11 12 13 13 17 18 18 20 19 22 22 22 34 50 46 39 37 31 28 27 25 22 20 18 17 15
21 19 20 22 24 23 24 25 24 31 25 22 20 20 16 16 16 16 14 13 12 10 12 11 12 11 10 11 13 15 18 22 21 20 41 58 54 46 43 34 32 29 27 26 22 22 18 16 15
13 18 19 18 25 20 23 25 21 21 19 19 18 16 13 15 16 15 14 13 11 11 11 12 12 10 9 12 12 12 14 20 30 33 45 52 55 49 46 34 32 28 28 27 23 22 20 16 15
15 18 20 20 17 13 13 18 15 4 8 14 15 14 13 15 15 15 15 14 12 11 12 13 11 10 8 8 7 12 19 33 43 50 54 54 49 48 39 35 34 32 29 27 26 22 19 16 15
18 21 20 20 20 16 14 20 17 17 18 18 17 14 15 17 17 17 17 14 12 12 13 15 12 10 9 10 16 21 32 33 39 43 43 43 41 40 36 37 31 26 24 23 22 21 18 18 15
21 24 23 18 12 5 11 18 18 17 19 18 18 20 17 18 16 18 18 16 14 13 14 15 14 13 14 15 26 30 38 44 43 40 39 42 40 36 36 32 28 33 27 26 26 21 21 17 15
24 26 24 20 22 11 14 20 20 20 20 22 22 21 17 17 17 19 20 19 17 15 15 17 16 16 18 18 32 40 46 46 43 42 41 35 41 40 38 30 28 31 27 24 21 20 17 14 17
25 24 21 24 22 16 14 21 23 23 26 27 26 19 17 19 21 22 23 21 18 18 17 19 20 21 22 22 29 35 42 41 39 35 33 32 39 37 35 31 32 31 25 25 20 19 18 16 16
22 21 22 20 19 15 17 15 17 15 12 18 18 19 22 18 21 23 24 23 21 19 18 19 22 22 24 28 32 37 44 48 45 42 39 44 41 37 37 32 32 29 21 22 20 17 16 13 12
21 17 17 21 20 17 20 15 16 17 19 15 15 22 21 19 20 25 25 24 22 21 21 20 24 23 26 27 31 37 43 46 47 43 42 43 46 41 36 28 26 27 28 21 21 18 20 15 14
17 16 16 14 12 16 18 16 13 14 16 13 12 15 20 18 19 23 24 23 23 22 21 23 26 27 28 30 30 33 36 46 45 43 44 48 44 35 34 28 30 25 23 21 24 22 20 21 17
18 14 9 11 11 13 17 13 13 10 5 4 8 7 12 15 19 23 26 27 26 26 24 26 28 29 30 30 31 33 35 45 45 50 49 50 42 37 35 30 25 25 25 21 25 26 22 22 22
18 17 8 11 10 10 20 9 10 13 13 19 15 10 4 9 17 24 27 27 27 28 26 29 30 31 31 33 32 34 36 44 47 41 46 49 48 42 34 30 28 26 23 25 25 24 23 23 24
17 17 19 22 17 9 9 8 8 11 10 8 7 11 14 17 17 24 27 28 28 29 28 28 31 30 33 34 36 35 35 38 49 51 50 50 49 47 37 29 30 26 26 27 26 27 27 26 27
24 15 12 12 16 17 13 17 14 5 9 11 9 6 9 16 18 22 28 29 28 27 27 27 28 29 31 33 33 36 37 35 38 46 52 49 52 48 41 40 33 31 29 29 28 27 29 29 31
14 20 16 12 13 11 9 7 10 4 8 5 4 6 7 10 16 24 27 29 28 26 27 28 28 29 28 34 35 37 38 36 36 36 40 49 53 48 47 40 43 34 31 31 30 31 32 31 32
13 16 18 12 16 12 14 15 9 2 5 7 5 5 4 3 12 21 24 28 29 29 29 29 29 30 32 30 31 38 37 38 39 39 36 37 46 47 44 41 35 34 34 34 34 35 35 35 35

GFSSGP_850_spd_090.txt.gz
Wind_Speed
8 6 1 8 6 7 17 20 2 7 1 5 5 5 12 14 10 3 6 5 5 6 7 10 7 17 16 15 15 17 18 19 19 19 19 19 19 19 17 15 16 18 21 23 22 20 20 21 20
5 5 8 9 8 11 11 5 7 1 11 8 3 7 7 9 8 13 7 3 7 6 5 9 6 13 18 14 14 15 18 20 22 22 22 22 21 21 18 17 18 19 21 21 18 18 20 20 19
9 7 10 6 12 13 16 7 5 6 4 5 6 9 7 3 7 5 2 4 4 8 5 8 10 6 18 16 15 15 18 20 23 25 24 25 24 23 21 20 20 19 18 18 18 19 20 21 22
5 9 11 8 16 19 22 7 7 5 8 4 11 10 8 7 3 5 9 5 3 3 7 9 11 9 15 18 18 19 18 19 21 10 20 28 27 25 23 22 23 21 18 18 18 19 21 22 22
9 11 11 16 18 22 19 1 5 6 11 4 5 12 5 10 11 6 9 9 4 8 10 10 11 14 15 17 22 23 23 22 27 30 43 13 26 26 26 26 24 22 18 19 17 21 22 24 27
12 15 12 14 20 20 2 2 2 4 11 9 4 12 11 11 9 5 9 9 8 10 12 11 12 16 17 18 20 21 22 27 22 25 20 18 24 23 21 25 23 21 19 17 17 22 24 26 30
15 11 17 19 19 19 17 11 9 7 9 13 15 12 2 12 9 9 9 10 11 10 11 14 12 17 16 17 18 17 16 24 16 12 13 21 24 24 21 26 24 22 19 18 20 22 24 28 32
21 12 20 17 16 19 14 3 5 8 10 4 3 4 4 13 11 7 8 8 12 10 11 11 10 14 12 16 17 18 18 19 19 17 21 22 25 23 30 29 24 23 18 21 22 23 24 28 32
21 13 15 20 19 19 8 2 6 7 10 14 12 9 7 11 9 6 8 8 10 13 11 11 9 11 10 12 15 18 16 15 15 16 16 20 22 33 34 27 28 25 21 23 23 25 25 28 31
18 14 22 20 19 17 14 8 12 14 19 20 17 19 15 13 10 9 10 10 13 14 11 9 10 12 14 17 14 16 18 19 15 14 23 11 0 31 33 29 28 22 23 24 24 24 25 28 30
25 20 21 25 27 27 12 16 18 15 17 17 15 17 9 12 10 11 13 14 13 13 11 13 8 12 15 18 18 16 19 20 16 15 22 11 8 26 32 32 30 27 25 26 26 26 27 30 34
24 28 29 26 26 24 20 18 19 23 20 20 16 17 17 13 12 16 16 14 12 17 16 14 9 10 17 19 15 22 18 17 20 20 25 14 15 32 36 33 33 30 29 29 28 28 25 34 29
24 24 29 29 28 27 23 21 22 22 24 23 19 23 19 16 16 20 15 14 13 16 20 15 11 11 13 19 22 17 15 18 20 24 27 21 21 38 33 32 32 32 31 30 30 24 22 31 21
29 25 26 30 27 25 25 22 23 25 24 27 25 24 24 26 18 17 15 14 13 13 19 14 10 10 12 17 17 16 15 21 16 23 23 26 29 39 37 34 33 33 32 31 26 24 22 21 18
26 22 22 22 24 20 26 22 23 26 27 29 26 22 20 21 15 17 16 16 14 12 19 14 10 10 11 14 14 15 16 17 25 25 25 31 26 42 43 39 38 36 33 31 20 23 23 20 19
16 17 19 21 21 25 26 22 21 26 30 29 25 23 20 21 15 15 16 15 14 14 19 16 14 11 13 12 11 12 17 18 21 22 23 25 34 51 48 43 41 34 30 26 24 24 23 20 19
17 19 23 22 19 22 23 20 15 23 19 7 12 18 21 13 11 15 17 16 15 15 19 17 13 11 11 11 12 11 15 17 19 21 21 36 44 51 48 43 39 33 32 26 28 26 23 21 18
20 22 24 23 19 21 25 19 15 24 21 15 15 18 19 15 18 18 17 18 16 16 20 15 13 11 8 8 8 7 9 14 26 29 37 49 56 54 50 48 42 35 34 31 30 27 23 22 17
22 24 25 22 25 22 18 14 13 15 19 15 21 22 18 16 19 22 20 20 18 20 22 16 15 13 11 12 12 11 18 27 34 39 44 45 52 53 50 42 37 32 32 28 28 26 21 23 18
25 22 27 22 28 22 20 17 16 17 19 20 21 20 22 23 20 24 24 22 21 22 19 16 16 17 16 15 16 18 23 27 32 32 39 53 50 47 47 37 34 32 28 27 26 24 24 24 24
23 24 18 23 26 25 22 24 16 19 21 25 28 24 23 22 25 28 27 25 23 24 20 16 18 18 18 22 26 31 33 33 33 32 25 31 36 40 40 41 34 31 34 36 30 29 26 28 27
22 18 20 20 20 18 21 16 17 17 17 21 29 27 23 20 22 31 29 27 26 22 19 17 21 22 21 24 28 35 42 42 37 34 36 37 37 36 30 31 30 33 35 30 28 26 25 22 22
21 13 14 19 19 22 25 14 14 16 18 17 13 18 20 15 18 31 31 28 24 24 22 20 24 26 24 25 35 44 42 36 34 39 34 35 33 31 34 33 38 40 33 32 29 26 24 23 21
15 8 14 17 14 17 22 19 14 16 18 17 10 17 25 27 22 28 31 27 26 24 25 25 27 30 27 29 36 40 38 36 37 41 37 37 37 41 42 37 32 35 32 32 29 26 22 25 23
14 12 9 5 6 12 19 16 14 17 20 12 12 9 9 25 24 25 34 31 29 31 27 29 28 31 30 31 35 38 39 40 39 43 40 38 41 45 43 38 33 29 31 29 25 30 26 24 24
17 17 9 12 7 5 16 11 14 15 11 7 3 6 6 19 23 26 33 32 32 33 29 31 31 34 32 35 33 37 39 41 42 46 44 46 48 51 43 40 36 35 29 28 29 28 30 27 25
17 18 16 16 18 4 9 18 10 13 8 6 7 17 11 10 13 20 30 35 33 34 33 31 33 32 34 35 35 35 38 43 41 49 47 52 52 47 46 44 40 32 31 31 31 31 29 28 29
17 15 14 11 16 16 12 11 9 16 13 9 7 5 9 12 22 26 28 36 35 34 33 33 31 32 34 36 37 36 36 37 37 43 54 51 50 49 47 43 40 36 32 32 31 32 31 30 31
12 16 13 11 13 10 8 1 5 10 14 9 6 11 8 11 14 26 27 36 34 33 32 32 29 35 35 35 38 39 37 37 37 42 46 50 52 53 48 45 43 35 36 34 33 34 33 33 32
17 18 17 8 12 8 11 7 12 3 12 7 6 10 6 4 12 15 27 35 34 36 33 33 31 33 34 36 36 38 39 37 38 40 43 47 47 50 53 53 47 38 34 36 35 36 36 34 35

GFSSGP_850_spd_093.txt.gz
Wind_Speed
6 5 3 4 3 2 5 9 3 2 6 15 13 9 2 5 1 3 11 7 8 3 2 3 2 6 12 15 16 15 14 14 14 14 14 14 15 17 17 17 15 14 18 21 23 22 22 20 18
10 9 3 5 4 2 6 8 9 9 13 13 9 6 3 2 15 15 9 6 6 2 4 5 3 2 12 15 15 14 15 14 15 14 14 14 16 18 18 16 15 17 20 22 22 21 22 22 21
10 6 4 4 3 6 6 1 5 8 14 11 3 10 8 9 16 14 9 4 1 2 3 4 6 3 8 15 14 15 15 16 16 17 20 14 11 20 19 18 19 22 22 21 21 21 22 22 21
7 5 5 0 9 15 12 8 3 4 7 10 5 3 4 7 16 11 8 6 5 7 6 5 6 6 6 11 16 15 16 17 21 24 25 16 1 18 21 22 22 22 23 23 22 23 22 22 23
6 5 2 4 9 12 14 6 10 6 2 10 10 3 5 9 11 8 8 9 7 7 8 7 7 8 9 11 16 18 18 18 25 28 18 23 29 17 22 23 25 24 22 22 20 24 25 31 33
4 4 1 5 13 15 12 23 10 7 4 2 7 5 5 15 14 14 11 7 7 10 11 11 11 12 13 15 17 19 20 22 25 24 26 15 28 36 25 27 24 23 20 18 24 27 30 33 35
7 1 6 9 15 18 14 13 8 8 8 2 7 8 8 17 15 11 9 6 8 11 12 12 12 13 14 15 17 19 20 20 23 24 18 18 13 21 36 31 27 23 19 19 26 30 33 34 31
17 3 7 11 9 12 19 7 8 12 4 3 6 3 7 19 16 13 10 8 9 8 11 13 13 12 11 13 17 18 19 19 21 19 10 10 15 14 27 25 22 21 23 22 26 30 36 33 30
18 4 9 13 10 17 20 1 6 9 7 6 12 12 15 18 21 17 12 9 9 8 9 10 12 9 8 10 14 17 18 17 18 17 14 10 14 20 29 30 29 25 22 23 29 31 35 34 31
10 4 14 8 14 15 12 12 5 5 9 9 16 18 20 22 22 15 11 8 10 11 12 12 10 10 10 11 12 15 17 17 17 17 19 17 20 27 33 38 31 26 23 26 29 31 37 36 32
13 15 16 19 28 28 11 14 20 2 4 11 17 21 27 25 18 15 14 11 9 9 15 13 8 12 13 15 15 15 16 17 16 14 18 17 14 22 36 27 29 29 27 30 30 32 37 37 34
15 21 24 26 31 30 12 23 9 16 12 15 15 9 14 25 24 20 18 15 16 16 18 18 13 12 16 17 17 17 17 21 19 17 14 16 9 14 40 38 32 28 30 31 33 34 38 37 32
17 18 26 31 29 29 28 16 16 21 27 23 26 20 16 15 23 19 15 17 19 20 21 21 17 13 13 18 18 18 19 19 20 20 20 26 15 26 26 32 31 30 31 32 33 35 38 38 28
23 20 24 25 23 23 14 10 18 28 28 25 28 28 27 26 24 21 14 21 18 19 20 18 17 12 14 19 22 20 18 17 22 21 20 21 19 33 36 34 33 32 32 33 33 36 42 29 32
23 15 17 13 13 7 19 9 9 32 30 25 30 31 30 29 23 23 22 22 20 20 17 17 18 13 14 17 21 21 22 22 21 23 22 24 25 34 41 36 35 33 33 33 31 35 36 26 29
7 8 11 4 9 11 11 22 13 34 33 31 38 37 36 28 24 22 23 19 21 23 20 20 18 11 12 16 19 21 21 21 25 23 28 28 29 42 39 40 36 35 37 33 30 31 35 24 23
4 10 16 9 8 10 11 23 14 32 34 29 24 24 34 28 22 20 21 20 20 22 21 19 17 13 15 15 15 16 18 21 20 24 27 31 34 44 44 45 43 41 40 34 32 30 28 25 25
8 10 10 11 10 16 14 19 17 28 28 19 22 12 19 22 25 24 23 23 20 21 20 18 16 13 14 14 16 17 17 21 24 26 27 26 36 41 49 48 46 46 40 36 34 34 28 26 23
12 13 15 12 10 13 13 16 21 27 18 12 15 24 24 24 27 29 27 27 26 23 22 21 17 14 13 15 13 13 14 16 15 18 23 31 38 44 52 54 49 48 43 39 35 33 30 26 22
18 19 20 17 12 13 17 21 20 27 8 14 17 23 31 31 32 35 34 33 31 28 24 22 16 15 15 14 14 11 12 16 19 24 28 34 47 48 54 54 52 49 42 39 37 35 32 27 25
18 16 13 13 4 4 10 20 15 24 14 17 23 30 25 38 33 42 40 36 33 29 26 22 16 18 18 18 17 13 16 19 26 31 38 42 48 61 56 54 51 44 38 37 37 35 36 34 30
17 14 17 18 2 4 4 12 20 22 24 19 23 29 35 29 38 47 43 38 34 29 24 21 15 21 20 20 18 16 19 26 27 34 39 38 45 53 53 49 44 44 39 37 38 32 30 31 33
11 11 14 4 2 4 7 7 7 18 21 19 11 27 37 41 44 48 44 40 34 28 25 20 16 22 23 22 18 20 22 29 32 32 33 30 35 38 44 42 44 48 38 41 36 33 31 29 34
2 3 2 3 3 7 11 10 4 12 18 17 17 24 24 39 44 46 44 40 33 27 25 21 22 24 25 24 23 24 30 36 38 34 33 35 38 43 45 42 42 37 37 40 38 29 27 30 30
2 4 2 2 4 6 9 11 16 21 22 22 22 31 30 39 41 45 44 41 35 31 28 24 26 28 28 25 26 30 37 38 33 32 33 34 41 41 38 40 41 40 41 41 31 31 31 32 27
8 7 4 6 4 3 6 6 5 17 26 34 21 16 30 34 39 46 44 42 37 32 28 27 28 32 32 31 29 35 41 36 33 32 35 40 43 41 39 37 36 39 42 40 31 32 31 30 27
7 9 11 8 7 2 4 11 18 16 10 15 10 12 14 31 40 45 44 43 38 33 28 28 28 34 35 33 31 35 40 39 35 34 39 44 44 39 39 40 37 37 39 37 34 34 35 35 34
10 5 6 5 4 10 8 13 8 20 15 16 7 5 15 28 37 44 44 44 39 34 29 29 28 32 37 37 35 36 39 39 38 37 41 43 42 39 44 44 42 36 34 34 33 33 34 35 36
7 11 4 4 2 3 2 4 6 4 10 17 19 11 13 7 4 31 45 45 41 37 32 32 30 32 37 39 38 37 37 38 39 39 39 42 42 42 48 47 44 40 37 39 35 33 34 33 32
4 14 14 7 7 8 9 14 5 7 9 15 20 32 8 8 8 11 45 46 44 41 35 34 32 32 34 38 39 39 37 36 39 41 41 39 45 45 45 48 46 45 43 40 36 35 35 36 37

GFSSGP_850_spd_096.txt.gz
Wind_Speed
4 8 5 2 3 4 4 7 5 8 3 5 6 8 6 3 3 4 15 11 12 6 4 5 4 8 12 15 17 17 18 17 17 16 14 12 13 15 16 17 16 16 17 20 21 21 22 21 18
10 10 4 2 3 2 5 5 6 5 8 10 9 9 5 0 8 16 16 17 12 8 5 5 3 3 9 14 16 16 16 17 17 18 17 17 16 16 15 15 16 17 19 21 23 23 23 21 18
11 7 2 4 3 5 5 3 3 4 13 9 6 4 10 11 12 18 12 16 11 5 3 3 3 0 3 11 15 16 18 18 20 22 24 24 22 17 15 14 15 18 21 23 25 25 24 22 20
9 4 2 2 9 9 6 6 9 4 6 9 9 4 8 12 16 15 13 9 7 6 4 2 3 3 5 10 15 17 18 20 22 24 25 25 23 23 17 11 14 20 21 22 25 26 25 23 22
9 3 1 3 9 7 6 8 18 8 5 7 10 5 9 18 12 15 15 12 9 7 6 5 8 7 9 12 15 17 19 21 22 26 26 26 23 19 15 15 18 23 23 24 25 25 25 26 25
3 1 2 5 9 8 7 20 19 11 8 11 8 12 9 17 18 19 16 12 10 10 8 9 10 11 11 14 16 18 21 22 24 28 27 28 25 25 25 21 27 24 23 25 27 28 28 29 30
4 3 5 5 5 11 7 16 6 8 6 5 7 7 8 24 19 16 15 14 13 12 12 12 13 14 15 16 17 19 22 23 24 23 23 23 15 22 22 22 25 29 27 23 31 31 33 36 32
5 3 4 5 5 12 3 17 10 11 6 4 4 5 7 25 22 19 17 16 14 13 13 13 14 15 15 17 18 20 21 22 23 23 24 21 20 21 22 27 41 33 25 27 33 36 38 37 33
5 1 6 7 8 10 8 5 21 15 6 10 8 8 8 24 26 25 23 18 15 13 11 11 13 14 15 16 18 18 20 22 23 24 22 20 17 18 22 38 38 35 27 34 34 38 39 33 28
6 5 10 6 8 11 12 7 22 7 8 6 12 12 9 23 30 30 27 19 17 13 13 12 10 12 12 10 13 17 21 24 24 25 24 21 15 20 22 32 36 31 28 33 37 39 37 30 26
6 12 13 16 20 25 18 16 22 3 5 15 15 18 15 26 32 32 27 20 14 12 16 13 9 9 11 11 13 15 20 22 23 23 23 19 18 19 20 29 34 34 30 34 38 42 37 29 30
7 11 14 21 27 24 18 25 12 14 21 23 16 12 15 28 33 33 28 21 20 21 18 15 12 12 11 14 15 14 16 19 22 22 20 19 21 16 25 37 43 39 32 35 40 43 38 32 28
9 12 23 29 28 30 34 20 19 23 34 26 22 18 16 23 33 32 27 22 23 23 21 19 16 14 13 16 17 16 18 20 22 20 19 24 20 16 25 27 44 40 31 35 41 45 40 34 26
10 16 20 24 25 25 12 13 10 25 30 27 27 28 25 24 29 31 33 27 29 27 25 21 19 15 13 17 17 17 20 21 23 23 20 25 20 16 19 49 38 35 32 36 40 46 42 35 24
17 13 13 7 9 7 19 13 10 24 23 23 27 32 35 34 30 33 33 31 32 32 26 24 20 16 12 16 18 21 21 28 25 24 23 23 22 22 30 50 37 34 35 38 40 45 43 31 25
3 4 4 4 4 7 9 23 11 24 29 28 34 38 41 41 38 33 29 32 35 33 29 25 20 16 12 18 20 24 26 25 26 24 27 25 24 27 32 38 34 35 37 39 42 47 41 33 25
3 12 9 5 5 5 7 13 8 21 21 18 27 35 39 41 43 38 30 33 32 30 28 25 20 17 13 18 20 23 26 27 27 26 30 27 28 30 36 38 37 37 39 41 44 46 42 37 26
8 7 5 5 3 8 15 20 10 14 17 20 26 39 38 30 25 36 33 36 32 29 27 23 20 17 15 15 17 20 23 26 25 28 31 31 32 33 40 42 41 42 41 41 47 46 40 38 30
3 5 7 1 5 5 10 20 11 9 19 20 26 29 35 25 27 32 38 38 34 31 30 27 22 18 16 16 22 22 23 26 26 26 29 33 35 36 39 45 45 47 46 44 45 47 38 32 34
9 11 17 13 10 12 13 20 11 7 11 18 20 27 31 25 23 35 43 40 37 34 32 27 22 18 15 15 18 20 23 25 28 30 28 29 39 45 46 50 49 52 48 45 43 46 39 34 36
12 13 12 17 10 7 4 18 14 13 14 22 31 27 32 24 28 41 46 43 40 37 33 28 23 19 16 16 17 20 20 20 21 23 29 37 34 41 47 51 54 55 49 46 43 42 39 37 33
15 16 18 16 7 9 4 17 13 13 18 20 27 29 32 32 27 45 50 47 43 39 33 27 23 20 18 18 20 21 21 22 22 22 24 29 34 38 47 53 55 57 48 46 43 40 40 37 36
14 17 15 17 6 4 3 3 8 1 12 20 18 27 30 35 28 43 54 50 45 39 34 29 24 21 18 19 19 19 19 21 19 23 24 29 37 43 47 51 60 58 50 43 41 41 37 36 33
5 7 5 2 4 4 6 4 21 2 9 16 17 21 30 29 23 39 53 52 46 39 33 30 26 21 18 18 20 20 22 22 23 27 29 28 36 42 50 57 61 57 49 46 39 38 40 36 32
5 2 2 2 1 6 7 7 15 15 15 20 24 28 36 33 24 38 48 53 47 41 36 32 28 23 20 21 23 23 23 24 25 29 30 30 35 37 43 44 47 49 46 46 40 40 35 34 32
8 8 5 5 5 7 6 6 5 6 13 30 24 25 36 36 26 44 53 56 49 42 37 33 30 25 22 22 21 21 25 25 29 32 34 35 32 31 37 42 40 43 46 44 45 38 35 31 27
7 8 7 4 3 3 4 5 6 6 12 21 23 36 28 42 35 47 49 53 49 43 38 34 30 26 24 24 24 24 26 30 34 33 32 32 34 37 40 39 42 47 49 46 45 39 35 29 31
11 7 1 2 6 13 6 6 8 9 16 15 21 17 26 8 35 38 48 50 47 42 37 34 29 26 24 25 28 26 28 32 36 33 29 30 30 35 39 40 38 35 41 43 46 47 36 31 33
4 1 1 1 4 5 2 4 6 7 9 19 20 30 27 26 15 34 46 47 46 44 39 34 32 29 26 27 31 30 30 33 38 32 30 29 30 35 39 38 37 37 38 38 41 45 37 35 38
3 3 5 4 5 4 3 5 9 8 12 5 19 29 35 32 18 26 34 41 44 43 39 36 34 32 27 28 31 33 33 36 37 36 33 32 33 36 38 39 38 38 37 39 40 42 40 38 36

GFSSGP_850_spd_099.txt.gz
Wind_Speed
7 9 6 2 3 4 4 7 3 6 4 4 6 4 6 4 4 4 19 15 12 9 9 9 9 12 16 17 18 18 18 17 17 16 16 17 18 18 19 20 18 17 18 20 20 21 22 22 20
9 10 5 3 4 1 5 5 6 6 6 7 8 12 2 0 6 13 20 20 15 11 11 10 8 7 13 17 17 17 17 17 18 18 17 19 20 20 19 18 17 17 17 16 20 21 21 22 19
12 10 3 4 4 6 5 5 2 10 10 3 4 2 8 4 10 17 14 21 19 15 13 11 9 7 9 14 18 19 18 19 19 20 19 20 22 20 21 19 17 16 15 17 18 20 24 22 18
9 4 2 3 9 6 6 4 5 9 17 11 5 4 5 11 10 19 20 20 19 14 11 9 8 8 10 13 18 20 20 21 22 23 23 23 24 25 21 20 16 16 15 15 20 21 23 22 21
11 3 1 3 7 5 5 11 13 8 6 13 9 5 3 11 15 17 21 18 15 12 10 10 10 10 10 13 16 19 22 23 24 24 23 25 24 24 24 22 14 15 16 17 21 24 23 23 25
4 2 2 6 7 5 4 12 13 15 23 18 6 10 6 13 14 19 18 14 12 10 11 11 11 12 13 14 17 19 21 22 24 25 28 26 25 23 23 19 20 23 19 16 23 23 27 26 26
7 4 5 4 6 8 4 6 4 9 8 8 9 7 5 18 20 23 18 15 14 14 14 13 13 14 15 16 17 19 22 23 23 24 23 26 27 27 21 16 20 25 23 22 26 27 28 27 27
7 4 3 5 4 11 5 8 7 11 7 2 10 5 6 20 25 25 21 18 18 17 16 14 14 15 15 16 19 21 23 24 23 23 22 24 31 25 23 24 25 25 27 27 25 30 30 29 26
8 2 5 7 7 5 10 8 7 16 11 8 9 7 7 16 28 27 25 23 22 20 17 15 15 15 15 17 20 23 24 24 25 23 24 28 31 27 26 31 25 35 33 27 30 34 33 31 26
6 5 11 7 7 10 6 9 22 12 18 16 18 9 9 18 31 32 31 29 26 23 17 15 14 14 14 15 19 22 23 26 25 24 26 27 25 24 23 29 31 36 37 36 35 35 38 33 27
8 9 6 8 15 15 7 9 13 7 9 23 17 23 12 22 33 34 34 30 27 22 19 16 15 14 12 11 15 19 22 24 27 28 26 25 24 20 19 24 33 40 38 30 38 42 41 37 30
4 8 19 13 21 13 13 13 7 12 25 34 34 26 14 20 27 33 36 31 28 25 22 19 19 15 13 12 13 15 20 23 26 26 25 26 26 21 23 20 36 40 36 39 44 43 40 34 30
6 3 13 21 22 23 28 19 14 25 37 33 33 27 22 21 24 29 32 33 31 29 27 24 23 17 15 14 14 17 15 19 21 25 26 26 26 22 22 25 27 43 37 42 43 43 37 32 28
6 14 21 21 26 21 15 17 12 21 25 27 26 23 23 22 25 27 35 37 37 33 30 27 26 20 18 16 15 18 16 19 20 21 23 24 25 25 21 22 34 39 40 43 45 43 34 30 30
13 7 7 7 8 9 15 14 11 26 27 25 26 26 25 24 26 31 31 36 39 37 32 31 28 23 19 17 16 19 19 20 21 22 23 23 26 28 25 23 30 52 42 43 46 43 35 32 25
4 2 2 5 8 8 11 24 8 18 24 26 27 27 28 26 27 31 36 37 40 39 36 34 30 25 21 19 18 20 20 20 24 25 24 26 26 28 24 25 36 49 42 43 48 46 39 33 26
3 4 5 3 4 4 8 11 4 9 20 13 18 25 31 33 36 36 33 38 39 41 41 38 34 28 23 20 21 22 21 23 22 28 27 28 27 25 23 30 45 44 37 43 47 48 41 33 30
7 4 4 5 4 5 9 16 7 16 14 18 24 30 33 33 35 32 32 34 41 43 42 39 36 30 24 19 21 24 26 27 28 28 28 28 28 27 28 23 34 34 36 42 48 50 41 33 32
4 4 4 0 4 6 8 14 10 10 18 14 21 28 32 34 34 33 28 29 41 42 42 42 37 31 25 23 23 25 27 28 28 29 30 27 34 30 30 33 38 41 38 43 46 49 42 35 32
6 6 5 4 8 7 14 25 15 7 8 19 19 25 31 35 31 28 26 34 38 39 42 42 37 31 25 23 21 22 23 24 27 28 28 25 35 39 31 38 42 39 42 45 48 50 42 37 33
6 9 3 10 2 6 7 22 9 5 8 19 20 24 34 32 28 25 25 39 41 42 44 41 37 31 25 22 19 20 22 23 26 28 27 26 32 38 35 39 42 43 46 49 49 52 47 41 36
12 6 13 7 3 4 4 13 12 4 11 7 20 28 37 33 29 24 30 42 45 45 44 40 35 30 24 21 21 19 22 24 27 28 31 31 26 34 32 40 46 47 51 48 49 51 48 43 39
5 7 9 9 5 1 4 3 4 4 4 12 13 23 30 36 28 20 32 41 50 49 47 41 35 30 25 21 21 20 22 20 20 23 24 25 32 28 36 38 48 53 52 48 51 54 47 41 41
2 4 4 1 3 5 6 7 16 5 5 6 7 21 34 33 26 20 28 37 49 46 46 40 36 30 26 21 21 21 19 19 18 20 23 23 26 28 31 41 51 53 53 55 50 49 45 40 40
3 1 3 2 2 7 10 7 14 9 14 8 7 18 33 31 28 23 30 35 47 51 46 42 36 32 26 21 22 21 20 17 18 19 20 21 21 26 34 35 46 53 55 55 51 46 38 37 38
8 8 5 6 4 8 7 7 5 1 6 14 21 27 34 37 33 30 31 37 44 52 49 44 38 33 27 23 23 23 20 19 19 20 21 19 19 27 32 40 41 51 54 54 45 42 40 42 33
5 9 8 8 2 2 4 6 5 2 11 15 23 36 40 42 39 25 34 37 43 48 52 46 39 33 27 24 24 24 23 22 21 21 22 21 22 24 27 35 42 47 51 48 48 44 41 33 35
14 6 3 2 7 13 3 3 5 7 10 13 17 29 44 43 42 13 32 38 42 46 50 46 38 31 27 25 24 24 23 23 22 23 26 25 23 26 29 30 35 40 37 38 40 43 41 38 39
4 4 5 5 5 8 9 5 6 4 1 7 12 30 36 37 34 11 20 27 33 45 51 45 39 32 28 27 26 25 25 24 24 26 26 27 26 27 29 32 38 45 48 47 47 47 46 45 38
2 2 5 4 5 2 3 6 7 2 6 4 5 22 36 35 29 19 18 22 30 41 48 45 39 34 29 27 28 27 24 25 26 29 30 26 24 25 27 32 34 34 41 44 46 49 49 47 46

GFSSGP_850_spd_102.txt.gz
Wind_Speed
8 10 8 6 3 4 3 6 3 5 6 3 5 4 7 5 6 4 21 18 16 13 12 12 12 13 16 18 17 16 16 15 17 17 18 19 18 21 22 22 21 22 21 19 19 20 19 17 19
9 12 8 4 4 2 5 4 5 6 10 7 3 6 2 2 5 11 21 21 16 14 13 13 13 14 15 18 18 18 17 16 16 17 18 19 21 21 23 22 19 19 21 19 19 20 20 19 18
13 12 4 4 4 6 5 6 6 4 6 4 2 2 3 2 8 22 15 20 19 16 14 14 13 14 15 17 19 19 18 17 17 17 18 19 21 21 22 20 17 18 16 15 18 19 19 21 20
11 6 4 3 7 6 6 4 2 10 6 5 5 4 4 6 9 17 17 20 20 18 16 14 13 14 17 19 20 21 20 19 19 20 22 22 23 24 24 23 18 14 12 13 15 18 20 22 19
13 4 2 2 6 5 7 8 7 6 4 8 6 4 3 9 8 16 20 21 21 19 17 14 15 15 16 19 21 22 22 22 22 22 23 23 25 26 25 28 19 22 16 15 15 20 22 23 19
4 4 2 6 6 4 5 13 8 5 17 20 5 6 4 13 12 18 22 21 20 17 16 15 15 14 15 17 20 22 23 23 23 23 23 24 26 26 26 22 24 21 16 11 13 21 23 22 20
6 4 5 4 5 4 5 5 4 3 8 5 5 8 5 13 17 18 23 21 21 19 16 15 15 15 16 17 18 20 22 23 23 23 24 24 24 24 24 25 25 19 21 28 23 27 26 24 23
6 4 5 6 5 7 6 3 5 5 5 15 6 4 5 14 20 20 24 22 22 20 18 17 17 16 16 17 19 21 22 21 21 22 24 23 21 22 24 25 19 14 22 23 28 31 32 26 25
8 2 5 7 8 6 5 1 3 8 4 20 3 11 8 8 23 24 26 26 25 23 21 20 19 17 16 17 20 21 22 22 21 20 19 20 21 26 26 22 19 19 24 25 26 27 27 28 24
4 5 11 6 7 6 2 2 4 5 11 13 19 14 11 11 23 28 31 31 30 28 25 21 20 18 17 17 18 23 25 24 24 24 24 24 26 26 28 27 26 31 28 30 30 28 26 27 27
7 8 3 7 14 13 3 6 8 2 6 22 15 27 20 13 24 31 32 32 31 30 26 22 21 18 18 17 18 21 26 27 27 27 28 25 25 27 32 29 28 32 31 30 31 30 31 31 29
5 8 11 7 18 8 6 6 4 10 14 29 25 29 27 21 24 28 33 33 33 31 28 25 23 20 18 18 17 18 25 23 27 27 26 28 29 30 30 26 26 33 33 36 35 36 39 34 31
6 4 9 20 23 17 21 17 13 10 28 29 23 23 22 22 25 28 25 32 35 35 31 29 26 23 19 20 18 18 19 20 21 25 29 30 30 27 28 25 25 27 39 45 40 42 40 37 33
3 14 21 20 23 15 10 20 8 10 19 24 20 22 22 20 24 27 33 30 35 36 35 32 30 26 22 23 20 19 19 18 20 23 27 28 28 28 27 25 24 29 37 46 40 41 41 38 31
10 10 8 7 7 7 6 11 13 26 25 24 25 22 21 17 17 22 23 27 32 35 38 37 33 30 26 25 22 21 20 19 20 21 23 25 25 26 26 23 22 21 30 31 37 40 41 37 30
3 3 3 3 10 7 11 25 3 10 14 13 13 12 10 13 14 16 21 25 31 38 41 41 37 34 29 26 23 22 22 22 20 22 22 23 24 25 27 27 22 31 35 35 39 43 39 34 31
3 4 5 2 7 5 10 12 2 2 16 14 13 15 20 23 23 22 21 26 30 34 42 44 41 38 31 27 24 23 23 23 22 23 21 22 24 24 28 29 25 36 42 44 44 44 40 35 32
7 4 4 4 2 3 8 16 6 17 12 17 22 25 25 26 27 25 26 26 26 25 34 44 43 40 33 27 25 25 25 25 22 22 22 26 26 25 27 27 26 38 45 53 48 45 39 36 31
2 5 5 1 3 3 7 14 6 12 17 12 21 25 25 25 30 31 32 31 28 25 31 40 44 42 35 32 29 28 29 28 25 24 25 27 27 26 30 23 25 41 50 50 47 46 41 35 31
6 6 5 4 6 5 8 25 9 7 8 19 23 24 22 26 32 33 32 32 30 23 30 37 44 42 38 34 29 28 27 31 29 27 28 29 25 27 27 23 20 36 40 40 40 45 45 41 35
6 9 3 8 4 3 5 19 9 7 8 19 18 21 20 24 30 33 31 30 28 26 31 36 45 43 40 34 30 26 25 28 28 29 29 28 25 24 27 31 33 41 41 45 46 46 49 45 40
10 8 9 6 2 3 4 8 0 6 6 4 13 18 20 22 34 34 29 27 30 29 32 37 42 43 41 35 30 27 26 26 28 28 28 26 26 24 30 34 38 40 40 47 48 46 50 46 46
5 8 8 6 5 1 3 4 5 3 7 9 7 16 18 23 29 29 29 27 30 31 33 37 40 44 40 33 29 25 24 23 23 25 28 26 24 14 38 31 36 40 42 47 47 50 54 49 47
5 3 3 2 3 3 8 7 3 4 2 3 3 13 18 23 33 33 30 30 32 30 33 37 42 43 38 31 28 25 22 22 22 22 25 26 30 30 21 31 33 43 46 46 47 51 52 50 48
3 5 1 1 1 5 6 5 8 5 4 4 6 14 19 24 31 38 35 28 32 32 33 40 43 43 37 32 27 24 22 20 20 19 20 21 23 26 30 26 38 39 49 51 46 48 50 44 45
7 7 4 5 4 3 4 6 5 4 5 7 6 8 19 33 38 42 39 32 36 36 35 41 44 43 39 33 27 24 21 19 16 16 16 16 19 23 25 27 31 37 50 54 54 49 52 42 40
5 5 7 2 1 1 4 6 5 4 5 6 10 17 23 33 42 44 46 33 31 41 39 39 45 44 40 32 26 23 21 21 19 18 17 17 15 12 16 21 26 35 38 49 51 56 53 46 38
6 5 3 1 3 5 4 3 5 2 5 6 7 13 22 35 46 47 42 32 26 34 33 33 42 45 39 30 26 23 22 21 19 18 17 16 10 6 11 17 26 34 41 47 51 52 50 47 44
2 3 4 4 5 3 7 5 5 4 4 5 1 9 19 33 50 47 37 31 25 26 30 31 40 43 37 29 25 24 23 22 22 20 19 16 12 8 9 14 20 30 37 42 50 50 47 47 44
3 2 6 3 3 2 2 11 5 5 8 6 5 3 17 31 43 42 40 23 23 24 28 32 38 41 34 28 24 25 24 23 24 23 21 19 15 15 15 18 23 28 31 44 50 44 45 44 46

GFSSGP_850_spd_105.txt.gz
Wind_Speed
9 10 9 6 2 0 2 4 2 4 3 3 8 5 7 3 5 2 9 22 19 15 13 12 12 13 14 15 16 16 16 17 19 20 22 21 22 22 22 21 21 20 19 17 18 18 17 16 17
10 12 11 4 2 4 4 3 6 8 4 5 7 6 4 4 6 5 23 21 18 15 13 13 13 13 15 17 17 16 16 17 18 20 22 23 23 24 23 21 19 20 19 18 18 16 16 15 19
11 15 6 3 3 7 4 6 7 3 11 6 4 4 3 3 8 16 20 22 20 18 15 14 14 14 15 17 16 15 15 16 18 20 21 22 21 24 23 22 20 18 17 16 17 17 16 19 18
12 6 4 3 12 5 5 2 4 7 3 6 3 3 2 5 9 19 18 22 20 19 16 16 15 14 15 18 18 17 16 16 17 19 21 22 23 24 21 25 22 18 15 14 17 17 19 19 19
15 4 3 4 8 4 8 8 9 9 6 3 3 3 3 5 10 20 17 21 21 20 19 18 17 18 18 18 19 19 19 19 19 20 21 22 23 24 25 23 20 18 14 17 19 20 19 21 21
5 3 3 13 13 4 6 8 3 6 9 5 6 11 7 8 13 15 18 22 22 20 21 20 19 18 18 19 19 20 21 20 21 21 22 23 24 24 25 26 27 19 19 19 20 20 21 22 21
5 4 6 4 7 5 5 9 6 4 2 1 6 5 5 10 13 15 19 23 23 22 21 20 20 18 18 19 20 21 22 22 22 22 22 23 23 23 26 26 27 17 18 20 19 21 23 23 22
4 3 5 6 14 10 5 9 7 6 3 6 1 1 2 3 14 17 20 25 24 24 23 22 20 19 18 18 19 21 21 22 23 23 24 24 23 24 25 26 24 25 25 17 21 23 24 25 24
8 5 10 14 10 7 5 4 4 2 3 8 1 6 11 8 6 18 23 28 28 27 26 25 22 19 18 18 18 21 22 22 23 24 24 23 23 22 24 25 24 26 19 18 25 27 27 26 25
7 8 13 6 9 6 3 3 2 2 4 5 9 6 12 12 10 19 26 31 31 30 29 28 24 22 19 18 18 20 22 23 23 22 21 22 21 22 23 23 24 25 19 18 23 26 27 26 27
7 15 7 8 14 8 10 9 7 6 9 11 10 12 16 13 11 16 28 32 31 31 30 29 26 24 21 20 20 21 24 25 26 25 25 24 25 26 27 28 30 26 22 23 25 26 27 28 27
7 10 14 6 11 10 9 10 10 13 14 25 20 19 20 17 14 17 22 31 32 32 30 29 28 26 23 21 20 20 22 26 29 29 28 28 27 28 29 31 28 29 26 29 30 32 30 30 27
9 9 9 16 20 16 16 18 19 15 18 29 27 19 18 15 17 17 20 28 34 33 33 30 30 29 26 24 21 19 20 24 27 28 29 31 30 29 29 30 30 31 27 31 34 36 36 32 32
4 13 18 17 21 14 16 20 10 10 18 23 21 24 20 19 18 15 18 23 30 32 34 34 33 32 30 27 24 20 20 22 26 26 27 29 29 31 29 32 29 28 27 35 39 40 40 35 31
6 8 9 12 11 8 7 16 15 24 25 23 25 26 23 21 17 16 17 20 22 27 31 36 36 37 35 31 27 23 21 23 24 24 25 28 28 30 32 29 30 28 27 31 45 43 41 34 31
4 4 9 4 15 11 11 22 5 4 11 11 13 11 11 8 9 11 13 15 19 22 25 30 38 40 39 36 30 27 25 24 23 23 25 28 30 29 30 29 29 23 21 25 46 49 39 36 33
5 8 5 4 11 7 17 17 2 5 1 5 6 8 11 16 17 16 15 16 18 22 26 32 36 40 42 39 32 29 26 25 24 24 25 27 28 28 28 28 27 27 21 27 39 41 38 40 38
12 7 8 9 4 7 12 16 10 15 7 8 14 17 20 20 21 21 19 19 21 22 25 28 30 35 42 40 33 32 28 27 25 25 24 25 27 28 28 27 26 32 29 32 34 36 37 38 36
5 12 15 3 2 4 13 18 11 12 17 18 22 20 20 22 20 18 17 19 22 23 24 23 29 34 42 43 39 36 33 29 27 26 24 23 24 25 28 27 27 26 27 40 42 45 44 40 37
15 17 14 5 7 7 16 21 15 13 17 25 22 20 22 18 15 15 19 19 21 22 24 24 26 30 39 44 41 38 33 28 26 26 23 24 24 24 28 25 27 27 30 45 46 48 47 41 38
14 18 13 13 4 7 8 19 14 5 13 14 14 15 12 10 10 18 21 21 19 21 25 25 23 29 34 43 42 38 31 28 26 28 26 25 26 26 29 24 28 25 30 48 58 54 50 46 39
16 11 12 9 5 8 2 8 5 10 7 5 7 4 4 6 10 17 22 24 22 21 22 26 25 28 33 43 43 39 33 29 27 25 29 28 30 29 28 23 30 28 31 44 53 51 46 46 41
8 9 12 11 9 6 8 6 2 3 6 1 1 5 3 8 15 18 21 22 25 22 21 26 25 26 33 41 43 37 32 27 24 23 26 29 29 27 22 27 22 33 39 41 42 44 44 42 42
7 5 3 3 3 6 10 9 3 7 6 2 2 2 6 9 15 20 24 23 25 23 21 25 26 27 34 40 42 35 30 26 24 23 25 27 27 28 32 22 28 25 41 44 45 45 50 49 46
6 7 3 4 5 6 9 9 7 3 1 3 2 6 9 13 17 21 24 28 25 27 25 25 26 30 35 40 39 35 28 24 22 21 22 26 30 31 22 21 32 27 40 43 45 44 46 48 46
11 11 5 6 5 1 5 6 2 2 9 5 3 5 10 13 15 20 25 28 28 31 24 26 28 31 36 39 39 32 26 23 22 18 19 21 27 30 31 26 29 27 34 45 48 49 52 49 47
5 9 1 2 2 2 4 5 4 6 4 3 2 3 11 18 22 25 24 29 33 30 24 26 29 33 35 39 38 31 25 22 21 16 17 16 17 20 26 29 31 27 27 47 46 51 49 47 46
5 8 6 3 4 6 5 6 5 10 6 3 2 6 12 16 23 29 24 34 40 31 22 24 28 32 33 38 35 31 22 21 19 17 19 18 16 18 21 26 28 27 31 41 49 51 47 47 48
5 4 1 3 4 3 2 2 3 5 3 2 3 3 10 16 24 30 28 48 43 29 19 23 28 31 33 37 36 29 22 21 20 19 19 18 16 14 16 18 19 22 31 36 45 49 57 53 51
3 7 9 5 4 4 6 7 2 4 6 4 4 4 7 15 24 30 36 52 41 13 17 23 26 28 34 35 34 26 22 22 22 21 20 18 16 11 11 15 16 16 21 28 37 45 48 57 53

GFSSGP_850_spd_108.txt.gz
Wind_Speed
10 8 6 4 6 6 11 6 4 5 5 4 5 8 10 7 4 2 6 13 17 14 12 10 9 9 11 12 13 14 13 14 18 19 21 23 19 18 19 19 18 16 15 15 15 15 15 16 16
10 11 6 4 8 11 10 8 10 7 3 3 5 10 6 7 3 1 10 20 19 15 11 10 9 11 11 12 14 13 14 15 18 19 20 21 20 19 20 18 18 17 16 15 15 15 16 17 17
12 12 8 5 10 14 8 7 6 4 4 7 7 8 3 3 5 5 9 22 19 16 12 10 11 10 10 13 14 14 14 15 18 19 21 21 20 19 20 19 17 16 16 15 14 12 16 16 18
10 8 6 10 17 12 9 4 7 2 5 8 4 6 4 5 4 11 20 23 19 18 15 13 13 13 14 15 15 15 15 16 17 19 20 21 23 23 22 20 19 16 15 14 11 12 15 17 19
11 7 10 14 22 16 10 7 8 5 2 4 4 9 4 4 9 15 21 23 20 19 18 16 15 15 16 16 17 17 17 17 18 19 21 23 24 22 24 22 20 17 19 17 12 21 19 21 21
12 9 9 17 20 9 12 14 11 12 7 5 6 13 9 7 10 15 18 23 21 19 18 17 17 16 17 17 19 19 19 19 19 20 21 22 23 24 24 22 22 20 19 16 14 19 21 22 21
18 11 17 19 17 13 9 10 14 13 8 9 3 7 4 5 9 16 20 25 22 21 20 19 19 19 18 18 19 19 20 20 21 21 21 22 21 22 24 25 25 23 18 16 19 21 22 22 23
18 10 21 18 16 20 9 6 7 14 11 2 6 5 5 0 10 14 21 25 25 24 22 21 21 20 20 20 20 21 21 22 21 21 21 22 22 23 25 27 25 26 18 18 18 21 21 23 25
15 11 17 20 18 15 4 9 7 5 6 4 5 3 2 2 1 12 17 20 24 27 25 24 23 22 22 20 21 21 22 22 23 22 22 22 22 22 25 25 26 26 21 21 18 18 23 24 24
17 16 25 17 16 8 5 11 7 9 15 11 6 4 2 4 3 10 18 22 25 29 28 26 26 24 23 20 18 21 22 22 22 23 23 25 24 21 22 23 25 24 24 24 19 20 23 24 26
17 26 16 16 20 20 17 14 13 13 14 15 12 6 6 5 6 10 15 20 24 22 23 27 27 27 25 21 17 20 22 20 21 22 22 21 24 23 24 22 22 23 25 25 19 22 23 25 28
20 24 26 21 22 17 16 18 19 18 22 21 13 14 13 13 11 11 14 18 21 23 24 27 31 29 27 21 19 17 22 22 23 24 25 25 24 24 24 22 19 22 24 23 24 25 26 27 29
24 22 20 23 26 22 20 22 21 24 16 23 20 16 16 15 15 14 14 17 19 23 24 24 31 32 30 28 22 21 19 23 24 26 27 26 27 27 27 29 29 28 29 23 24 28 29 26 29
15 22 28 23 20 21 18 22 22 18 19 27 21 19 16 16 18 16 16 17 21 22 23 23 28 30 31 31 29 27 24 20 22 27 28 26 27 30 29 29 30 30 32 26 29 31 32 30 31
22 20 18 17 15 16 15 25 26 30 30 32 30 26 23 21 20 19 19 18 18 20 20 24 27 28 34 33 33 31 28 24 23 23 26 27 29 28 30 30 31 32 33 32 28 33 34 34 36
15 19 20 19 23 24 14 27 5 6 9 18 19 18 17 17 17 17 17 18 17 18 20 22 25 27 32 35 35 35 31 27 25 24 24 27 27 29 30 29 30 31 32 30 29 29 42 40 42
18 17 20 15 10 15 22 17 15 10 11 11 9 9 10 11 12 15 16 15 14 17 18 21 25 29 30 33 36 37 33 31 27 26 26 25 27 30 31 30 32 33 31 30 30 27 34 44 39
17 17 16 10 8 15 18 19 8 10 12 9 10 12 14 16 18 19 16 13 14 16 19 21 23 28 28 31 38 38 36 34 31 29 27 25 28 29 32 32 30 29 31 28 28 36 44 53 42
17 12 15 14 7 13 16 19 19 17 16 17 19 21 22 22 21 17 11 11 15 20 24 25 25 26 25 35 41 42 41 38 35 32 29 27 27 28 31 32 29 29 28 30 25 35 46 41 40
12 12 20 14 8 11 16 22 19 17 18 22 23 24 23 20 15 11 9 9 11 18 20 23 24 24 24 33 39 40 43 39 36 32 30 27 26 26 27 28 29 26 26 32 31 37 32 37 42
19 21 18 18 10 14 19 24 24 22 22 26 22 17 15 12 10 7 6 8 11 13 17 20 20 21 24 25 33 34 37 36 37 34 31 27 25 24 25 25 25 27 23 30 38 40 45 52 46
21 20 18 13 10 14 5 10 5 4 12 11 12 11 9 8 5 5 7 10 11 14 16 18 18 20 24 26 33 40 42 40 36 33 30 27 26 24 26 24 25 23 24 31 37 42 51 53 49
15 13 12 15 16 15 19 9 12 6 14 11 10 10 7 5 3 4 7 11 14 15 14 14 15 19 23 28 36 37 29 25 22 21 23 25 25 25 27 26 27 26 24 27 32 47 52 56 49
8 8 9 8 9 12 18 14 11 11 12 8 7 7 4 3 4 7 9 11 14 14 15 12 15 19 22 29 35 33 29 25 24 24 23 23 25 27 29 26 24 25 25 30 27 48 52 50 46
13 15 6 7 6 10 6 12 13 5 5 8 6 5 4 2 5 8 12 14 14 16 15 14 15 19 22 28 34 31 28 27 23 20 18 20 26 30 28 28 25 25 27 25 30 44 51 46 44
21 18 6 8 9 10 9 8 5 8 10 6 4 1 2 3 5 9 13 16 18 20 19 15 17 19 23 26 34 30 29 23 20 20 19 20 24 22 29 24 26 27 25 32 35 42 49 51 51
14 14 10 6 1 3 8 5 4 8 9 7 7 5 6 8 10 14 19 16 16 25 24 20 18 21 25 24 33 36 31 23 18 17 17 16 16 22 27 30 27 22 30 35 42 47 51 51 49
10 13 9 9 6 8 8 10 5 12 11 9 10 7 4 8 14 18 20 21 22 27 29 23 20 24 26 25 33 32 30 22 18 16 17 16 17 19 23 28 28 29 29 32 46 50 50 49 46
10 11 9 8 9 5 2 3 4 7 6 6 5 4 6 9 14 17 22 23 26 27 27 20 22 25 27 26 31 29 29 22 20 17 17 17 15 15 17 22 25 28 30 30 34 41 52 48 46
14 16 15 8 9 10 10 5 4 3 1 3 5 6 9 9 13 18 22 26 30 28 16 10 18 24 27 25 27 30 29 23 22 21 18 19 18 15 15 17 20 27 28 29 33 37 46 48 49

GFSSGP_850_spd_111.txt.gz
Wind_Speed
11 9 5 9 7 8 16 17 7 3 6 4 4 6 8 3 4 3 7 8 15 15 12 9 6 3 7 8 9 11 12 11 12 14 16 18 16 14 14 14 14 13 12 11 11 11 12 12 12
9 9 10 12 8 14 13 17 6 10 5 4 5 9 6 7 3 6 9 11 16 15 11 10 6 0 5 5 8 11 11 11 12 15 18 18 17 15 16 15 14 14 12 12 11 11 13 13 12
14 12 13 6 14 17 15 5 4 5 0 8 7 12 11 8 3 5 7 17 16 14 11 10 7 4 5 7 9 10 10 11 13 15 16 19 18 15 17 17 15 14 13 12 11 12 11 12 14
11 11 13 12 19 19 16 8 7 5 7 12 11 8 9 1 6 8 15 19 16 15 12 11 8 8 8 9 10 11 11 12 14 15 16 18 18 18 18 18 15 14 13 12 11 11 9 12 14
15 16 13 16 23 24 12 7 5 11 5 9 10 11 7 8 6 12 17 18 18 16 15 13 12 11 11 11 12 13 13 13 14 16 17 19 19 19 18 19 17 15 14 12 12 8 11 15 15
15 19 15 16 24 21 16 9 10 12 10 7 10 15 6 10 9 13 17 18 17 18 17 16 15 14 14 13 14 14 14 15 15 16 18 19 19 19 19 21 18 17 17 16 17 12 17 17 15
20 15 19 22 21 19 15 12 14 16 16 16 13 14 15 10 10 14 18 18 18 21 20 17 17 16 15 15 15 16 16 16 16 17 17 17 18 20 20 22 19 20 18 17 15 14 14 13 13
25 16 27 22 19 24 16 9 14 18 19 18 8 9 12 13 11 14 17 17 17 20 21 20 18 18 17 17 17 18 18 18 18 18 18 17 18 19 20 22 21 22 21 20 15 14 14 19 20
20 17 20 26 24 21 15 7 12 12 17 9 12 16 4 4 10 14 18 19 18 17 18 20 20 19 19 19 18 19 19 19 19 20 19 19 20 20 22 23 22 23 23 21 15 15 16 18 18
23 17 27 23 21 18 15 8 14 14 17 14 13 7 4 5 9 17 18 21 21 20 20 19 19 18 19 19 19 20 21 21 22 23 21 22 20 20 21 21 25 24 25 24 20 19 16 19 21
29 28 22 24 28 23 22 16 16 14 17 22 20 17 12 9 11 14 19 20 22 21 20 20 19 19 19 16 15 13 20 19 21 20 21 19 20 20 22 23 25 25 25 22 23 25 20 22 23
28 32 29 28 34 20 21 24 24 21 21 16 16 14 11 13 14 16 18 20 22 22 23 21 20 20 21 18 18 16 20 17 17 19 19 21 23 24 24 22 21 23 21 21 23 26 19 21 22
31 26 31 30 28 29 23 24 22 26 22 20 23 20 20 20 20 19 18 19 21 23 23 23 23 23 22 24 19 19 21 20 20 20 21 22 18 19 20 21 20 18 19 20 28 25 22 20 23
29 32 31 30 29 23 24 25 27 29 24 27 27 25 26 26 24 23 22 21 21 22 23 23 24 27 24 24 24 21 21 17 21 25 20 23 23 24 23 25 26 24 26 28 29 27 25 26 26
32 27 24 21 25 28 24 28 28 30 30 25 29 31 29 27 25 25 26 24 23 23 23 22 25 29 25 25 24 25 21 20 18 21 22 24 25 26 22 25 26 26 27 30 27 24 24 26 28
18 25 26 27 22 20 17 29 20 25 30 36 34 34 30 29 28 28 26 29 26 22 23 23 24 25 25 26 25 24 24 23 21 20 22 24 26 27 25 21 27 26 27 28 28 26 25 27 30
24 24 29 25 25 25 28 27 23 28 20 17 19 23 25 26 25 25 24 25 26 24 22 21 23 24 25 23 25 26 24 26 24 22 26 24 25 26 26 21 23 24 25 28 26 28 28 29 31
27 26 24 24 23 26 21 22 20 21 14 15 19 17 17 17 18 19 20 21 20 20 20 19 20 23 25 23 25 25 27 27 27 28 27 27 27 26 28 25 26 26 28 28 27 28 27 30 38
28 17 21 16 19 11 17 21 20 21 19 18 18 16 17 18 19 20 19 10 13 16 17 19 19 22 24 23 26 31 43 36 34 24 23 23 24 26 28 27 26 30 26 25 26 25 26 28 35
25 20 23 21 7 10 15 19 18 19 21 24 23 22 24 24 23 22 16 13 14 16 17 19 20 20 24 25 26 35 40 37 37 33 28 25 25 24 24 28 31 32 27 25 24 21 29 34 42
27 24 22 19 9 16 20 21 21 21 22 26 24 25 26 25 22 19 12 12 13 14 12 15 19 21 22 24 27 33 30 33 35 38 36 31 29 27 25 26 28 31 28 27 24 25 29 38 44
24 20 19 16 12 19 19 18 19 22 11 23 28 30 25 20 13 12 12 12 10 9 9 11 14 18 21 24 27 30 38 35 35 36 35 30 29 26 25 25 26 26 27 26 23 28 28 38 46
17 15 14 16 18 18 18 13 17 14 14 13 16 17 15 12 13 12 9 8 8 8 10 12 13 15 19 24 27 31 36 26 22 23 26 32 30 27 26 24 26 25 24 24 21 32 33 47 45
10 7 11 12 13 15 21 17 11 15 12 18 12 15 15 12 8 6 5 6 8 8 10 12 14 15 18 24 25 34 31 25 24 24 24 27 26 25 28 27 26 26 24 24 25 29 33 50 46
15 15 6 6 8 15 19 17 15 6 15 17 14 15 10 7 4 3 5 8 11 13 13 15 15 18 19 24 25 36 33 28 25 24 24 22 22 23 26 27 29 28 26 26 25 29 29 44 48
21 19 6 6 10 12 14 9 12 21 6 12 14 10 8 7 4 4 7 10 13 14 17 20 19 20 21 24 29 31 31 32 29 26 22 20 19 20 23 26 29 26 26 22 23 27 31 40 50
22 16 14 5 8 4 8 9 4 6 17 10 11 8 7 2 2 7 10 12 15 17 22 23 24 24 24 26 29 30 36 34 32 25 22 20 16 15 21 28 26 26 26 24 21 27 30 39 49
15 14 13 8 5 6 8 11 5 14 10 10 7 6 5 3 6 9 10 14 17 20 25 24 27 27 27 28 30 30 38 36 28 26 23 19 17 18 20 20 25 23 20 21 24 28 29 39 43
12 12 12 11 11 5 7 1 12 15 14 11 8 2 2 3 8 9 11 15 19 21 24 25 26 23 26 31 32 31 40 36 28 26 24 19 17 18 16 19 24 26 25 23 23 30 35 40 45
23 16 18 9 14 9 9 2 2 10 9 3 2 0 5 7 12 12 15 19 20 24 28 25 20 13 23 29 30 31 37 35 29 27 23 19 17 17 15 17 17 23 24 23 23 30 36 42 45

GFSSGP_850_spd_114.txt.gz
Wind_Speed
8 7 4 9 6 8 15 18 20 6 3 1 8 4 6 15 9 6 13 12 13 18 16 13 9 4 4 5 7 9 10 10 10 11 12 12 12 10 8 9 10 9 9 9 7 8 10 9 8
7 7 9 12 8 12 14 22 22 3 11 11 2 9 4 3 18 18 16 16 12 18 15 12 9 4 5 7 9 11 10 9 10 12 12 13 14 11 10 11 10 10 9 8 7 7 6 7 8
9 12 14 6 13 16 16 21 9 13 13 7 5 8 6 4 14 14 17 20 15 17 14 13 11 7 5 8 11 11 10 9 9 11 11 13 14 11 11 11 11 10 10 10 8 7 4 6 7
11 7 12 11 21 21 24 20 2 7 5 5 9 6 8 7 8 12 19 18 17 16 15 13 11 9 8 9 11 11 10 9 9 10 11 12 14 14 13 12 12 11 10 9 9 9 5 7 8
12 11 11 15 21 24 22 26 0 6 4 12 14 13 13 11 8 17 22 19 18 16 15 13 12 11 10 11 11 11 10 10 10 11 11 13 15 14 13 12 12 11 10 10 9 9 4 7 9
14 14 14 16 23 25 22 27 10 7 10 9 8 11 7 17 14 19 22 20 19 19 17 15 13 13 12 12 12 12 11 11 11 11 12 12 14 13 14 13 14 13 13 13 12 11 4 9 8
19 13 18 22 22 24 22 25 12 11 12 12 10 10 12 18 18 18 21 21 20 20 18 18 15 15 14 14 13 13 12 12 12 12 12 11 11 13 14 15 15 14 14 12 12 11 8 9 9
25 15 26 21 19 25 25 21 7 10 14 17 15 11 9 19 21 18 19 19 21 21 20 18 18 16 16 16 15 15 14 14 13 13 12 12 11 13 15 15 16 17 16 16 14 10 9 12 11
26 16 20 26 24 22 26 22 9 7 15 19 20 13 8 10 14 18 21 19 17 19 21 19 19 19 18 17 17 16 16 15 15 15 15 15 15 16 17 17 19 20 18 18 16 13 11 14 17
21 18 29 24 22 20 25 25 15 8 15 17 15 9 8 6 12 18 23 24 23 19 19 20 19 20 20 19 19 19 18 17 17 17 17 17 19 18 18 19 22 21 20 20 19 15 13 14 16
30 30 23 28 31 33 27 22 23 12 14 17 16 16 12 11 14 19 22 24 26 21 19 19 19 19 20 19 20 19 20 20 20 20 20 19 21 20 19 18 20 21 22 24 25 22 18 18 17
29 33 33 34 35 31 22 28 24 17 19 19 20 24 24 20 16 18 22 26 28 25 23 21 21 23 24 17 18 13 16 17 19 19 19 20 18 20 22 24 25 26 25 26 27 26 23 24 20
32 28 36 37 34 33 30 26 22 23 23 17 23 18 13 19 16 18 20 22 24 29 29 28 26 26 24 23 22 19 22 19 15 14 15 18 22 23 23 24 24 23 24 24 25 25 21 24 19
31 33 33 35 35 34 26 25 26 28 24 23 21 21 24 18 23 23 23 23 24 24 32 34 31 29 27 26 26 24 25 25 21 22 19 19 20 20 21 22 23 22 19 20 24 26 24 21 21
32 28 28 28 33 27 30 25 30 29 27 27 29 28 28 27 27 28 29 29 26 23 18 33 33 31 29 29 26 26 27 27 22 24 24 23 26 25 23 22 22 22 22 23 27 26 24 23 22
24 25 25 32 26 23 26 32 25 29 30 31 32 32 30 30 33 33 32 30 26 27 25 20 32 30 28 29 28 28 26 26 26 24 22 26 24 28 28 24 22 23 23 26 27 27 25 25 25
24 25 33 26 25 26 24 33 23 28 30 34 37 36 33 34 33 30 27 28 31 27 25 26 25 27 26 27 29 28 31 31 29 24 28 24 25 25 27 24 22 21 22 26 28 28 25 25 25
36 29 22 25 23 25 28 29 21 26 25 25 26 20 29 33 37 36 34 31 28 28 27 23 24 25 26 26 23 28 29 28 31 30 29 33 28 28 28 26 24 22 21 24 27 28 24 23 24
26 26 27 26 25 25 26 27 23 25 21 19 20 29 19 16 18 19 20 22 21 22 21 13 13 15 24 27 28 27 31 32 32 33 32 36 30 30 28 27 25 28 28 27 25 25 24 25 19
29 28 27 19 17 2 6 17 16 15 19 23 21 17 21 18 17 18 21 23 19 13 10 11 13 16 17 24 29 29 31 32 34 33 33 27 26 28 28 28 27 27 26 26 24 22 22 25 22
28 27 23 25 5 14 10 15 20 17 17 21 23 28 29 24 22 22 24 20 15 10 10 12 16 18 21 25 26 25 31 37 40 38 34 29 31 29 29 25 28 27 29 28 26 23 25 25 28
25 26 26 20 6 4 12 8 17 15 18 17 21 23 17 19 19 19 18 16 10 9 8 12 12 15 18 22 28 31 38 41 41 39 35 34 32 29 30 24 26 26 27 28 27 26 25 24 28
24 19 21 11 6 8 13 10 20 20 22 20 27 35 27 20 26 15 13 10 10 8 10 7 10 13 14 19 26 33 38 38 34 30 32 37 33 33 30 28 30 27 26 24 25 27 26 23 29
21 4 7 5 7 8 20 15 15 17 26 23 19 12 15 18 14 10 10 7 4 7 6 9 10 12 14 16 21 31 35 36 32 28 26 31 36 34 32 31 31 27 25 25 26 22 23 26 25
14 13 4 4 7 13 14 15 18 15 14 20 11 20 25 20 12 8 8 6 0 4 7 4 10 16 14 18 22 24 30 34 29 28 29 27 35 37 36 33 32 28 26 27 24 25 24 25 29
16 16 6 7 7 9 19 11 17 23 17 19 18 24 22 16 12 8 7 6 6 10 12 15 17 15 22 19 22 29 32 32 30 30 30 33 32 33 32 31 31 28 26 24 23 23 25 24 31
21 18 16 2 7 4 8 17 5 22 8 14 15 21 13 13 14 10 9 7 7 10 14 20 23 21 24 26 22 30 35 34 33 34 26 36 29 23 28 29 28 28 29 24 22 23 27 25 31
16 17 13 7 3 3 5 15 4 6 19 17 12 13 15 11 11 7 6 8 8 12 18 24 25 24 28 29 28 31 36 32 30 38 29 32 30 27 26 24 26 27 29 25 25 21 23 26 28
9 13 11 11 9 2 1 1 13 6 12 5 8 14 23 21 20 16 11 10 11 14 23 27 31 33 25 25 28 33 36 31 32 37 28 30 28 25 27 22 23 28 26 25 23 23 22 24 27
12 14 16 7 10 5 1 2 9 11 12 11 25 19 22 14 15 15 14 15 17 19 23 30 33 34 24 22 14 31 31 27 31 36 30 33 30 26 24 20 22 25 23 23 22 22 19 25 27

GFSSGP_850_spd_117.txt.gz
Wind_Speed
4 6 3 3 3 2 4 10 16 18 6 9 10 11 3 5 4 5 21 24 15 16 19 17 11 8 8 9 10 12 14 15 14 14 12 12 12 9 9 10 10 11 12 11 11 9 9 7 6
7 9 4 3 3 2 6 18 16 16 5 14 10 10 11 2 19 25 21 16 15 21 18 14 9 8 9 10 12 13 14 14 14 13 13 12 12 9 8 8 9 8 11 10 9 9 8 7 7
9 13 5 4 4 6 6 5 2 3 11 8 3 5 3 7 24 23 17 21 25 21 18 13 9 9 10 12 14 14 14 13 13 13 13 12 12 10 8 8 9 9 9 8 7 9 7 7 7
7 6 6 3 9 12 16 22 15 8 10 8 5 5 5 13 23 21 21 25 23 21 18 14 11 10 12 14 15 15 14 13 13 13 13 13 13 11 8 8 9 9 8 8 8 8 6 7 6
8 7 3 5 10 12 15 27 24 13 7 11 7 2 12 13 24 23 21 23 23 22 19 16 14 12 13 14 15 14 14 13 13 13 12 12 13 11 9 9 9 8 8 9 9 7 2 3 5
5 6 2 10 14 14 15 31 25 12 9 15 8 2 5 24 28 27 23 21 21 21 20 18 16 14 14 14 14 14 13 13 13 12 12 11 11 11 10 10 10 10 10 10 11 10 3 4 6
9 4 7 10 12 15 18 28 8 12 7 6 14 5 16 28 26 28 24 21 21 20 21 20 18 16 15 14 14 14 13 13 13 13 12 12 12 12 10 11 10 11 11 11 10 10 4 4 8
15 4 12 11 11 19 24 24 17 3 1 5 13 5 7 28 29 30 26 23 22 22 22 21 20 19 18 17 16 15 14 14 13 13 13 13 14 14 13 12 12 13 13 13 13 12 8 8 10
24 11 18 16 17 19 28 18 18 8 6 6 8 11 15 33 31 30 28 24 23 23 23 23 22 20 20 19 17 17 16 15 15 15 14 15 15 15 15 15 15 16 16 15 15 15 11 10 11
8 11 22 9 15 18 24 26 23 7 8 7 8 25 29 28 28 29 29 27 26 25 25 24 24 23 21 21 19 18 17 17 17 17 17 16 16 16 16 16 17 18 18 17 17 17 13 12 11
20 28 11 17 28 34 27 28 35 5 7 17 21 26 22 23 21 24 30 28 25 23 24 26 25 25 24 23 21 21 19 19 19 19 18 18 17 18 18 17 18 20 20 20 21 21 18 15 14
21 31 24 30 32 30 22 29 17 15 15 18 20 23 27 23 25 23 25 31 28 25 23 23 25 25 25 24 23 21 21 21 20 20 20 20 20 20 20 19 19 20 20 22 23 23 20 19 18
27 19 31 33 36 44 41 28 20 29 24 21 13 9 28 29 25 23 24 29 31 32 28 25 25 26 25 24 22 21 20 20 18 20 20 19 21 20 21 22 22 21 22 23 24 24 23 23 23
19 28 30 32 40 40 29 26 20 35 24 23 20 18 10 21 27 26 26 24 27 37 35 31 28 26 25 24 23 22 21 19 18 17 17 17 19 20 21 22 23 23 22 21 25 24 23 24 21
32 22 21 29 38 29 27 19 31 24 27 20 22 26 22 16 23 30 27 27 26 20 42 39 35 31 28 25 24 24 24 22 22 23 20 19 20 21 21 23 24 23 21 19 21 23 21 22 22
26 16 22 41 24 22 20 30 27 26 26 29 31 28 30 30 26 24 24 26 29 27 27 31 40 37 32 28 24 25 28 30 27 26 24 23 23 23 23 24 24 21 22 22 23 25 25 24 23
22 25 33 28 12 17 19 28 16 24 28 25 27 32 34 36 36 32 30 28 28 30 31 26 35 40 37 32 27 23 30 29 30 29 26 25 27 27 27 26 24 23 24 25 25 26 26 25 25
26 25 15 17 14 19 21 28 7 19 20 27 28 32 35 39 45 39 36 36 35 36 31 36 35 38 38 36 30 24 24 32 30 31 30 27 26 29 31 31 29 27 25 25 26 26 26 27 24
23 19 21 17 15 19 27 25 18 14 23 18 23 30 34 36 46 44 40 34 31 28 36 35 34 39 40 37 32 27 24 28 34 36 33 33 30 28 30 32 29 27 27 27 27 27 27 28 25
25 24 23 17 15 18 17 8 17 9 9 29 24 25 23 29 32 44 44 37 31 24 24 19 14 29 32 29 27 26 21 23 30 31 34 35 35 32 28 32 35 32 30 28 26 27 29 28 26
27 24 22 17 2 5 8 7 9 5 7 19 35 32 26 23 22 20 25 28 26 24 23 20 16 12 13 15 19 23 23 24 30 31 36 38 37 35 31 33 36 35 33 33 28 28 28 30 28
23 23 25 23 18 4 3 4 7 11 9 6 9 9 13 23 24 19 13 26 27 23 22 19 16 16 14 8 24 26 29 32 35 37 38 37 35 31 30 31 32 35 36 35 29 27 28 27 28
22 24 24 25 9 6 5 3 6 6 6 12 9 18 16 16 23 17 17 25 12 9 10 9 12 13 13 15 12 18 31 33 36 36 40 39 34 33 34 33 32 32 34 35 31 29 28 28 29
26 22 13 3 6 2 8 6 5 5 10 8 13 20 21 13 9 22 24 21 21 19 16 12 9 5 5 7 12 20 19 32 38 38 39 35 31 40 38 36 36 34 33 31 31 28 30 29 29
22 14 6 1 2 4 12 7 14 8 11 18 18 20 9 26 24 29 30 23 19 16 14 11 6 4 10 15 12 15 19 26 35 37 36 33 28 34 47 42 39 36 35 30 28 27 28 30 27
12 8 5 2 5 4 4 7 7 14 19 24 24 21 31 32 33 28 20 16 14 9 5 3 5 10 15 21 24 25 19 22 32 31 30 30 30 30 34 43 41 36 35 31 28 28 29 27 28
9 11 3 0 2 3 5 4 7 13 4 12 23 30 24 30 31 26 21 18 12 10 13 16 16 20 22 23 26 29 31 25 32 34 31 31 31 33 30 34 38 36 35 32 29 30 29 27 28
11 6 4 3 1 4 4 4 3 8 14 12 19 22 24 35 34 30 25 18 10 9 13 18 23 26 27 28 29 28 29 31 28 36 35 30 37 33 33 29 33 36 34 33 29 32 29 26 28
3 5 4 1 4 1 2 3 7 9 11 18 17 32 22 27 30 24 18 12 8 8 13 18 22 26 29 30 30 28 29 30 33 35 35 31 33 31 34 32 28 32 32 31 31 28 28 29 26
13 6 5 3 4 2 6 3 8 18 11 19 24 28 20 24 23 18 13 12 12 14 17 21 26 26 30 31 30 25 22 21 29 32 29 33 33 35 32 27 25 27 32 32 33 29 30 27 26

GFSSGP_850_spd_120.txt.gz
Wind_Speed
6 5 6 4 3 5 4 8 4 14 7 6 8 4 9 4 5 4 28 22 24 20 22 22 19 17 15 14 15 17 20 19 18 17 16 16 14 13 12 12 12 11 12 11 11 9 7 7 8
4 7 5 3 5 3 6 6 12 14 15 23 5 6 4 3 13 20 29 26 22 22 24 22 19 16 13 13 15 18 19 20 19 17 16 16 15 13 12 12 12 11 12 11 10 10 8 7 9
6 8 2 4 4 7 7 6 7 9 29 18 2 4 6 10 14 31 30 27 27 24 22 19 17 15 14 15 16 18 19 19 19 18 17 17 15 13 12 11 10 10 10 11 11 10 9 9 10
9 6 4 2 10 8 8 5 6 10 25 20 3 4 6 10 30 26 30 28 27 24 20 17 17 15 16 17 19 19 19 19 19 18 18 17 16 13 12 11 10 9 8 10 10 10 9 10 9
11 4 2 4 8 9 7 12 19 12 8 26 13 3 7 27 24 27 28 30 28 25 21 19 17 16 17 19 20 19 19 19 19 19 18 18 17 14 12 11 11 9 9 10 10 8 8 9 10
4 3 2 7 15 7 5 30 6 13 25 28 8 11 10 26 28 30 32 32 27 24 22 19 18 17 17 19 20 19 19 19 19 18 18 17 16 14 12 11 11 11 11 11 11 9 6 7 9
4 2 6 7 3 5 10 15 4 12 21 20 21 6 12 34 33 30 32 32 28 24 22 20 19 19 18 18 19 19 19 19 19 18 17 17 17 16 14 14 13 13 12 12 11 11 7 4 10
8 3 4 6 10 10 18 15 14 21 14 14 16 6 10 39 36 33 33 33 29 26 23 22 21 20 20 20 18 18 19 18 18 17 16 16 17 17 16 15 15 15 15 14 13 12 10 4 12
8 3 12 11 7 12 20 9 19 25 24 13 12 9 26 42 40 37 34 31 29 27 26 25 23 21 21 21 20 19 18 18 17 17 17 18 18 18 18 17 17 17 17 16 14 13 11 7 11
9 8 10 6 12 15 21 23 21 10 19 22 4 10 36 47 46 42 38 34 31 30 30 29 27 25 24 23 22 21 20 20 19 18 18 18 18 18 18 17 18 18 19 18 16 15 14 11 10
6 23 10 17 16 28 26 30 31 11 19 24 13 22 38 50 48 44 39 34 31 31 31 31 30 28 27 26 25 23 22 21 20 19 19 18 19 19 19 19 20 20 21 20 19 18 17 14 12
14 23 21 22 30 31 18 23 22 15 20 24 17 24 41 50 50 44 39 33 32 31 31 31 31 31 30 28 27 25 24 23 22 20 20 20 20 21 21 21 21 21 22 21 21 19 18 17 14
20 17 31 26 34 38 29 33 30 41 28 26 27 21 37 43 43 40 35 35 32 30 28 29 33 33 32 31 29 27 26 25 22 21 21 21 21 22 21 21 21 22 22 21 20 21 20 19 18
15 21 24 30 43 36 25 27 24 53 30 27 30 18 29 36 43 43 42 39 37 32 28 28 29 32 34 33 31 28 27 25 24 23 22 22 22 22 22 22 22 22 22 21 20 20 21 20 19
14 15 19 23 37 29 23 23 30 43 32 28 31 27 22 25 31 39 36 38 39 34 32 34 30 31 35 35 33 30 28 26 25 24 21 20 21 23 23 22 21 21 21 20 21 22 23 21 19
15 12 18 27 13 26 18 30 35 34 30 35 33 33 25 21 20 30 32 30 27 27 37 38 39 36 34 33 30 28 27 27 26 25 23 21 20 22 24 24 23 22 22 22 23 22 24 23 21
11 16 21 26 8 11 19 28 36 29 29 32 29 33 34 30 25 29 25 29 31 29 28 30 39 40 38 35 32 29 27 26 26 25 24 23 21 22 24 24 24 23 23 24 24 23 24 24 23
22 14 18 17 16 12 20 23 31 19 25 32 30 27 29 32 33 33 33 33 31 32 31 33 33 39 40 41 39 34 30 27 26 28 27 25 23 24 26 26 25 25 25 25 25 25 25 26 25
19 21 22 24 23 19 22 23 28 15 20 21 27 32 33 36 39 37 35 34 39 38 35 36 32 36 43 47 44 40 35 30 29 29 29 27 26 25 25 27 28 28 28 28 27 27 26 27 26
20 22 23 22 23 21 22 26 24 19 18 27 25 30 33 37 41 36 38 38 40 37 40 39 38 37 43 45 47 41 33 27 27 29 27 29 29 28 27 28 30 31 32 31 31 30 30 30 28
25 29 20 21 20 20 17 8 15 7 19 22 14 21 30 34 32 36 39 40 40 35 30 28 26 31 41 45 45 36 28 25 29 33 30 30 33 32 30 28 26 33 35 33 32 32 31 32 30
25 19 20 22 18 10 2 7 5 6 9 6 7 2 19 35 33 32 32 33 25 22 21 20 20 23 28 32 29 29 29 30 28 28 30 29 32 33 33 30 29 30 38 39 35 33 31 31 31
17 18 19 22 19 12 15 3 7 6 5 9 9 8 6 8 11 17 30 33 29 30 30 30 27 23 20 17 14 14 28 31 28 28 28 28 31 31 31 33 30 32 36 41 39 36 34 31 33
9 16 17 17 6 12 19 10 6 6 13 7 5 8 10 23 36 37 37 34 31 28 27 24 22 19 15 11 11 10 10 13 28 34 33 31 32 31 31 34 34 34 37 37 39 37 33 33 31
7 7 1 4 6 7 17 9 17 6 5 7 7 1 7 34 35 34 31 31 26 22 21 19 15 11 8 8 8 9 10 11 16 20 27 31 32 34 37 37 38 39 39 34 34 37 37 35 32
8 11 5 4 3 4 13 8 6 11 12 10 5 18 29 25 20 25 24 24 22 19 15 10 5 2 8 11 14 15 17 19 21 23 25 27 31 32 34 34 34 38 39 34 34 35 33 35 31
1 6 17 2 7 2 5 4 6 10 11 10 24 34 34 33 27 37 30 24 20 15 12 8 6 10 16 21 23 24 23 23 29 31 28 28 30 33 32 31 32 33 40 38 35 36 33 31 29
7 4 3 3 2 3 1 3 3 10 19 20 19 22 32 31 33 29 26 22 17 12 9 9 10 12 18 23 27 27 26 28 29 33 33 33 32 33 31 31 34 33 31 38 38 37 33 30 30
7 3 5 2 1 3 3 2 5 10 13 21 17 23 29 31 28 23 21 18 16 14 13 14 14 16 19 22 28 29 28 29 30 31 32 38 33 35 33 31 34 35 28 31 37 37 33 28 31
5 11 7 2 3 2 2 2 14 16 17 17 21 23 26 32 27 23 20 17 18 18 18 21 22 21 22 23 26 28 28 29 29 25 30 34 34 34 36 34 36 33 33 29 35 36 34 28 32